GFSWCAN_sfc_temp_000.txt.gz
Temp
57 56 56 56 56 56 56 55 55 55 55 55 55 55 55 55 55 52 49 49 48 43 43 47 47 43 43 42 41 42 43 43 40 38 37 34 34 36 34 36 35 34 30 30 30 28 27 45 45 40 43 43 44 45
56 56 56 55 55 55 55 55 54 54 54 54 54 55 55 55 55 54 48 51 50 47 46 48 49 49 48 48 43 41 43 41 43 38 36 35 34 32 33 32 37 35 39 36 36 35 45 44 46 46 48 46 44 43
54 55 55 55 55 54 54 54 54 54 54 54 54 54 55 55 55 54 48 48 48 45 45 46 46 52 55 53 54 44 43 47 44 45 39 37 36 35 32 33 34 38 42 39 41 41 42 45 44 45 46 46 47 46
54 55 55 54 54 54 54 54 54 54 54 54 54 54 54 55 55 55 50 50 51 47 41 44 53 49 54 55 55 55 52 51 50 48 43 41 41 40 36 38 36 40 40 39 38 42 43 42 44 44 45 44 42 42
54 54 54 54 53 53 53 54 54 54 54 54 54 54 54 54 54 53 52 51 52 49 43 44 48 51 52 55 54 55 53 50 46 43 41 39 42 41 36 35 35 38 39 36 35 42 42 41 42 44 42 42 43 42
54 53 53 53 53 53 53 53 53 53 53 53 53 53 53 53 54 51 47 51 52 51 45 36 46 46 50 51 51 50 50 48 46 42 40 42 44 39 34 35 40 40 42 44 41 43 44 42 41 40 39 40 40 38
53 53 53 53 53 53 53 53 53 53 53 53 53 53 53 52 50 46 43 47 51 52 43 37 39 45 48 48 46 46 47 45 45 42 40 41 41 39 35 34 39 41 42 41 41 43 39 39 39 38 37 36 38 39
50 51 52 52 52 52 52 52 53 53 53 53 53 52 52 51 50 46 47 49 51 47 45 34 36 40 47 42 41 45 42 44 43 41 41 40 40 39 34 37 38 40 40 40 39 39 40 37 35 35 38 37 35 35
46 49 51 52 52 52 52 52 52 53 53 53 52 52 50 46 44 44 49 49 49 46 38 37 34 33 44 41 42 42 43 38 42 39 39 40 36 34 36 38 38 40 40 39 35 32 29 33 32 34 36 37 34 34
45 46 48 49 51 52 52 52 52 52 52 51 49 45 39 42 48 48 45 42 39 40 40 37 41 36 41 40 37 38 38 35 33 37 40 36 34 38 39 41 41 40 39 35 32 29 24 25 33 31 34 35 33 35
45 45 46 47 48 51 51 52 52 52 51 46 40 37 42 47 43 40 35 35 37 34 38 38 39 36 41 36 36 38 33 33 28 28 34 31 27 33 38 37 34 32 34 34 34 31 32 34 34 33 33 33 33 33
45 46 45 46 47 48 50 51 52 50 46 45 42 43 42 38 35 33 32 33 33 31 35 35 36 38 37 39 35 35 32 32 26 34 31 27 31 35 37 34 34 34 35 36 35 35 34 34 34 33 33 32 32 32
45 45 45 46 46 47 47 50 51 48 49 44 39 35 36 34 27 27 22 28 27 31 33 34 33 36 36 35 34 33 29 28 33 28 25 27 31 32 31 35 34 32 33 33 33 32 33 32 33 32 31 30 29 28
45 45 45 46 46 46 46 47 49 48 44 37 33 29 29 26 26 25 24 25 29 31 34 35 34 33 35 33 33 29 31 32 25 22 22 29 29 33 33 33 33 33 33 33 32 32 31 31 30 30 30 28 27 26
46 46 45 45 46 46 46 47 48 45 39 34 33 27 27 24 26 26 29 29 30 33 35 33 31 33 30 29 31 30 26 24 25 24 28 27 24 25 32 32 33 32 32 31 30 30 29 29 28 28 28 27 26 26
45 46 43 46 46 46 46 47 44 41 36 34 30 24 29 28 28 21 17 30 31 33 31 28 30 25 27 26 26 23 24 22 26 28 26 22 30 31 32 33 33 32 31 31 30 30 29 28 27 27 27 26 26 25
44 40 46 47 46 46 46 40 38 32 32 32 28 30 24 25 28 24 29 29 34 27 21 29 18 19 28 24 21 25 25 29 29 25 23 26 29 32 33 33 32 32 31 30 29 29 28 28 26 25 24 25 24 25
39 41 47 48 45 43 40 37 33 32 31 32 26 27 33 33 32 30 28 31 31 27 26 23 24 20 18 17 19 27 30 27 23 24 25 28 30 31 29 30 32 30 30 29 25 22 18 17 22 25 21 19 18 18
41 42 44 44 44 38 32 32 33 29 30 32 30 28 31 33 34 31 30 30 30 30 32 28 26 19 22 25 27 27 18 21 30 31 31 32 32 31 31 26 23 20 20 20 24 25 24 24 25 24 23 23 23 23
45 45 43 41 42 34 32 32 34 31 28 30 30 30 29 29 30 30 31 30 25 24 28 24 25 26 29 32 28 25 25 29 30 28 29 30 30 20 23 22 25 24 24 20 18 24 18 22 23 23 22 23 21 20
42 42 41 36 34 34 32 32 31 31 30 29 30 28 28 30 30 27 27 26 24 30 28 27 29 32 28 27 31 30 30 29 28 28 29 24 27 20 18 16 16 23 22 22 23 23 25 22 20 19 15 21 20 20
36 41 35 36 32 32 31 32 31 30 27 27 29 28 26 25 26 29 31 30 30 26 29 29 27 26 26 29 30 29 30 29 28 26 32 30 23 18 18 18 18 16 16 16 17 19 18 18 19 19 17 14 18 15
40 37 33 32 28 28 26 32 27 26 23 24 26 24 25 25 26 29 27 27 27 29 28 26 25 25 27 26 27 25 27 26 25 24 24 23 22 19 18 20 22 20 18 18 18 19 16 22 21 16 15 14 13 13
39 26 24 24 26 23 25 25 28 25 24 23 23 20 22 23 26 25 23 20 23 26 26 24 21 20 19 17 21 23 22 22 22 22 21 19 16 21 22 21 22 21 21 19 18 16 15 15 19 13 11 11 10 9
23 22 18 16 22 22 21 21 22 22 20 19 14 16 18 22 17 17 15 18 19 19 18 18 17 15 10 14 21 21 22 23 19 17 21 23 21 20 18 19 19 18 19 16 15 15 11 10 11 11 10 9 8 9
20 22 21 9 19 13 19 18 19 19 15 9 11 17 14 15 14 14 15 12 10 12 11 10 9 11 18 19 19 19 18 19 22 20 20 22 22 19 16 15 13 13 16 17 13 11 10 10 10 8 9 10 16 10
10 14 23 27 21 19 15 18 21 14 8 9 15 14 11 9 11 16 11 11 11 10 13 13 11 10 10 13 19 19 18 16 16 17 19 19 19 21 18 14 12 15 17 16 12 12 11 11 10 9 9 8 6 7
20 19 14 18 15 12 9 9 6 8 11 16 17 8 11 13 14 9 7 9 6 6 7 11 11 9 8 9 11 15 14 15 16 17 19 19 18 17 17 18 17 23 14 11 11 10 11 9 8 8 7 7 7 8
20 18 18 19 11 8 8 11 13 16 21 17 13 11 10 11 2 3 9 9 5 7 8 6 8 9 12 12 12 13 15 14 15 14 13 13 14 14 13 13 13 12 9 10 19 17 11 11 11 10 5 6 8 6
18 13 11 6 10 14 14 14 8 6 15 14 15 9 8 5 4 7 8 5 6 4 2 3 5 7 8 6 8 11 13 14 14 14 13 12 12 12 9 9 8 8 7 6 7 6 17 10 8 3 3 4 5 6
14 10 7 8 9 6 8 13 14 18 12 8 11 8 4 2 7 7 3 4 6 5 7 6 9 11 13 11 10 11 11 13 14 15 14 14 12 11 9 7 7 5 4 5 5 4 1 0 -2 -2 1 -0 1 5
19 21 11 5 4 6 8 8 9 9 8 8 6 6 9 9 9 4 5 3 5 7 12 11 11 10 12 13 14 17 18 14 13 12 13 12 12 11 10 8 5 6 6 6 4 3 1 -3 -1 1 3 0 1 2
13 13 10 8 6 7 12 14 12 7 4 1 4 8 9 13 9 4 9 9 8 9 9 10 11 11 12 12 12 14 14 13 17 22 24 24 21 17 12 8 7 8 8 7 5 4 2 -1 -1 1 1 -1 -1 0

GFSWCAN_sfc_temp_003.txt.gz
Temp
51 52 53 56 56 56 56 56 56 56 55 55 55 55 55 55 55 51 48 48 47 41 42 45 46 43 42 41 41 41 43 42 39 38 37 35 35 37 36 35 35 35 31 32 32 30 31 44 45 41 42 42 44 44
50 51 53 54 56 56 56 56 55 55 55 54 54 55 55 55 55 53 47 50 49 45 44 46 47 47 46 46 42 39 42 40 42 37 35 34 34 33 34 33 36 35 39 36 37 36 43 42 44 44 46 44 44 42
50 50 52 52 55 55 55 55 55 54 54 54 54 54 55 55 55 54 47 47 47 44 44 45 44 50 52 50 52 43 41 45 43 43 37 36 36 34 31 33 33 37 40 38 39 38 40 43 44 45 44 45 44 44
49 49 51 53 55 55 55 55 55 54 54 54 55 54 54 55 55 55 48 48 48 45 41 43 51 47 51 51 52 51 48 47 46 43 39 38 38 38 34 37 35 38 40 38 38 38 40 41 42 43 44 41 41 41
48 48 51 54 54 54 54 54 54 54 54 54 54 54 54 54 55 53 51 49 50 47 43 42 47 48 49 51 51 51 50 46 43 41 40 39 41 41 38 35 36 38 38 37 36 41 41 40 42 42 41 40 40 39
47 48 51 54 54 54 54 54 54 54 53 53 53 53 54 54 54 49 44 50 51 51 45 38 46 45 46 48 47 46 47 47 42 42 40 41 44 41 33 31 38 39 41 43 41 42 43 42 41 39 39 37 36 36
46 49 53 53 53 53 53 53 54 54 53 53 53 53 53 53 49 46 43 47 50 51 44 37 38 45 47 47 46 46 47 44 45 42 40 40 41 40 34 32 39 39 41 41 40 42 39 39 37 35 34 37 39 39
45 46 52 53 53 53 53 53 53 53 53 53 53 53 52 52 50 45 47 50 51 47 44 34 36 39 47 41 40 45 42 44 42 40 41 40 40 37 33 36 36 39 40 39 39 38 38 36 35 33 34 36 35 36
45 45 48 52 52 53 53 53 53 53 53 53 52 52 50 46 44 45 49 50 49 46 37 37 34 33 43 41 41 41 42 38 42 39 39 39 35 32 35 36 37 39 38 38 32 31 32 32 33 30 30 30 34 35
45 45 46 49 51 52 52 53 53 53 52 52 49 44 39 43 49 48 45 43 39 40 39 34 39 35 41 40 37 37 38 35 33 37 40 36 34 39 37 39 39 39 39 35 32 31 26 24 24 29 31 32 35 36
45 45 46 47 49 51 51 52 52 52 51 46 40 38 42 48 44 40 34 35 36 31 38 36 36 36 41 36 35 37 32 32 27 32 34 31 24 29 34 34 32 31 35 35 34 31 31 32 33 32 32 33 32 31
45 44 45 46 47 50 51 51 52 50 47 45 42 44 42 38 34 29 33 32 32 30 33 36 36 38 37 39 35 34 31 31 27 33 31 25 26 30 33 31 32 33 35 35 34 35 33 33 33 32 32 32 32 31
45 44 45 46 46 47 50 51 51 48 49 44 40 35 36 33 28 26 22 28 28 32 34 34 33 36 36 37 34 33 29 28 31 28 26 23 26 29 29 33 32 31 34 33 34 33 33 32 33 32 31 31 30 28
45 45 45 46 46 46 47 48 49 48 44 35 33 29 31 27 26 25 24 26 30 33 35 37 34 33 35 33 33 29 31 30 22 17 17 22 26 32 32 32 34 33 33 33 33 33 32 31 30 30 30 29 28 27
45 46 46 45 45 46 46 46 47 45 38 33 34 29 28 24 23 18 28 32 32 38 36 33 31 33 29 30 31 30 26 24 22 19 22 24 25 27 32 32 33 33 32 31 30 30 30 29 27 27 28 27 26 26
45 45 42 45 46 46 45 45 42 40 34 32 31 25 29 24 27 27 26 31 33 35 32 31 27 26 27 28 27 26 23 18 21 22 25 21 29 30 32 34 33 32 30 31 30 30 30 28 27 26 26 25 25 25
44 38 44 46 46 45 45 39 37 32 32 32 30 30 23 21 26 29 32 34 35 37 25 28 20 21 27 23 20 24 23 24 24 22 21 26 29 30 32 33 34 32 31 30 29 29 29 29 26 24 24 25 24 25
39 41 45 47 44 42 38 35 32 32 30 32 27 27 30 31 30 30 29 34 34 30 26 22 25 23 20 18 19 25 23 20 20 24 25 28 28 30 29 31 32 30 30 29 24 20 18 17 20 24 21 19 17 17
40 41 44 44 42 37 32 32 32 30 30 31 29 28 30 31 30 30 32 32 32 32 30 28 20 18 23 24 22 17 16 20 28 29 29 31 31 31 31 26 25 21 20 19 24 25 24 24 23 23 23 22 22 22
44 44 43 42 41 33 32 32 33 31 28 30 31 29 29 30 29 33 32 31 30 28 23 20 25 28 29 28 24 23 24 28 29 27 28 29 29 21 22 22 24 24 23 19 17 23 17 22 23 23 22 23 22 21
41 40 40 38 34 34 32 31 31 31 30 28 29 28 28 28 28 29 30 28 25 18 23 27 29 29 26 26 30 30 29 28 27 28 28 22 26 19 17 14 14 22 22 21 21 22 25 22 21 19 17 21 20 19
35 40 36 36 32 32 31 32 30 30 28 28 28 28 26 25 25 28 32 29 24 26 29 29 28 29 28 28 28 28 28 28 27 26 31 29 23 17 17 17 17 13 14 14 15 17 17 18 19 19 18 15 17 14
40 37 32 32 28 28 25 32 26 26 24 24 27 25 24 24 26 30 27 27 27 29 28 28 26 24 25 25 25 23 24 24 23 22 23 22 21 17 16 18 16 11 12 15 17 18 15 22 22 15 14 13 12 12
38 25 25 25 26 23 27 25 28 24 24 24 23 20 20 20 27 24 22 20 23 26 25 22 19 18 18 17 20 20 20 21 21 20 20 17 15 19 20 19 20 18 19 18 17 16 14 15 17 11 10 8 7 7
20 16 18 16 20 19 18 18 19 20 19 20 19 18 19 23 21 19 16 19 21 20 18 18 18 17 13 15 19 19 20 21 18 17 22 24 20 18 15 17 17 17 18 15 15 14 10 9 9 8 8 7 6 6
14 19 9 7 12 14 19 13 17 19 19 18 17 18 18 19 15 14 16 15 15 14 11 9 10 11 18 18 18 18 17 17 20 18 17 20 20 14 8 11 10 12 16 17 13 11 11 10 8 5 7 7 14 8
6 12 22 27 20 18 14 19 22 18 15 15 13 14 15 13 11 16 14 15 15 13 14 13 12 12 11 13 18 18 17 13 12 12 18 18 18 19 15 13 12 13 17 16 15 13 10 9 8 6 5 5 3 4
18 17 13 21 14 12 9 8 7 9 12 17 17 9 11 14 15 11 10 12 11 10 10 13 13 10 8 8 9 14 13 13 14 15 18 18 17 15 17 17 19 23 14 12 9 8 10 8 8 9 8 6 5 3
14 19 17 19 13 8 8 10 11 14 20 16 12 11 10 10 2 3 10 9 5 7 8 7 9 8 10 11 11 12 13 12 10 9 10 9 11 12 12 14 13 12 11 11 20 17 12 11 12 9 4 5 5 3
20 17 12 10 11 14 12 12 7 6 14 13 14 9 7 4 4 5 5 3 4 4 2 2 2 2 2 4 5 10 11 11 13 13 12 12 13 12 10 10 10 9 8 10 10 8 17 9 7 2 2 3 4 5
16 9 7 7 7 4 4 11 13 16 8 3 6 6 4 -0 5 6 2 2 1 0 3 2 3 4 7 9 7 9 10 13 13 12 13 14 13 11 10 9 9 7 7 6 5 4 1 -1 -3 -4 -0 -2 -1 4
21 22 16 8 6 5 7 6 5 5 3 4 1 3 4 7 6 5 5 1 3 4 9 8 8 8 12 13 13 15 18 12 13 13 13 13 13 12 13 12 8 8 7 7 4 3 0 -3 -2 -1 2 -1 -1 0
14 14 12 8 2 1 7 5 5 2 2 -0 2 6 4 8 6 2 8 7 5 7 8 9 10 12 12 12 12 14 15 13 18 23 24 23 21 17 13 8 8 7 7 7 5 3 1 -2 -3 0 0 -2 -3 -1

GFSWCAN_sfc_temp_006.txt.gz
Temp
50 50 51 52 53 54 56 57 56 56 56 55 55 55 55 55 55 50 47 47 46 40 40 44 45 42 41 41 40 41 43 43 39 38 37 34 34 36 34 35 34 35 31 31 31 30 31 44 45 41 42 42 44 44
49 49 50 50 51 52 55 56 56 55 55 55 55 55 55 55 55 53 46 48 48 44 43 45 46 46 45 46 41 39 41 40 42 36 35 35 33 32 35 34 37 36 39 36 37 36 43 41 43 43 45 44 43 43
48 48 50 50 50 51 52 56 55 55 55 55 55 55 55 55 55 54 47 46 46 43 43 44 43 48 51 48 50 43 40 43 41 42 37 37 36 36 33 35 33 36 40 39 39 39 41 43 44 45 45 45 45 43
48 48 49 49 50 51 52 55 55 55 55 55 55 55 55 55 55 54 48 49 47 45 41 43 49 45 50 49 50 49 47 45 44 42 39 39 38 37 34 37 36 38 39 37 36 37 40 42 42 45 44 43 42 41
47 47 48 48 50 52 53 54 55 54 54 55 55 54 54 54 54 53 50 50 50 48 42 43 47 47 47 49 48 49 48 44 41 39 38 37 39 38 35 35 35 37 38 37 36 41 41 40 43 42 42 41 39 38
48 47 47 48 50 52 54 54 54 54 53 53 53 53 54 54 54 51 47 50 50 48 43 38 46 45 48 48 46 45 45 43 41 39 37 38 41 38 30 32 38 38 40 41 40 40 40 40 40 39 38 36 35 34
48 46 46 48 50 53 53 54 54 53 53 53 53 53 53 53 49 44 43 46 50 51 43 37 38 45 47 48 46 46 47 43 42 38 37 38 39 40 34 31 38 38 40 40 40 41 38 37 37 34 35 37 38 37
47 46 46 46 49 53 53 53 53 53 53 53 53 53 52 51 50 46 48 50 49 47 44 34 35 40 46 41 41 44 43 44 42 39 41 39 40 39 33 35 35 37 37 37 36 36 37 35 34 33 33 33 31 33
47 46 45 46 48 52 52 53 53 53 53 53 52 52 49 46 42 45 50 50 48 47 36 36 34 32 44 41 41 41 42 38 42 39 39 40 36 29 36 36 36 38 37 35 32 33 30 31 33 29 31 28 30 31
47 45 45 45 47 50 52 52 53 53 52 51 49 44 38 43 49 48 44 43 38 39 36 34 37 35 39 39 36 38 38 35 33 37 38 33 31 36 37 38 39 38 37 34 32 31 26 26 24 30 31 32 32 32
47 45 44 45 46 47 51 51 52 52 52 46 40 38 42 47 43 37 34 32 35 31 37 34 35 35 41 35 35 36 28 29 23 30 34 27 26 29 33 33 33 33 36 34 35 32 34 35 33 32 32 31 31 31
47 45 44 45 45 47 51 51 52 50 47 45 43 44 42 38 34 31 33 29 31 25 31 36 34 35 36 39 35 34 25 25 26 32 31 21 27 30 32 29 30 34 35 35 34 35 34 34 32 32 31 31 31 30
47 45 45 44 45 46 50 51 51 48 49 44 40 35 37 33 28 27 25 28 19 27 34 34 33 35 34 35 31 30 28 24 33 28 29 25 25 27 28 31 31 32 34 34 33 33 33 30 31 31 31 30 28 28
47 46 45 44 44 44 49 50 49 47 43 35 33 29 31 27 29 24 22 23 27 33 35 37 34 33 35 33 33 29 29 31 25 23 20 21 26 31 31 31 32 32 33 33 33 32 31 31 29 29 30 29 28 27
46 46 45 44 44 43 43 47 48 44 37 33 33 29 28 23 23 18 18 31 33 38 36 32 30 33 29 30 29 26 26 24 27 18 21 22 26 29 31 31 32 32 31 31 30 30 30 29 28 28 28 27 26 26
46 44 42 44 45 44 43 42 41 39 33 32 30 26 28 22 25 28 30 32 34 38 33 32 27 24 26 27 27 22 20 19 21 20 22 25 28 30 31 32 32 32 31 31 30 30 29 28 27 27 26 25 25 25
44 38 44 44 44 43 43 36 35 32 32 31 28 29 23 18 24 29 34 34 35 37 26 28 25 25 27 24 21 23 20 21 19 19 21 26 32 30 31 33 33 32 31 30 29 28 28 27 25 24 24 25 23 24
38 40 45 44 43 41 36 33 32 32 30 31 28 29 29 30 30 32 32 34 35 31 29 26 28 24 23 19 19 22 19 16 18 23 24 27 28 29 29 32 32 30 31 29 22 18 16 17 21 24 20 18 17 18
39 40 44 43 41 36 32 32 32 29 30 30 29 30 28 30 31 32 32 32 33 33 30 27 24 22 22 22 19 15 14 18 28 29 30 30 31 31 30 24 23 21 20 18 23 24 23 23 23 22 22 22 21 20
44 44 43 43 40 33 31 31 33 30 28 30 31 30 30 29 31 34 32 31 32 31 27 25 27 29 28 27 23 23 23 28 30 29 29 28 28 20 22 21 24 23 22 18 17 23 17 21 22 22 21 22 21 19
39 40 40 38 34 32 32 31 30 30 30 28 29 29 28 30 31 32 30 31 31 28 26 29 30 29 25 26 29 29 29 29 28 29 27 21 24 18 17 14 13 22 22 21 21 21 23 20 18 19 17 20 20 20
37 40 36 36 32 32 29 31 29 30 28 27 28 28 27 27 28 30 32 30 29 29 30 30 27 25 24 26 26 27 27 27 26 26 30 29 23 18 17 15 16 11 12 11 13 16 16 16 18 19 18 15 17 15
40 37 30 29 28 26 25 31 25 26 25 25 27 25 24 25 27 30 27 27 27 28 28 28 24 23 25 24 23 22 23 24 22 22 23 21 20 16 15 17 14 11 12 13 15 18 17 23 22 15 15 12 10 10
37 22 21 21 25 22 28 24 27 24 25 24 23 21 21 23 27 26 24 22 24 27 25 23 23 22 20 20 20 19 20 20 19 19 19 18 16 18 19 19 19 15 17 17 17 16 15 16 18 12 10 8 7 8
17 15 15 10 17 21 20 20 21 20 19 20 19 19 19 23 21 19 18 19 22 20 19 18 20 17 14 15 18 18 19 20 19 20 21 24 20 18 15 17 17 17 19 17 15 14 12 11 10 10 11 8 7 5
8 15 10 5 10 12 17 17 19 18 19 18 17 18 19 20 18 17 16 16 16 13 10 9 12 13 17 18 18 17 17 18 20 19 18 20 19 15 11 14 13 13 16 16 15 13 12 12 12 9 8 7 14 4
7 13 21 25 19 18 15 19 22 20 17 17 18 17 17 14 14 16 15 16 15 12 13 12 11 12 12 14 17 17 17 13 13 15 18 18 18 18 16 15 13 15 16 16 16 15 13 12 10 8 7 3 2 2
17 17 10 18 13 10 8 8 7 10 13 18 19 13 15 17 17 12 11 12 11 8 9 12 13 11 11 10 11 15 14 14 15 16 18 17 16 15 16 17 18 22 15 14 13 12 12 10 9 8 6 4 2 2
13 17 17 19 12 6 6 8 9 13 20 17 14 11 10 11 6 7 11 10 8 9 9 10 9 9 11 12 13 13 12 11 10 8 9 7 8 10 11 13 12 12 13 14 21 16 10 10 8 7 3 4 3 1
18 12 11 13 13 14 10 9 6 5 12 11 13 9 8 5 5 7 7 3 5 5 3 3 5 5 5 6 7 10 10 9 10 10 8 7 10 11 10 11 11 9 10 11 9 6 18 7 7 2 1 1 2 2
14 9 5 6 6 1 2 12 10 14 5 0 1 4 2 -2 4 5 1 1 0 -1 3 1 2 1 6 4 1 4 6 9 8 10 11 14 13 11 10 10 10 9 8 6 5 4 -0 -1 -4 -5 -2 -4 -2 2
20 17 15 10 7 5 11 9 1 -0 1 1 -2 -1 2 3 1 2 4 -2 -1 2 7 3 3 4 6 8 9 10 18 13 13 14 15 14 12 12 13 11 8 9 8 6 4 3 -1 -4 -3 -2 1 -2 -2 -1
11 10 8 10 5 4 8 8 5 -0 -1 -2 1 5 2 8 5 2 7 6 3 4 7 6 8 11 11 12 12 14 15 13 18 22 23 22 20 17 11 9 8 8 7 6 4 3 1 -3 -4 -1 -1 -3 -4 -3

GFSWCAN_sfc_temp_009.txt.gz
Temp
51 51 51 50 51 51 51 52 53 56 56 56 56 55 55 55 55 51 46 46 44 41 41 42 43 41 41 41 41 42 45 45 41 40 39 36 37 37 35 37 37 38 34 33 32 31 33 46 46 43 44 43 45 45
51 50 50 50 50 50 51 52 52 55 55 56 55 55 55 55 55 53 46 47 47 43 43 44 45 44 44 44 41 38 42 41 43 38 35 35 34 33 35 35 37 37 40 37 38 37 42 42 44 44 46 44 44 45
50 50 50 49 49 50 51 51 52 53 55 55 55 55 55 55 55 53 49 45 45 42 43 43 42 47 49 47 48 43 40 43 41 41 37 36 36 35 33 35 35 36 40 38 39 39 40 42 44 45 46 45 45 46
49 50 50 49 49 49 50 51 52 53 55 55 56 56 55 55 55 54 49 48 46 43 39 43 48 43 48 48 48 48 46 44 43 41 38 37 37 36 34 37 37 40 40 37 35 38 41 42 42 43 43 43 43 43
49 49 50 49 48 49 49 52 53 53 55 55 55 55 54 54 54 53 50 50 51 46 42 43 46 46 46 47 47 48 46 43 40 39 37 36 37 37 36 35 35 37 38 37 37 41 41 42 43 43 42 40 41 41
49 49 49 48 47 48 49 51 52 54 54 54 54 54 54 54 53 50 47 50 50 50 45 38 46 45 45 46 45 44 43 41 39 38 35 36 39 37 30 33 39 37 39 42 41 41 38 39 39 40 38 37 37 36
49 49 49 47 47 47 49 51 53 54 54 53 53 53 53 53 50 46 45 46 50 50 43 37 38 45 47 47 45 44 46 41 40 37 36 36 36 37 33 32 39 37 39 38 39 41 38 37 38 36 36 37 39 36
48 49 49 47 46 47 48 51 53 53 53 53 53 53 52 52 50 46 48 50 50 46 45 34 35 40 46 41 41 44 43 43 42 40 39 38 37 35 33 36 35 37 37 36 35 36 39 35 34 34 34 33 32 33
48 48 48 47 46 46 47 52 53 52 53 53 52 52 49 47 44 46 51 50 48 46 36 34 34 34 44 41 41 42 42 38 41 39 39 39 33 29 36 34 35 35 37 34 33 31 32 33 32 32 32 30 32 33
48 48 47 46 46 45 46 52 52 52 52 51 49 45 39 43 50 49 45 43 40 40 36 34 37 36 40 39 36 38 38 35 33 37 39 34 29 35 36 37 38 37 36 33 31 27 29 25 25 29 31 33 33 33
48 48 47 46 45 44 45 52 52 52 51 46 40 38 43 48 43 38 32 32 33 32 36 36 35 35 40 36 35 37 32 31 28 29 34 28 27 32 33 34 34 35 37 37 38 35 36 36 33 32 32 31 31 31
47 48 47 46 45 45 45 47 52 50 47 45 43 44 43 39 34 31 25 27 32 29 34 35 32 34 36 39 35 34 24 23 18 32 32 24 28 30 32 32 34 35 35 35 35 35 34 34 33 33 32 31 31 31
47 47 47 46 45 44 44 50 52 49 49 45 40 36 37 33 27 28 26 29 19 26 34 34 33 35 33 32 27 26 18 20 30 28 25 26 28 28 29 31 31 33 34 34 33 33 33 32 32 31 31 30 29 29
47 47 46 45 45 44 43 49 49 46 42 35 32 30 32 28 29 25 25 25 28 32 35 35 33 32 31 26 29 28 26 29 23 18 20 23 26 30 30 30 31 30 32 32 32 32 32 32 31 30 30 29 28 27
47 46 45 44 44 43 43 45 46 42 37 33 34 29 29 24 23 15 21 31 33 38 35 31 29 32 29 30 30 27 25 24 26 19 21 20 21 26 29 30 31 30 30 30 29 30 30 30 28 28 28 27 26 26
46 44 41 44 44 44 42 41 41 39 33 32 31 26 28 23 25 28 28 32 34 37 31 28 22 20 26 26 27 18 23 18 22 21 22 24 29 30 30 31 31 31 31 31 30 30 30 28 28 27 25 25 25 25
44 38 44 45 45 43 41 35 35 32 32 32 27 30 24 19 26 29 34 36 40 36 22 24 22 20 26 24 23 19 19 21 20 20 24 32 33 31 32 32 32 31 30 29 29 28 28 27 26 25 25 24 24 24
35 38 45 45 43 40 36 33 32 32 30 29 28 26 32 32 31 33 33 34 35 30 27 24 27 23 18 18 18 21 17 14 18 24 27 30 29 29 31 32 31 30 30 28 22 18 16 17 22 23 19 16 17 18
38 39 44 44 41 35 32 32 32 28 29 30 30 30 30 31 32 32 33 32 33 33 31 27 23 16 20 21 19 14 13 20 28 27 28 29 30 31 29 23 23 20 20 18 23 23 22 22 22 22 21 21 20 20
44 44 43 42 40 33 31 31 33 30 27 30 31 30 30 30 32 33 33 32 32 32 31 26 26 27 27 27 24 24 24 29 33 29 28 28 27 21 21 19 23 23 21 20 20 23 17 20 21 21 20 20 20 18
38 39 40 39 34 33 32 30 29 30 29 27 29 30 29 31 31 32 31 32 32 29 26 29 28 26 26 27 29 29 29 31 30 31 29 24 24 20 17 15 16 24 22 20 20 22 22 19 17 17 15 19 19 19
33 41 36 36 31 30 29 31 28 30 27 26 27 29 28 28 28 30 32 30 29 27 28 28 26 26 26 26 26 26 27 28 27 29 30 29 24 20 18 16 17 10 11 10 15 15 15 15 17 17 16 13 16 14
37 36 29 25 26 24 24 30 25 26 24 25 27 25 24 25 27 31 27 28 27 28 28 25 22 25 24 23 24 23 24 25 23 23 23 21 20 19 18 18 15 13 13 13 15 17 16 22 22 15 14 12 12 11
36 21 18 15 20 20 26 23 26 25 25 24 22 18 20 23 27 27 23 23 25 26 26 23 23 22 21 21 20 19 20 21 21 20 20 20 18 19 20 19 19 16 17 17 18 17 17 16 17 11 10 8 8 7
16 13 12 5 12 16 18 20 20 20 19 20 20 19 20 22 22 22 21 21 22 20 20 22 23 21 19 17 19 19 19 21 20 20 21 22 18 17 16 17 18 17 19 17 15 14 10 10 9 8 8 7 5 2
8 11 12 3 12 13 15 17 19 18 20 18 18 19 20 21 21 18 18 17 17 17 16 16 15 17 17 18 17 17 16 17 21 18 18 20 19 16 13 14 12 13 15 15 14 13 11 9 8 5 5 6 14 2
6 11 21 24 17 17 15 19 22 17 17 18 19 19 19 18 17 17 15 15 16 14 15 15 15 16 15 16 17 17 16 13 15 15 17 17 17 18 15 14 11 13 15 15 14 13 11 10 8 6 4 2 1 2
16 16 8 13 11 8 6 8 9 9 11 18 20 16 16 16 15 11 11 12 11 11 12 13 13 13 13 12 14 15 14 15 15 17 18 17 16 14 15 16 17 22 13 11 11 11 11 9 7 5 4 3 1 1
11 16 15 11 7 6 4 7 7 12 18 15 12 13 13 11 7 9 11 10 10 10 11 10 10 10 12 13 13 14 13 13 11 9 9 8 8 10 9 11 11 11 11 12 22 15 8 8 7 6 3 3 2 -2
18 11 11 14 13 12 7 7 5 8 11 10 13 10 9 7 7 9 9 8 8 6 4 5 5 5 6 9 9 10 10 9 9 10 9 5 7 7 5 8 9 8 9 9 8 7 17 7 7 1 1 1 1 0
13 8 5 5 5 1 3 12 10 12 4 -1 -1 4 3 1 6 7 4 4 4 3 5 4 3 2 7 7 2 5 7 8 6 7 7 12 11 10 10 9 7 5 5 5 4 3 -1 -2 -4 -5 -3 -6 -4 1
20 14 14 12 6 7 13 11 2 -2 2 -0 -2 -4 -2 2 -0 1 5 2 3 6 9 9 8 8 9 8 10 8 17 8 9 12 12 12 12 11 11 9 5 6 6 5 3 2 -2 -4 -3 -3 -0 -4 -3 -3
7 7 9 6 1 1 6 4 4 -2 -3 -5 -2 2 -0 5 2 2 7 4 3 4 6 6 7 10 11 12 12 15 16 12 14 23 22 21 20 15 9 7 7 7 7 6 4 2 0 -4 -4 -3 -2 -5 -5 -4

GFSWCAN_sfc_temp_012.txt.gz
Temp
51 51 51 52 50 51 51 51 51 52 53 53 56 55 55 55 54 52 50 53 53 48 50 48 49 48 46 47 41 45 46 46 42 42 42 40 41 45 45 48 47 45 43 43 45 37 38 54 52 51 53 54 55 55
51 51 51 51 50 51 51 51 50 51 52 52 56 55 55 55 54 53 49 52 52 50 49 50 51 52 51 51 47 44 50 48 47 42 44 45 43 43 47 42 46 45 51 48 50 49 49 51 52 52 58 54 53 54
50 50 51 51 50 51 50 50 50 52 52 52 55 56 56 55 55 54 50 51 50 49 50 50 49 53 55 53 54 52 49 52 50 52 47 45 45 46 44 46 45 45 48 49 46 47 47 49 51 54 56 53 54 54
50 50 50 51 49 50 49 50 50 51 53 53 56 56 55 55 55 54 49 52 52 51 47 48 54 51 54 54 54 54 53 52 53 53 49 47 46 45 45 47 49 50 49 47 43 45 48 50 52 52 51 52 51 51
49 50 50 50 49 50 49 49 50 51 53 53 55 55 55 54 55 53 51 51 54 52 46 46 50 52 53 54 53 54 54 54 54 50 49 47 46 46 43 46 46 49 50 49 50 53 54 53 52 52 51 50 51 49
49 49 50 50 49 49 48 48 49 50 53 53 54 54 54 54 53 51 46 50 51 53 47 41 50 49 52 53 52 51 51 50 50 49 45 46 46 49 44 45 50 51 50 52 53 54 50 54 52 52 50 48 48 48
49 49 49 49 49 49 48 48 48 50 52 54 54 54 53 53 51 47 46 48 51 51 45 38 41 48 50 51 51 52 52 49 50 46 45 46 45 48 45 45 50 49 50 48 49 49 45 49 47 48 47 46 45 44
49 49 49 49 49 48 47 47 48 50 53 54 53 53 53 52 50 47 50 51 51 47 45 35 37 41 49 45 45 49 48 49 47 45 45 46 44 45 42 48 45 47 47 47 46 45 51 47 45 43 43 42 40 42
48 49 49 49 49 48 47 47 48 50 53 53 52 52 49 48 45 47 51 51 49 48 38 38 35 35 46 42 43 43 44 40 44 44 43 44 43 39 47 47 45 44 46 43 39 40 41 40 37 36 37 40 42 42
48 48 48 48 48 48 46 46 48 52 52 52 50 46 40 45 50 50 49 46 41 41 41 39 43 37 42 41 38 40 40 37 34 38 41 37 41 45 45 48 48 46 43 41 36 33 33 32 33 36 42 43 44 42
48 48 48 48 48 47 46 45 50 52 51 47 41 39 44 49 47 41 38 39 39 36 40 39 42 38 43 38 37 39 35 35 33 36 38 35 33 40 41 41 43 42 42 46 48 46 46 45 42 41 40 41 41 41
48 48 47 47 47 46 45 45 47 50 48 46 44 44 43 41 38 35 34 33 34 35 36 37 38 41 40 42 37 36 33 33 31 38 34 30 37 37 40 41 42 43 44 43 46 45 45 44 44 43 41 40 40 39
47 47 47 47 46 46 44 45 47 49 49 45 42 36 39 35 31 31 28 30 30 32 35 35 34 38 39 40 35 35 31 32 37 31 30 35 35 36 38 40 40 42 43 42 42 42 42 40 40 41 40 39 39 38
47 47 47 46 46 45 43 43 49 47 43 37 33 31 33 31 33 33 34 33 36 35 36 37 34 37 38 35 35 30 32 34 27 24 28 36 36 38 37 38 40 40 41 41 40 40 39 39 39 38 39 39 38 37
47 47 45 45 46 45 42 43 45 42 38 33 35 31 32 30 27 26 29 33 35 39 36 34 34 37 33 32 34 30 27 25 29 28 34 34 33 34 35 38 39 39 39 39 39 39 38 38 38 36 36 36 36 35
46 44 42 46 46 44 41 41 41 39 33 32 32 29 29 29 28 29 31 33 37 40 37 36 30 30 28 32 28 26 27 25 31 33 35 33 36 37 37 39 39 39 40 39 39 38 37 37 36 36 34 34 33 33
44 38 44 46 46 44 40 35 36 32 32 32 30 33 29 29 30 32 36 37 42 38 32 33 31 28 31 27 27 29 27 33 32 32 33 37 36 36 37 37 36 37 37 37 36 37 35 34 33 33 32 29 31 31
37 39 44 45 44 40 36 33 32 32 30 30 30 30 34 34 33 35 35 38 38 34 33 32 32 27 27 25 26 31 30 26 27 32 34 35 36 37 37 37 36 35 35 34 32 29 28 29 31 30 27 26 26 27
40 42 44 44 41 35 32 32 32 29 29 31 32 32 33 33 34 35 36 35 35 35 33 33 30 28 29 31 31 27 28 31 32 34 35 36 38 37 34 31 30 30 29 29 30 31 30 30 31 30 29 29 28 28
44 43 43 42 40 33 31 31 33 31 28 31 32 31 31 32 33 33 33 33 34 34 33 32 32 33 33 33 31 32 32 35 35 33 32 32 33 31 31 32 31 28 28 27 27 28 27 27 28 28 28 28 28 26
38 39 41 39 35 33 31 29 30 30 30 29 31 31 30 33 32 32 32 34 33 32 32 32 31 30 31 33 34 36 34 38 39 39 35 30 29 29 26 27 28 30 30 29 29 29 28 27 26 28 26 26 26 26
34 41 35 35 32 31 30 31 29 31 29 29 29 31 30 29 30 31 33 32 31 30 32 32 30 31 30 28 29 31 31 32 32 33 34 32 28 27 26 27 28 25 26 27 27 25 24 24 25 25 24 23 24 24
37 34 28 26 26 26 25 31 27 27 25 26 28 26 25 27 29 32 28 29 28 28 29 28 26 28 27 27 27 26 28 29 27 27 26 25 25 25 24 24 25 24 22 21 24 23 22 26 25 22 22 21 21 20
35 23 20 18 19 19 27 24 27 26 26 24 23 20 21 25 28 28 24 24 26 27 28 26 27 26 27 25 24 23 24 26 25 24 26 26 23 22 23 23 24 23 24 22 23 22 22 22 22 19 19 19 18 17
18 15 15 9 15 18 18 21 22 22 20 22 21 21 22 24 24 23 22 22 22 22 23 26 27 26 22 21 22 22 23 26 25 23 24 25 22 21 20 20 20 21 23 21 19 19 17 18 18 18 18 18 16 14
9 15 12 11 15 14 17 18 20 20 21 19 19 21 22 24 22 18 18 17 18 18 18 21 24 23 22 23 22 22 21 23 25 22 21 24 24 22 19 18 18 19 21 22 19 17 17 17 17 15 15 15 18 13
8 11 21 25 19 18 17 21 23 21 20 19 20 21 22 18 18 16 17 15 16 16 17 17 20 22 21 19 19 19 19 19 21 20 20 20 20 22 21 20 18 19 20 21 20 19 17 16 16 15 14 13 13 12
17 17 11 13 13 12 9 11 12 15 17 21 22 19 18 16 15 12 12 14 14 15 15 16 17 18 18 18 19 18 17 18 18 19 20 19 18 17 19 20 20 23 19 19 19 18 18 17 16 15 13 13 12 11
13 18 18 6 7 9 8 10 12 16 17 17 18 16 13 11 9 10 12 12 13 16 16 15 14 16 16 16 16 17 17 18 17 15 13 13 14 15 15 17 17 18 20 21 22 17 13 15 15 14 12 12 11 9
18 14 12 15 13 11 9 10 9 12 14 13 15 12 11 9 8 11 11 11 12 12 11 13 12 14 14 15 14 14 14 15 16 17 14 13 14 13 14 14 14 15 16 17 17 19 19 13 13 10 10 10 10 9
15 10 7 9 10 6 7 13 13 13 7 5 4 8 7 6 9 9 7 7 8 9 11 10 9 11 13 13 13 14 14 15 12 12 14 15 13 13 13 13 13 13 13 13 13 12 10 9 8 7 7 4 3 6
19 17 15 12 7 8 13 12 5 3 4 5 3 1 4 7 4 5 7 6 7 9 12 10 11 12 12 12 13 13 18 13 13 15 14 14 14 14 14 13 12 13 13 12 11 10 7 6 7 7 7 4 3 2
11 11 9 6 3 2 7 5 5 -1 1 -0 2 4 3 8 4 5 8 8 6 8 10 11 12 13 14 14 15 17 17 15 17 22 22 21 20 17 14 13 13 13 12 11 10 9 6 4 4 4 3 1 -0 0

GFSWCAN_sfc_temp_015.txt.gz
Temp
51 51 51 52 52 52 52 51 52 52 51 52 52 52 55 55 55 52 50 51 54 53 55 53 53 50 43 44 44 45 44 49 48 42 43 44 45 49 49 51 45 43 39 38 42 38 36 58 55 52 55 58 60 61
51 51 51 51 51 52 52 51 51 51 51 51 52 53 55 55 55 54 48 52 57 51 51 54 55 54 52 49 45 46 49 47 49 43 47 46 42 48 51 43 52 46 54 51 53 50 53 57 55 58 61 58 59 58
50 51 51 51 51 51 52 51 51 51 51 52 52 53 55 56 55 54 50 50 51 48 51 52 52 55 57 54 53 45 46 52 49 51 47 48 44 50 46 49 51 52 53 54 52 52 52 55 55 58 61 59 59 58
49 50 50 51 51 51 51 51 51 50 51 52 53 53 55 55 55 53 49 51 54 55 49 50 57 53 57 57 54 55 51 54 56 54 46 46 48 50 49 51 52 53 51 52 50 49 50 53 55 56 56 56 55 56
49 50 50 50 50 50 50 51 50 50 50 51 52 53 55 55 55 54 52 51 56 52 49 48 53 54 56 57 55 56 57 57 56 50 50 48 48 48 48 50 50 53 54 51 52 56 57 55 56 56 54 52 53 51
49 49 50 50 50 50 50 50 50 49 49 50 52 53 54 54 54 51 46 50 54 54 49 43 52 52 54 57 56 55 55 55 56 55 51 50 51 51 46 47 57 57 58 57 57 59 57 57 55 57 54 53 54 53
50 49 49 50 50 50 50 50 50 49 49 50 51 53 54 53 53 47 46 49 53 54 47 40 43 51 53 54 54 55 56 52 54 51 51 51 50 51 50 47 57 56 56 54 56 55 51 53 50 54 52 51 51 50
49 49 49 49 49 49 50 50 49 49 48 50 51 53 53 52 50 48 49 51 51 47 47 38 38 43 51 49 48 52 52 53 50 49 49 50 48 49 44 53 55 55 54 53 53 52 55 55 52 50 49 47 45 46
49 49 49 49 49 49 49 49 49 48 48 49 53 52 50 48 45 48 50 50 50 47 38 38 36 36 49 44 47 49 50 46 48 47 48 48 49 41 50 54 51 52 50 49 46 47 47 45 42 41 42 45 46 46
49 48 48 48 48 49 49 48 48 47 48 52 51 45 41 45 50 50 46 44 42 41 41 40 46 38 44 42 39 42 43 40 35 41 45 41 43 52 52 54 55 52 50 44 38 34 34 34 37 42 47 49 49 46
48 48 48 48 48 48 48 48 46 47 51 46 42 41 45 50 48 43 38 40 41 36 42 43 46 39 45 39 38 40 36 36 35 39 40 40 38 45 48 49 52 50 47 49 52 48 47 45 46 46 45 46 45 45
48 48 48 48 48 48 48 46 45 42 47 45 44 46 44 42 41 36 37 36 35 37 38 40 42 47 42 43 38 37 35 36 33 41 37 33 42 41 45 47 48 49 50 50 50 50 50 49 48 46 44 43 44 44
47 47 47 47 47 47 47 45 44 45 48 45 42 37 41 37 32 32 30 31 32 36 36 37 36 41 42 42 36 38 33 34 39 33 33 38 37 39 43 45 46 49 49 49 47 46 45 44 44 44 43 44 43 42
47 47 47 47 47 47 46 44 43 45 43 37 35 32 34 32 35 37 38 36 40 37 36 39 37 39 42 38 39 32 36 37 30 28 31 41 39 42 43 44 43 44 46 45 43 43 41 41 41 43 43 43 42 40
47 47 46 46 46 47 45 42 43 42 38 33 36 33 32 34 31 32 34 35 37 40 39 37 38 40 36 33 37 31 28 28 32 33 38 37 38 39 41 44 45 44 44 43 43 42 41 41 41 39 40 40 39 38
47 46 45 45 46 46 43 39 40 39 33 33 33 31 32 32 30 30 33 34 40 41 41 41 34 32 30 34 30 30 29 29 35 36 38 38 39 41 42 42 43 43 43 43 43 42 41 40 40 38 38 37 36 36
45 42 45 46 46 45 41 34 35 32 32 32 31 38 35 35 34 35 38 38 44 39 35 37 32 32 34 30 31 35 32 36 35 35 39 39 38 40 42 40 40 41 42 42 40 40 40 38 38 37 34 32 34 34
42 44 45 45 44 40 37 33 32 32 30 32 32 33 37 37 36 38 39 42 41 39 38 34 35 29 30 28 31 35 34 31 34 37 38 38 39 40 39 39 38 38 38 37 34 32 32 33 35 34 29 29 28 30
44 44 44 44 42 36 32 33 32 30 30 32 33 35 35 35 38 38 38 37 38 39 35 36 33 32 34 37 35 32 32 34 36 38 40 42 42 39 36 34 34 33 32 33 36 35 35 36 35 33 32 32 31 31
45 43 44 43 41 34 31 32 34 32 30 31 34 32 33 33 34 37 35 35 36 35 34 33 36 36 36 35 36 36 37 39 37 35 34 37 37 34 34 34 34 32 32 31 31 32 31 30 31 32 32 32 30 29
42 42 42 41 36 34 31 30 31 31 32 31 32 33 32 34 33 33 32 34 33 32 31 34 33 32 34 36 38 39 39 42 41 40 35 31 33 33 32 31 32 33 33 33 32 32 32 30 30 31 29 29 29 28
39 41 38 38 33 33 31 32 29 32 31 30 31 32 31 31 32 32 33 32 31 30 32 32 31 32 32 32 33 35 36 37 36 35 34 34 30 30 30 31 31 30 31 32 32 29 28 28 29 28 27 26 27 26
40 38 34 32 29 30 27 32 28 29 27 28 29 27 27 28 30 33 29 29 28 29 32 31 30 31 29 30 31 30 34 34 32 31 30 29 29 29 28 29 30 27 25 27 29 27 25 28 28 26 26 25 24 23
38 27 23 23 24 22 30 26 28 27 27 26 25 23 24 26 29 28 25 26 26 30 29 29 30 28 29 28 27 27 28 30 28 29 30 29 26 26 27 27 27 28 27 27 27 26 25 25 25 23 23 22 21 21
23 19 21 16 23 22 21 24 24 24 22 23 23 23 23 25 26 24 22 22 23 24 27 30 30 31 26 24 25 25 27 31 28 25 27 28 25 24 23 23 24 25 27 23 22 22 21 21 22 21 21 21 19 17
14 19 18 19 19 20 20 21 22 22 23 21 21 24 25 26 22 18 18 17 18 18 18 22 27 26 25 27 25 25 23 28 29 24 24 28 28 26 23 22 20 20 25 25 22 20 20 20 19 18 18 20 20 17
15 18 24 28 24 23 22 25 26 24 21 20 22 23 24 20 17 16 18 15 16 16 18 19 22 26 22 21 21 22 22 22 24 22 23 23 24 25 26 23 21 21 24 24 23 22 20 19 19 18 17 17 16 16
23 22 15 19 20 19 16 18 19 18 21 22 24 19 19 15 15 13 14 16 15 17 17 18 19 21 21 20 21 21 20 21 21 22 22 21 21 22 21 22 23 25 23 23 22 22 21 20 19 18 16 16 15 15
21 23 23 9 14 18 16 17 18 19 18 19 20 18 14 12 11 11 13 14 16 19 18 17 17 19 19 20 20 21 22 23 21 18 17 16 17 16 21 22 22 23 22 22 24 20 17 18 18 17 14 15 14 13
20 22 18 15 10 15 16 15 17 18 18 16 18 15 13 11 11 12 13 13 14 13 14 15 17 19 18 18 17 17 18 19 20 21 18 17 17 17 18 18 19 19 21 22 21 20 22 17 17 14 13 13 13 12
20 19 16 16 14 14 14 17 17 17 14 13 13 15 12 11 11 11 10 10 12 14 16 15 15 17 18 18 18 18 17 17 15 16 18 18 17 17 16 16 17 17 18 17 17 16 14 13 12 10 10 7 5 8
21 18 17 13 12 14 15 15 12 12 13 15 11 11 10 13 11 10 9 10 13 14 17 16 16 15 16 17 18 18 21 17 17 18 17 17 17 16 16 15 15 16 16 15 14 13 9 9 10 9 9 5 4 4
16 16 12 11 10 11 13 13 12 11 11 10 9 9 9 11 10 8 12 11 10 11 14 14 15 17 16 17 18 19 19 17 18 23 23 22 21 18 16 16 16 16 15 14 13 12 9 6 6 5 5 2 1 2

GFSWCAN_sfc_temp_018.txt.gz
Temp
51 51 51 52 52 52 52 53 52 52 52 52 52 52 52 53 55 53 50 51 49 45 49 51 53 47 43 43 40 42 44 46 44 40 40 40 41 43 40 42 40 39 36 37 37 34 32 52 50 45 48 50 52 52
51 51 51 51 51 51 52 52 52 52 52 52 52 52 52 53 55 54 48 51 52 47 48 53 54 53 51 47 44 43 44 47 48 43 42 42 39 43 43 37 47 40 45 42 41 41 50 51 50 51 55 51 50 49
50 51 50 51 51 51 52 52 52 51 52 52 52 53 53 54 55 54 49 49 49 46 47 48 48 53 54 51 50 44 44 47 48 47 44 43 40 43 38 40 40 44 47 45 47 45 46 49 50 50 53 51 51 51
49 50 50 51 51 51 51 51 51 51 52 52 52 52 52 53 55 54 49 50 50 49 44 46 55 51 55 53 51 50 48 50 49 48 44 43 43 47 44 44 44 45 46 45 43 44 46 49 49 50 50 51 50 50
49 50 50 51 50 51 51 51 51 50 51 51 51 51 51 53 55 54 52 51 52 48 44 46 51 52 54 54 50 49 49 47 49 44 45 43 45 44 44 44 43 48 48 45 45 51 50 47 50 51 49 48 48 48
49 49 50 50 50 50 50 50 50 50 51 50 50 50 52 52 54 51 46 51 52 51 46 41 50 49 51 54 52 50 52 51 49 48 45 46 48 45 38 39 51 52 52 52 49 51 51 51 50 51 48 47 47 45
49 49 50 50 50 50 50 50 50 50 50 50 50 49 50 53 53 47 46 49 53 53 46 39 41 48 50 51 51 50 51 48 47 45 44 44 44 43 43 41 50 50 49 49 51 51 46 47 46 48 48 47 47 45
49 49 49 49 49 50 50 50 50 50 50 50 49 50 50 53 51 48 49 51 52 47 47 37 38 42 49 46 43 48 46 46 45 44 43 43 43 43 39 46 47 48 48 46 45 47 48 48 46 43 42 42 40 40
49 49 49 49 49 49 49 49 50 49 48 48 48 49 50 48 45 46 50 50 49 47 39 38 35 35 48 43 44 45 46 43 44 43 42 42 41 35 44 46 45 46 44 41 40 41 43 41 38 38 38 39 40 39
49 48 49 49 49 49 49 49 49 48 47 47 46 45 41 45 50 50 46 43 41 41 41 39 43 37 42 42 39 40 39 38 34 39 40 36 35 45 46 47 47 45 42 41 36 34 35 33 35 37 40 42 41 39
48 48 48 48 48 48 48 49 48 46 47 46 43 40 45 50 46 43 38 37 39 35 39 40 41 38 43 38 37 39 35 34 33 34 36 34 36 40 41 43 45 42 42 42 42 39 40 40 40 41 39 39 39 38
48 48 48 48 48 48 48 49 48 41 35 39 42 45 44 41 38 35 35 34 35 33 37 39 39 42 40 42 37 37 33 33 32 35 34 31 34 36 39 40 41 42 43 43 44 43 42 42 42 40 38 37 37 37
48 48 48 48 48 48 48 48 47 44 43 44 41 36 39 35 32 30 29 31 33 35 35 35 35 37 38 37 35 34 29 32 34 32 31 31 31 35 38 40 40 43 47 46 44 42 41 40 39 39 37 37 36 35
47 47 47 47 47 47 48 48 45 40 37 36 32 32 34 31 32 32 32 33 35 35 36 37 35 35 37 33 34 25 30 31 23 21 25 29 32 36 37 38 40 40 42 41 39 39 38 38 37 37 37 36 35 33
47 47 47 46 46 47 47 46 42 39 35 32 33 32 32 32 31 32 33 34 36 39 38 35 34 36 31 28 30 30 26 18 27 26 29 29 30 34 36 38 38 39 39 39 40 37 37 36 35 33 33 33 32 32
47 47 44 46 46 46 46 40 38 39 32 32 32 31 33 32 29 31 33 34 38 40 36 35 29 25 24 27 22 20 22 22 27 29 28 29 33 35 36 37 38 39 41 39 37 36 35 34 32 31 30 30 30 30
46 40 46 46 46 45 43 35 34 32 32 32 31 35 33 30 30 32 36 37 43 40 32 31 25 23 31 22 21 27 25 28 27 26 27 28 32 35 37 35 35 37 38 36 35 34 32 32 31 30 27 27 27 27
40 43 46 45 44 42 37 33 32 32 30 32 31 32 33 34 33 35 36 40 38 33 33 32 32 27 23 21 22 28 28 22 26 28 28 33 33 34 35 33 34 35 32 30 28 27 27 28 28 26 24 23 23 24
43 43 45 45 42 36 32 33 32 29 30 32 32 33 34 34 36 36 37 38 35 35 35 33 30 24 25 26 26 25 27 25 30 30 32 34 36 33 32 33 32 30 29 28 30 29 28 29 28 27 26 26 25 25
46 45 44 44 42 33 30 31 33 31 29 30 32 32 32 32 33 35 35 34 34 33 32 28 29 29 29 29 29 31 30 35 34 30 28 30 34 34 32 32 30 28 28 27 28 29 26 26 27 26 26 26 25 23
41 41 42 40 36 34 31 29 30 30 30 30 32 32 31 33 32 32 32 34 33 32 29 30 29 30 31 32 34 35 35 38 35 36 31 28 31 31 28 28 28 30 28 28 28 28 26 23 23 23 21 24 24 24
37 42 35 36 28 28 29 31 28 30 30 30 30 32 31 30 31 31 32 31 29 29 31 31 30 30 30 29 30 32 34 35 34 34 34 33 28 27 27 26 28 26 26 25 24 23 22 22 23 23 23 21 23 20
39 36 30 26 21 22 24 31 27 28 25 27 29 27 26 28 29 32 27 28 27 28 29 28 28 28 28 29 30 30 33 33 30 29 29 27 27 27 26 26 26 25 23 22 24 23 21 26 26 21 22 19 18 17
38 23 18 18 18 13 26 24 28 26 26 25 24 23 22 24 28 27 23 23 25 28 27 27 27 27 28 26 25 26 28 30 28 28 29 27 24 23 25 24 24 22 23 23 22 20 20 20 23 18 16 15 14 13
17 15 15 7 15 14 13 19 23 23 21 22 22 22 22 24 24 22 20 19 21 20 23 27 27 27 24 23 23 24 27 29 27 24 25 26 23 22 20 21 21 21 23 21 19 18 16 16 15 15 14 13 11 9
10 11 11 11 11 12 14 13 17 21 22 21 21 24 24 24 20 15 15 14 16 15 16 17 22 24 23 25 23 22 22 25 26 23 22 24 23 21 18 17 16 16 18 20 18 16 15 14 14 12 12 15 21 9
8 9 21 26 20 20 16 21 22 21 18 18 20 22 22 18 14 14 16 14 14 15 17 18 22 22 20 19 21 21 22 23 22 20 21 21 21 21 20 20 16 15 19 18 17 17 15 14 13 12 11 8 6 6
19 18 10 12 14 14 9 10 10 11 16 20 22 16 15 12 11 11 12 15 15 16 18 19 20 21 20 20 20 20 20 20 20 21 21 20 20 19 19 21 22 26 19 17 16 15 15 14 12 11 10 7 5 6
15 20 17 4 7 9 7 8 10 14 17 15 15 14 12 11 10 10 12 13 16 18 17 17 17 19 19 19 20 20 21 22 20 17 15 13 12 14 16 19 18 18 17 20 25 18 13 12 12 10 8 8 5 3
13 16 11 4 4 7 7 9 9 12 14 14 15 12 12 11 11 13 12 12 13 13 15 16 18 19 18 17 16 16 17 18 19 19 16 14 12 14 15 16 17 17 16 16 17 19 22 13 13 7 6 5 5 4
17 12 8 9 5 5 7 11 11 14 8 5 8 9 8 8 11 11 10 10 12 15 16 15 16 18 18 18 18 17 15 15 15 17 17 16 16 15 14 14 14 14 14 12 11 10 7 4 2 1 1 -2 -2 1
18 9 6 5 3 6 7 5 4 3 3 3 2 2 5 10 9 8 9 9 14 14 18 17 15 14 16 16 17 19 20 15 16 17 16 15 14 13 13 13 11 12 12 10 8 6 2 1 1 1 2 -3 -4 -3
10 7 4 2 0 1 5 3 3 0 1 -1 -0 2 0 4 3 3 8 8 7 9 12 13 15 15 15 16 16 17 17 16 19 24 23 22 20 17 14 13 13 12 11 10 8 6 3 -1 -1 -0 -2 -5 -7 -5

GFSWCAN_sfc_temp_021.txt.gz
Temp
51 51 51 52 51 52 52 52 53 53 53 52 53 53 52 52 52 52 49 52 49 45 48 50 49 44 43 43 39 42 42 43 43 39 39 40 39 38 37 43 38 38 37 36 37 34 30 48 47 42 46 46 45 44
51 50 51 51 51 51 51 52 52 52 52 52 52 53 53 52 53 53 48 51 52 47 47 51 51 52 51 50 45 42 43 45 46 42 39 42 39 39 37 36 41 39 43 39 40 42 49 47 47 49 50 48 44 44
50 51 50 51 51 51 51 52 52 52 52 52 52 53 53 52 53 53 49 50 49 46 46 47 46 49 52 50 51 44 44 47 46 45 44 43 38 40 36 38 38 42 45 42 43 45 43 46 47 49 49 47 47 47
50 50 50 50 51 51 51 51 51 52 52 52 52 52 52 52 52 53 49 50 50 48 42 44 52 47 52 51 50 50 48 49 48 46 44 42 39 43 40 42 41 42 45 43 41 41 43 45 46 47 46 47 46 46
50 50 50 50 50 51 51 51 51 51 51 51 51 51 51 51 52 53 51 51 52 48 43 43 48 49 51 50 48 49 49 47 46 45 44 43 45 42 43 44 41 44 44 42 42 48 47 45 47 48 48 46 47 46
50 50 51 50 50 50 50 50 50 50 50 51 51 51 51 50 50 51 46 50 52 51 45 39 49 46 48 49 47 47 47 47 47 46 45 45 47 46 37 37 47 46 49 52 50 50 48 48 47 47 45 44 45 45
49 49 50 50 50 50 50 50 50 50 50 50 50 50 50 50 49 47 46 48 53 52 45 38 40 47 48 49 47 47 49 46 46 44 44 42 42 44 41 38 48 47 47 47 49 50 44 45 43 46 45 45 45 43
49 49 49 49 49 49 50 50 49 50 50 50 50 49 50 50 51 48 49 51 53 48 46 35 37 41 49 44 42 45 44 45 44 43 43 42 41 42 39 45 44 44 44 44 44 45 47 45 44 42 43 42 40 39
49 49 49 49 49 49 49 49 49 50 50 49 49 48 47 48 46 46 50 50 49 47 39 38 35 34 46 43 43 43 42 39 41 39 40 40 39 36 42 44 43 43 43 40 39 41 42 41 38 38 38 38 38 37
49 49 49 49 49 49 49 49 49 49 48 47 44 44 41 45 50 50 47 44 41 41 42 39 42 38 42 41 38 38 38 36 34 38 38 35 35 43 45 45 44 42 40 41 37 32 35 34 36 36 38 39 39 38
49 49 48 48 48 48 48 49 49 48 44 42 41 40 45 50 46 44 38 37 38 35 39 41 41 38 42 38 37 36 34 34 33 36 37 34 34 39 39 41 41 40 41 41 40 39 41 41 39 38 36 37 38 37
48 48 48 48 48 48 48 48 48 44 37 37 36 40 44 41 37 35 36 34 35 34 37 39 39 42 39 41 38 36 33 33 31 34 33 31 35 35 37 36 37 38 40 39 40 39 39 39 39 39 37 37 35 34
48 48 48 48 48 48 48 48 48 46 42 40 37 35 35 35 32 32 30 32 32 35 36 36 35 38 38 38 34 32 27 26 33 27 29 32 31 34 36 37 37 39 40 40 41 41 40 37 38 38 35 35 34 34
48 48 48 48 47 47 47 48 47 42 34 33 32 30 32 29 30 32 35 31 33 34 35 37 35 36 38 34 34 27 30 30 22 22 24 29 31 34 35 36 38 37 39 41 40 40 39 37 35 36 36 35 35 33
48 48 48 46 47 47 47 46 44 38 33 31 32 31 32 31 30 32 31 35 34 39 39 35 33 34 27 32 29 28 23 19 26 26 28 24 27 31 33 35 36 37 39 39 40 38 37 36 34 32 32 32 32 30
48 46 42 47 47 47 46 41 38 38 32 31 32 31 33 31 29 31 32 33 35 40 35 33 26 21 23 24 20 18 22 21 28 29 25 26 31 32 32 34 36 40 40 39 38 36 34 33 31 29 28 28 27 28
47 35 46 46 46 45 44 36 34 32 32 32 30 33 32 23 25 30 35 36 43 39 32 27 23 24 25 17 17 22 23 28 29 23 23 25 30 31 34 34 34 37 38 37 35 33 30 30 29 28 25 24 26 26
35 39 44 46 44 42 37 33 32 32 29 30 30 31 34 33 29 33 36 39 36 31 31 28 29 20 20 19 19 24 23 19 21 25 28 30 30 31 34 32 33 35 34 32 29 28 27 26 26 24 23 23 22 23
41 42 45 45 42 36 31 32 32 28 29 31 30 32 33 34 35 35 36 36 34 34 34 29 23 20 24 25 23 19 19 22 27 28 28 31 33 32 31 31 32 31 30 29 29 28 26 26 26 26 25 26 24 24
46 45 44 44 42 33 22 26 33 29 27 30 32 31 31 31 33 34 34 34 33 32 30 24 27 28 27 27 25 25 26 31 31 29 27 29 31 32 33 33 31 29 28 27 27 29 26 26 27 26 25 25 24 23
39 38 41 36 30 33 21 23 25 29 29 28 31 31 31 32 32 32 32 33 33 32 24 28 28 28 28 28 31 33 35 35 33 32 30 28 30 31 30 29 30 30 27 26 26 27 26 24 23 24 23 24 24 24
33 41 31 31 20 20 21 27 24 29 28 29 29 30 30 30 31 31 32 30 28 28 29 29 28 28 28 28 29 32 33 34 34 34 34 33 28 29 29 29 29 24 23 22 23 22 21 22 23 22 22 21 22 20
36 32 23 18 17 15 18 23 20 24 23 25 28 26 26 27 28 31 26 26 25 28 28 28 27 28 28 29 30 30 33 32 30 30 30 27 27 29 28 26 26 23 21 19 23 22 21 27 25 20 21 18 18 17
36 19 16 13 11 10 20 13 23 21 23 23 23 22 23 24 27 25 20 20 21 25 26 26 27 26 27 26 25 25 28 30 28 28 29 28 24 22 24 23 23 22 23 22 22 21 21 21 23 18 16 14 12 12
16 13 10 3 6 11 7 10 10 17 17 21 20 21 22 24 23 20 16 15 17 17 18 23 26 25 23 22 23 24 27 30 27 23 24 26 23 22 21 21 21 22 25 21 20 19 16 16 16 15 13 13 11 8
8 8 10 4 4 9 9 5 7 11 18 19 21 23 24 23 16 12 13 12 13 14 14 15 17 22 21 23 22 22 22 27 28 23 22 25 25 23 20 20 19 19 21 22 19 17 16 16 15 12 12 17 21 8
6 6 18 25 18 17 13 17 17 13 10 14 19 20 21 16 12 13 14 13 13 15 16 17 20 21 19 19 20 21 22 22 21 20 22 21 22 23 23 21 18 17 20 20 20 19 17 15 14 12 9 7 5 6
16 16 9 9 11 9 6 5 4 3 10 18 19 13 13 11 11 11 12 14 14 15 18 19 20 21 20 19 20 20 20 21 21 22 22 21 20 21 21 21 22 25 19 18 18 18 17 15 13 10 9 7 3 3
12 16 14 2 3 4 3 4 5 11 15 11 11 12 11 11 10 10 12 13 15 18 17 17 18 20 20 20 20 21 22 23 23 18 16 15 16 16 16 19 19 20 21 22 24 17 12 12 12 11 8 8 4 0
10 11 7 -1 2 5 4 7 6 10 11 10 13 13 12 11 11 13 12 12 13 14 15 18 19 19 18 18 17 16 17 18 21 21 18 15 14 15 17 18 18 18 20 21 21 21 24 14 14 6 6 5 4 3
13 6 3 3 1 0 2 7 7 12 3 -1 -0 5 9 8 11 12 10 10 12 16 17 17 17 19 19 18 18 17 15 17 18 19 19 17 16 16 16 17 17 16 16 14 13 11 9 4 3 1 1 -3 -2 -0
13 4 4 2 1 3 4 0 -2 -3 -3 -3 -3 -4 8 11 8 8 9 10 15 14 18 17 15 14 17 18 19 20 21 17 18 18 17 16 16 16 16 15 15 14 13 11 9 8 5 3 2 1 1 -4 -5 -4
5 3 -4 -4 -2 -1 2 0 -1 -3 -4 -7 -4 -1 -4 5 8 7 10 11 10 11 13 14 15 16 16 17 17 18 18 17 20 24 23 22 21 18 15 14 14 13 11 9 7 6 3 -0 -2 -2 -4 -6 -8 -7

GFSWCAN_sfc_temp_024.txt.gz
Temp
51 51 52 52 51 51 52 52 52 52 53 52 53 52 53 52 52 50 49 50 50 45 47 51 50 44 43 43 39 42 42 43 43 39 39 40 38 38 36 43 35 38 37 35 34 29 27 46 48 41 45 43 42 41
51 51 51 51 51 51 52 51 51 52 52 52 52 52 53 53 52 52 48 51 52 47 47 51 52 53 52 50 45 43 42 44 46 42 41 39 39 35 35 32 38 35 41 37 39 37 45 44 44 46 47 45 42 40
50 50 50 51 51 51 51 52 51 51 52 52 52 52 53 53 52 51 49 50 49 46 47 47 46 51 52 51 52 43 44 47 46 48 44 42 40 42 37 36 36 39 43 40 41 42 42 45 46 47 47 44 43 44
50 51 51 50 51 51 51 51 51 51 51 52 52 52 52 52 51 51 49 50 50 47 42 44 51 47 52 51 50 50 48 48 48 46 44 42 41 42 41 40 38 41 43 42 41 40 42 44 44 44 43 44 43 43
50 50 50 50 51 51 51 51 50 51 51 51 51 51 52 51 51 50 51 51 52 47 43 44 48 48 50 49 48 49 49 47 46 44 44 42 44 42 40 39 38 42 43 42 40 47 47 45 45 46 45 43 43 43
50 51 50 50 50 51 51 50 50 50 50 51 51 51 51 51 50 47 46 50 52 52 45 40 48 48 46 47 47 47 47 46 46 45 44 44 46 44 36 36 47 48 48 49 48 47 46 46 45 45 44 44 44 43
50 50 50 50 50 50 50 50 50 50 50 50 51 51 51 50 47 45 45 49 53 52 45 38 39 47 49 46 45 46 47 45 45 44 43 43 44 45 40 37 47 45 46 45 47 49 45 45 43 45 44 44 44 42
50 50 50 50 50 50 50 49 49 49 50 50 50 50 50 50 49 46 50 52 53 48 46 35 37 41 48 44 42 46 44 45 44 42 42 41 42 41 38 44 44 43 43 43 43 44 45 43 42 41 42 42 39 37
49 49 49 49 49 49 49 49 49 50 50 50 49 49 46 46 45 47 50 51 50 47 39 38 34 33 46 43 43 43 43 40 42 40 39 39 38 36 43 44 42 42 43 39 38 40 42 40 38 38 38 37 37 35
49 49 49 49 49 49 48 49 49 49 49 47 45 43 39 46 50 50 47 44 41 42 42 39 42 38 42 41 38 39 39 37 34 39 40 35 35 42 44 44 44 42 40 40 37 32 34 34 35 35 37 38 38 36
49 48 48 48 48 48 48 48 49 48 45 39 35 37 40 49 47 44 38 38 39 35 40 41 40 37 41 38 38 38 34 34 33 35 37 32 34 37 38 39 41 40 41 39 40 40 40 40 38 36 35 35 36 39
48 48 48 48 48 48 48 48 48 43 40 39 37 37 38 40 38 36 36 35 35 35 38 39 39 39 40 41 38 36 32 32 32 34 34 31 36 35 36 35 35 37 38 38 40 39 39 39 39 37 36 35 38 37
48 48 48 48 48 48 48 48 48 47 43 39 35 32 33 35 33 33 31 32 33 35 36 36 35 38 38 39 35 34 32 32 33 29 29 32 31 33 34 35 35 37 37 37 37 39 38 37 38 38 37 37 36 34
48 48 48 48 48 48 47 48 47 43 36 32 32 29 30 31 33 33 34 32 34 32 36 38 35 36 38 34 33 24 31 30 23 23 27 27 31 34 35 35 36 34 36 37 37 38 39 38 37 38 37 37 34 32
48 48 48 46 47 47 47 47 44 40 34 31 31 28 31 32 31 31 31 33 34 38 38 35 34 36 32 32 30 28 25 22 26 28 28 24 27 29 32 34 34 35 37 38 39 38 37 36 34 31 32 32 31 30
48 46 40 47 46 47 46 41 39 38 32 31 31 30 33 31 30 31 32 33 35 39 34 35 30 31 30 27 20 20 23 22 29 27 25 24 30 30 31 33 34 38 39 39 38 37 36 35 32 28 28 28 28 28
46 34 45 45 46 45 44 36 35 32 31 31 29 32 32 31 30 32 35 37 40 38 33 26 29 27 23 16 18 22 24 26 23 22 22 25 29 31 32 33 34 36 37 36 36 34 31 30 30 29 25 24 25 25
34 38 44 46 44 39 38 34 31 31 27 28 28 26 33 34 32 32 35 37 37 32 32 30 30 24 21 20 20 25 25 24 20 24 25 28 28 30 33 32 34 35 34 33 31 29 28 27 26 24 22 22 22 23
40 43 46 45 41 37 31 32 31 20 23 30 30 31 33 33 36 34 34 36 35 34 34 30 24 21 25 24 20 21 15 21 26 27 28 29 31 31 30 31 32 32 31 30 30 28 26 27 26 26 25 26 23 23
46 44 44 43 41 33 21 21 30 24 19 25 31 31 31 32 33 34 34 34 33 33 31 25 27 28 28 27 25 24 24 27 30 27 27 29 28 29 30 32 32 30 28 27 27 28 25 25 25 25 24 25 24 23
38 37 40 34 27 32 23 24 18 26 25 21 27 30 31 32 32 32 32 33 33 29 24 27 28 28 28 26 30 30 31 34 32 31 32 29 29 30 28 30 32 32 29 26 25 28 27 24 23 25 23 24 23 23
32 40 30 28 19 16 18 24 20 24 23 21 25 29 28 29 30 31 32 29 27 25 28 27 26 26 26 27 29 31 32 32 32 34 34 33 29 29 29 30 30 27 25 23 24 22 20 21 23 23 23 22 22 21
36 31 21 16 16 14 17 18 14 13 16 18 23 25 25 25 28 30 25 24 24 25 27 27 24 26 27 28 30 31 32 32 30 30 31 29 28 29 29 28 28 24 22 19 22 21 20 27 26 21 22 20 19 18
35 19 16 13 10 9 17 9 18 14 13 17 17 21 23 24 26 24 19 19 20 21 20 20 27 25 27 26 25 25 27 30 29 29 30 29 25 24 26 25 24 23 23 23 23 22 21 22 24 19 18 16 14 13
17 13 10 4 4 9 3 7 5 10 7 11 14 19 22 24 22 17 15 14 15 16 16 17 22 25 23 22 23 23 27 29 28 24 26 27 24 23 22 22 23 23 25 22 21 20 18 18 18 16 15 14 12 8
8 7 9 4 3 9 7 4 4 5 10 9 15 19 22 21 16 12 13 11 12 14 13 13 14 17 21 23 23 23 23 28 29 25 24 27 28 27 22 21 19 19 21 24 22 19 17 17 16 14 14 18 21 8
7 6 16 24 17 16 12 15 15 9 3 7 12 14 16 13 14 13 14 14 12 14 15 16 16 19 20 20 21 21 22 23 24 22 22 23 24 25 25 23 21 20 23 23 22 20 18 17 16 15 12 9 6 6
16 15 9 8 10 8 5 4 2 2 6 13 16 7 9 10 10 10 12 14 14 14 15 19 20 20 20 19 20 21 20 21 21 22 23 21 22 22 22 23 23 26 21 19 20 20 19 17 15 13 12 9 4 2
11 14 13 2 2 2 2 4 5 10 14 9 5 11 8 11 7 8 12 12 14 16 17 17 18 20 20 20 20 21 22 24 24 21 19 17 17 17 21 22 21 22 22 22 25 19 15 15 14 13 10 9 5 -1
11 11 6 -3 3 5 3 6 4 8 9 9 11 9 10 7 7 11 11 11 11 13 16 18 19 19 19 19 18 18 18 21 23 23 20 18 16 17 19 19 19 20 21 21 21 22 26 19 16 8 6 4 3 2
13 6 2 1 1 -1 1 7 7 11 2 -3 -3 1 4 7 9 11 10 9 11 16 17 17 17 18 19 19 19 19 17 18 19 19 19 19 19 19 18 18 19 19 18 17 16 14 12 5 5 3 3 -0 -1 -0
12 2 3 1 1 2 3 -1 -5 -5 -5 -4 -4 -4 0 7 7 8 9 10 14 13 18 17 16 15 17 18 19 21 21 18 19 19 19 18 17 17 17 16 16 15 14 12 11 9 6 3 2 1 1 -5 -5 -5
4 1 -6 -5 -2 -1 1 -0 -2 -4 -5 -7 -4 -3 -4 4 8 6 10 11 10 11 13 14 15 16 16 17 18 18 18 18 22 25 24 23 22 19 15 14 14 14 12 10 8 7 4 1 -1 -1 -3 -6 -8 -7

GFSWCAN_sfc_temp_027.txt.gz
Temp
51 51 51 51 51 52 52 52 52 52 52 52 53 52 53 53 52 49 48 51 49 45 46 50 49 44 43 42 38 42 41 42 41 39 37 38 38 37 36 42 37 36 36 35 32 29 27 44 46 40 43 41 41 40
51 51 52 52 51 51 52 52 52 51 51 52 52 52 53 53 52 51 47 51 52 47 46 50 51 52 51 50 45 43 42 43 45 42 41 41 38 37 34 30 36 34 40 35 36 36 44 43 43 44 45 43 39 38
50 51 51 51 52 51 52 52 51 52 51 52 52 52 52 53 52 50 47 50 50 46 46 46 46 51 53 52 52 42 44 47 46 47 44 42 39 37 32 33 34 37 41 38 40 40 40 42 44 45 44 41 40 41
50 51 52 52 52 51 51 51 51 51 51 51 52 52 52 52 52 51 46 50 50 47 41 44 51 47 52 51 50 50 48 48 47 46 44 42 39 41 37 38 37 40 40 39 39 42 42 42 43 44 42 43 42 42
51 51 51 51 51 51 51 51 51 51 51 50 51 51 51 52 51 48 47 50 52 47 42 44 48 48 48 49 48 49 48 47 46 44 43 42 42 41 38 38 36 41 41 40 40 47 47 45 45 43 43 42 42 41
50 51 51 51 51 50 50 50 50 50 50 50 50 51 51 51 51 45 45 50 52 52 45 39 48 47 45 46 46 47 47 46 46 44 44 45 46 46 36 35 45 44 45 47 47 44 43 43 44 44 42 42 43 42
50 50 50 50 50 50 50 50 50 49 50 50 50 50 51 50 46 42 43 46 52 52 45 38 39 46 47 45 45 45 46 45 45 44 43 43 43 43 41 36 45 44 45 45 44 46 42 43 43 43 43 43 42 40
50 50 50 50 50 49 49 49 49 50 50 50 50 50 50 50 48 44 47 51 52 48 46 35 37 41 48 43 42 46 44 45 44 43 43 42 42 40 37 43 43 42 42 43 41 43 46 43 43 41 41 41 38 37
49 49 49 49 49 49 49 49 49 49 50 49 48 48 46 44 43 47 51 51 50 47 40 38 34 33 45 43 43 43 43 40 43 40 40 40 39 35 43 45 42 41 42 39 38 40 41 40 38 37 38 38 37 35
49 49 49 49 49 49 49 49 49 49 49 47 45 42 39 44 49 50 48 44 42 42 42 39 40 37 41 41 38 40 39 37 34 38 40 36 35 41 43 43 44 42 39 40 37 33 35 34 35 36 38 38 38 36
49 49 48 48 49 49 49 48 49 48 47 40 35 34 38 43 45 45 38 38 39 35 40 38 40 38 40 38 38 38 34 34 32 31 36 34 33 36 37 39 41 40 40 39 40 40 40 40 37 35 34 35 36 38
48 48 48 48 49 49 48 48 48 43 40 40 38 38 37 38 38 35 34 35 35 36 38 39 37 38 38 41 38 36 32 32 31 32 33 30 33 34 36 35 35 38 39 39 39 39 38 38 38 37 36 35 37 36
48 48 48 48 48 48 48 48 48 47 43 39 35 31 33 34 31 32 31 33 32 35 36 36 35 38 38 40 35 32 34 33 32 28 28 30 30 33 34 34 34 36 37 37 36 38 38 36 37 37 35 36 37 34
48 48 48 48 48 47 47 47 47 43 37 32 31 28 30 31 33 33 33 34 33 31 36 38 35 36 38 35 34 32 31 30 24 23 25 27 31 33 33 33 34 34 35 36 36 37 37 37 36 37 37 37 36 33
48 48 48 45 47 47 47 46 44 40 35 30 32 27 31 33 32 32 32 33 35 37 36 36 34 38 33 31 30 29 27 23 26 29 26 24 25 27 32 33 33 34 35 35 37 36 36 37 35 33 34 34 33 30
48 46 40 47 46 47 46 41 39 38 32 30 31 29 33 31 31 31 32 33 35 38 35 36 33 32 32 31 20 21 22 24 31 26 24 20 29 30 30 32 33 35 37 36 37 36 35 34 31 29 30 29 28 28
47 34 44 46 46 45 44 36 35 32 31 31 29 32 32 31 31 31 35 36 40 35 34 33 31 30 24 16 18 22 24 31 23 21 20 22 25 29 30 31 33 35 35 36 36 34 32 31 31 30 25 24 25 25
35 37 44 46 44 38 38 34 31 29 26 19 26 27 31 33 32 33 35 37 36 34 32 32 29 23 22 20 20 25 23 26 20 22 24 26 26 29 32 31 32 33 32 33 31 30 30 28 27 24 22 23 22 23
39 42 45 45 40 31 31 31 31 25 18 29 30 29 32 32 35 35 34 35 36 35 33 31 23 22 25 25 25 22 22 22 25 27 26 28 29 29 30 30 30 29 30 30 31 29 27 28 26 25 25 26 23 23
46 43 44 43 40 25 24 19 27 27 21 20 29 25 27 30 33 33 34 34 34 33 32 31 28 29 30 30 29 26 26 27 27 25 25 25 27 28 29 30 30 29 28 28 27 28 25 25 26 26 25 25 24 23
38 36 39 33 27 31 25 25 19 25 27 25 17 23 27 31 32 32 32 33 32 32 29 29 29 29 30 29 30 29 29 31 29 29 27 23 26 28 27 28 31 32 30 28 25 27 26 23 23 25 23 23 23 22
32 39 30 28 17 14 16 26 23 22 25 17 17 17 21 24 28 29 29 29 24 24 26 27 28 27 28 29 29 30 30 30 30 33 34 32 27 27 28 29 30 28 28 27 25 23 21 22 23 23 23 22 23 22
36 31 20 16 15 13 15 15 13 10 13 12 13 12 18 22 27 29 23 23 21 22 22 24 23 27 27 28 29 29 30 30 28 29 30 28 28 30 29 28 28 26 23 21 23 23 21 27 26 22 23 21 21 21
34 18 16 13 9 9 15 7 16 11 9 12 6 8 16 20 26 23 19 18 18 21 19 18 20 26 27 26 25 26 28 29 27 28 30 29 26 25 27 26 26 26 26 24 25 24 23 22 25 21 20 18 17 15
18 14 11 6 2 7 2 4 0 8 5 5 7 7 16 20 19 18 16 16 15 15 16 16 18 18 22 23 24 25 27 29 28 25 25 28 25 25 23 24 24 25 27 23 22 22 20 19 20 19 18 17 14 11
9 7 8 4 2 8 7 5 2 3 5 3 9 14 15 17 12 13 14 13 12 14 13 13 13 15 18 22 23 24 24 27 27 24 25 29 29 27 23 21 21 21 23 26 23 20 20 20 18 16 16 20 22 10
7 7 16 22 16 15 11 13 14 8 1 2 4 5 10 7 9 12 14 14 13 15 15 15 15 15 17 21 22 22 23 23 25 23 23 24 26 28 29 26 23 23 25 25 24 23 20 18 17 18 16 13 12 10
16 14 10 8 9 7 5 3 1 2 5 12 12 3 5 12 12 8 7 13 14 14 14 16 19 20 20 20 21 21 21 22 22 22 23 22 22 23 23 24 25 28 24 24 23 22 20 20 18 17 14 11 6 3
11 14 13 1 2 2 3 6 5 9 13 8 5 5 6 11 3 1 6 8 11 13 15 17 18 20 20 20 20 21 22 24 24 21 19 18 18 18 23 23 22 23 24 24 26 21 18 19 18 15 13 10 6 4
12 10 6 -4 3 5 3 5 3 5 8 8 10 7 7 4 3 4 5 4 4 9 13 17 19 19 18 19 19 19 19 21 23 24 22 20 17 19 21 21 21 22 23 23 23 24 27 20 18 13 10 8 7 6
11 5 1 1 1 -2 -1 5 6 11 1 -5 -3 0 2 0 5 6 5 7 9 13 17 17 17 17 19 19 19 19 18 19 20 20 20 20 20 20 20 20 22 23 22 20 18 17 14 11 9 7 6 4 5 3
10 1 3 1 0 1 1 -3 -6 -5 -6 -4 -4 -6 -3 2 4 3 7 8 12 13 17 16 15 15 17 18 19 21 22 19 19 20 19 18 18 18 19 19 19 18 17 15 14 12 10 8 7 6 4 0 -2 -3
0 -2 -7 -6 -4 -2 0 -2 -3 -6 -6 -7 -5 -5 -6 2 4 3 8 10 10 12 13 14 16 16 17 17 18 19 20 19 22 25 24 23 23 20 17 17 17 16 15 13 11 9 7 4 3 2 0 -3 -7 -6

GFSWCAN_sfc_temp_030.txt.gz
Temp
51 51 52 52 52 52 52 52 52 52 52 52 52 52 53 53 52 49 46 49 48 43 44 47 49 44 43 43 38 42 40 41 41 37 37 37 36 39 34 39 37 35 35 35 35 31 26 44 44 38 42 41 41 40
51 51 52 52 52 53 52 52 52 52 52 52 52 52 52 52 53 51 45 51 52 47 46 49 50 52 52 49 45 43 42 42 44 39 40 41 38 35 33 30 35 33 38 35 36 35 43 42 42 44 44 42 38 38
50 51 52 52 52 52 52 52 52 52 52 51 51 52 52 52 53 51 45 48 49 46 46 44 45 51 52 51 52 43 44 47 45 44 42 42 36 36 32 32 31 36 40 37 39 40 40 42 43 42 42 39 39 40
50 51 51 52 52 52 51 51 51 51 51 51 51 51 51 52 52 51 44 47 47 47 41 43 51 48 51 51 50 50 48 48 47 46 44 42 40 42 35 37 36 39 40 39 38 41 41 43 40 39 39 41 41 41
51 51 51 51 51 51 51 51 51 50 50 50 50 51 51 51 52 49 46 47 50 47 42 43 48 48 49 48 48 49 48 46 45 44 43 42 44 41 36 36 34 39 41 39 39 45 44 42 42 42 41 40 41 40
50 51 50 50 50 50 50 50 50 50 50 50 50 50 50 51 51 45 43 49 51 51 44 39 47 46 46 46 46 46 47 46 45 44 44 45 46 45 38 34 43 42 43 46 45 43 42 42 43 42 40 40 41 41
50 50 50 50 50 50 50 50 50 50 50 50 50 50 50 50 46 40 42 46 49 48 45 38 39 45 47 46 44 45 46 45 45 44 43 43 43 43 40 34 45 43 43 42 42 43 41 41 41 42 42 41 41 40
50 50 50 49 49 49 49 49 49 50 50 50 50 50 50 50 48 43 47 49 49 47 46 36 36 41 47 43 41 46 44 44 44 43 43 42 42 41 38 43 42 40 41 41 41 43 44 41 41 40 41 41 39 37
49 49 49 49 49 49 49 49 49 49 49 49 48 49 46 43 42 46 51 51 50 47 39 38 34 33 45 43 43 43 43 40 43 40 41 40 40 36 41 43 42 41 42 39 37 39 40 39 38 38 38 38 37 35
49 49 49 49 49 49 49 49 49 49 49 48 44 41 39 41 45 47 47 46 42 43 42 39 40 36 40 41 39 39 39 37 34 39 40 36 36 42 42 43 43 41 39 39 38 34 35 34 35 36 38 38 38 36
49 49 49 49 49 49 49 49 48 49 46 40 36 34 39 44 43 44 38 37 39 35 40 40 37 37 40 37 39 38 34 34 32 33 36 35 33 35 37 39 41 40 40 40 40 39 41 42 39 36 35 35 36 36
49 48 48 48 49 49 49 48 48 40 39 40 38 39 37 38 38 35 34 35 35 35 38 39 38 38 38 41 35 36 32 33 29 32 33 30 32 34 35 36 36 38 39 40 39 39 39 39 39 37 36 35 34 35
48 48 48 48 48 48 48 48 48 47 43 39 36 32 33 34 31 33 31 32 33 35 36 36 35 37 37 37 33 32 34 33 34 28 29 29 30 33 34 34 34 37 38 37 36 37 38 36 37 37 34 36 36 34
48 48 48 48 48 47 47 47 46 43 37 32 31 27 27 30 32 32 32 32 33 33 35 37 35 36 38 35 35 33 32 32 24 23 25 28 30 33 32 33 34 33 34 34 34 36 36 36 35 36 37 37 35 32
48 48 48 45 47 47 47 46 45 40 35 30 31 25 29 33 33 32 32 32 34 36 36 36 34 37 33 33 32 29 28 25 26 27 27 24 24 26 31 32 32 32 33 33 35 35 35 36 35 34 35 35 33 31
48 46 39 46 46 47 45 41 39 38 33 31 29 26 32 31 31 30 30 33 35 37 35 35 33 32 33 29 25 23 22 24 31 25 23 18 27 29 30 31 32 33 35 35 36 35 35 35 33 30 30 31 30 29
47 35 44 46 46 44 44 36 35 32 31 29 29 32 31 31 31 31 34 35 40 35 33 33 31 32 26 16 19 24 26 30 25 20 20 21 24 28 29 31 31 33 33 34 34 34 32 32 31 30 27 25 26 25
35 36 44 46 43 37 33 33 31 28 26 27 25 20 29 31 32 33 34 35 35 34 32 33 31 21 21 19 21 26 22 18 23 20 23 25 26 28 30 29 31 32 31 31 30 29 31 30 28 25 23 23 23 23
39 40 45 44 40 29 25 29 31 24 25 28 31 31 31 32 34 35 35 35 35 35 33 31 29 23 25 23 22 18 14 21 25 27 25 26 28 28 29 27 28 28 29 29 31 31 29 30 28 27 26 27 24 24
46 43 43 42 39 22 23 17 26 27 23 18 27 28 27 29 31 33 33 33 32 32 31 30 31 29 26 28 26 25 24 26 26 25 24 24 25 25 27 28 29 27 26 26 28 29 26 25 26 26 25 26 25 24
38 36 38 33 27 30 25 25 18 24 26 25 24 21 24 24 30 31 31 32 31 32 30 29 29 30 30 28 30 29 29 28 27 28 26 21 25 25 25 25 27 29 28 27 26 28 27 25 24 27 24 23 23 22
32 39 30 28 16 13 15 27 21 20 24 25 19 11 22 22 14 24 27 28 22 20 22 22 24 24 26 28 29 30 31 30 29 30 32 30 25 25 26 27 28 26 26 29 28 24 23 23 24 23 23 23 24 23
35 31 20 15 16 13 14 14 11 15 11 12 7 8 9 13 19 23 19 22 20 22 21 21 20 22 23 28 30 29 31 29 27 27 28 25 26 27 27 26 28 26 23 24 25 25 23 27 27 22 23 21 22 22
34 19 17 14 10 9 14 5 15 8 7 8 3 6 7 9 16 14 13 14 18 21 19 17 18 20 25 27 26 26 27 29 26 26 27 27 25 24 28 29 29 29 27 26 26 26 25 24 26 22 22 20 19 16
20 14 11 7 2 6 4 3 -1 7 4 1 4 4 8 11 11 10 9 10 15 16 16 16 16 17 17 22 25 25 27 28 26 25 23 27 25 25 23 26 26 26 29 25 24 24 23 22 22 21 20 19 17 14
10 8 8 7 2 8 8 4 1 3 2 0 3 6 4 10 6 7 11 10 9 13 14 13 12 13 15 19 20 23 24 26 27 24 23 27 28 27 23 22 21 22 25 28 25 22 21 21 20 20 19 21 23 13
7 8 15 21 15 14 10 12 13 7 -1 1 2 3 2 2 3 13 14 11 8 10 15 15 14 14 14 17 20 23 23 24 24 23 24 25 27 29 28 26 24 24 27 26 26 24 22 21 21 20 18 17 14 14
16 14 9 8 8 6 5 3 1 3 6 11 11 1 1 6 9 8 7 8 7 10 12 15 16 17 18 20 21 21 21 22 22 23 23 23 23 24 25 25 26 28 26 26 25 25 24 23 20 18 16 13 9 9
10 13 13 1 0 2 4 7 7 9 13 9 7 5 6 10 3 1 5 4 6 6 9 14 18 20 20 20 20 21 22 22 22 21 21 18 19 19 25 25 24 25 26 25 27 23 20 20 18 15 14 12 9 8
10 10 7 -3 3 6 4 4 2 2 7 7 9 7 7 5 3 2 2 -0 1 5 8 11 16 19 18 18 19 19 20 21 24 24 21 19 17 21 22 23 22 23 23 23 23 25 28 21 19 14 11 10 9 7
10 5 1 1 1 -3 -2 3 5 9 -1 -5 -4 0 2 0 4 3 1 -0 3 7 11 12 13 16 17 18 18 19 18 20 21 22 22 21 21 21 21 22 23 23 23 22 19 18 16 14 12 11 10 9 10 7
11 2 2 0 -1 -1 -1 -5 -7 -5 -7 -5 -4 -7 -4 -0 1 2 1 -2 4 10 16 15 14 14 17 18 18 20 22 20 21 21 20 20 20 20 21 21 21 21 19 18 16 15 14 13 12 10 8 6 4 3
-1 -5 -9 -7 -5 -4 -1 -3 -4 -7 -6 -7 -5 -5 -6 0 4 3 3 2 3 9 12 14 16 17 17 18 18 20 21 21 23 25 25 24 23 21 19 19 19 18 17 16 14 14 12 10 9 7 5 3 2 0

GFSWCAN_sfc_temp_033.txt.gz
Temp
51 52 52 52 53 53 53 53 53 52 52 52 52 52 52 53 52 49 45 48 46 41 44 46 48 44 43 43 38 41 40 40 40 37 35 37 34 38 35 36 35 36 35 35 35 32 28 42 44 39 43 43 43 43
51 51 52 53 52 52 53 52 52 52 52 52 52 52 52 52 52 51 43 49 50 46 44 49 50 51 51 50 45 43 42 42 44 40 37 40 35 37 33 29 35 32 37 37 37 36 43 43 44 44 42 41 40 40
51 51 52 52 52 52 52 52 52 51 51 51 51 51 52 52 52 51 44 46 47 46 45 44 44 49 52 52 53 43 43 46 44 46 43 40 37 40 34 33 31 36 39 37 40 43 42 44 43 41 41 39 39 39
50 51 52 51 51 51 51 51 51 51 51 51 51 51 51 51 52 51 43 46 44 45 40 42 50 47 51 51 50 50 48 48 47 46 40 41 39 39 35 36 35 38 39 39 38 42 42 42 41 40 40 40 40 39
50 51 51 51 51 51 50 50 50 50 50 51 51 51 51 51 51 48 45 46 47 45 42 43 47 47 49 49 49 49 48 46 44 43 42 41 43 39 39 37 33 38 40 39 39 45 44 43 42 42 41 40 40 40
50 51 50 50 50 50 50 50 50 50 50 50 50 50 50 50 51 44 41 48 49 49 44 39 47 46 46 47 46 46 47 46 45 44 44 44 44 42 38 36 43 41 43 45 45 42 42 42 43 43 41 41 41 41
50 50 50 50 50 50 50 50 50 50 50 50 50 50 50 50 44 39 41 45 48 46 44 38 39 45 47 46 45 45 46 45 45 44 43 43 43 44 40 35 44 43 43 43 43 43 41 41 41 42 42 41 41 40
49 50 50 50 50 50 50 50 49 49 49 50 50 50 49 50 48 42 46 49 48 45 46 36 37 40 47 43 41 46 44 44 44 43 43 42 42 41 37 42 41 40 40 40 41 41 43 41 40 39 41 41 38 37
49 49 50 50 49 49 49 49 49 49 49 49 49 49 46 43 40 45 47 48 49 47 39 38 32 32 45 43 43 42 43 40 43 40 41 40 40 35 42 42 42 40 41 40 38 39 41 39 38 38 39 39 37 36
49 49 49 49 49 49 49 49 49 49 48 48 44 41 40 41 46 45 47 44 42 43 42 39 37 35 39 41 39 39 39 38 34 38 40 36 37 43 43 43 43 42 41 39 37 34 35 35 36 37 39 40 39 36
49 49 49 49 49 49 49 48 48 48 45 37 36 34 40 44 42 43 38 38 39 36 40 39 36 35 39 36 38 38 35 34 33 34 35 34 33 36 37 38 40 40 40 40 41 40 41 42 39 37 36 36 36 36
48 48 48 49 49 49 48 48 48 38 39 39 38 40 38 39 38 35 34 35 35 35 37 38 38 37 37 38 34 35 32 34 30 32 33 30 33 35 35 36 36 38 39 40 39 39 40 40 40 38 36 35 35 34
48 48 48 48 48 48 48 48 47 46 42 40 36 33 34 34 31 32 30 33 29 33 35 36 35 39 36 37 33 32 34 32 34 31 29 29 31 34 34 34 34 36 39 37 36 37 38 37 38 37 34 35 36 35
48 48 48 48 48 47 47 47 46 44 37 32 30 22 23 29 32 31 31 30 32 33 35 37 35 36 38 35 33 35 32 33 27 25 23 26 29 32 33 33 34 34 35 34 34 36 36 36 35 36 36 37 35 32
48 48 48 46 47 47 46 45 45 40 35 30 30 20 24 32 32 32 32 32 32 35 36 35 34 37 33 32 33 31 29 27 27 26 27 24 24 24 31 32 32 31 31 32 34 34 34 35 34 33 35 36 34 31
48 47 39 46 47 46 45 41 39 38 33 31 30 23 29 30 30 29 24 31 32 36 35 35 33 32 33 26 29 29 23 24 30 27 23 17 27 29 30 31 31 32 32 33 34 35 34 34 33 31 31 31 31 30
47 35 44 46 46 44 43 37 35 32 31 29 29 32 31 28 28 29 34 34 39 35 33 33 31 33 26 17 19 24 25 29 25 21 19 20 23 29 29 30 31 32 32 32 33 33 31 31 32 31 26 26 27 27
35 37 44 46 42 37 32 33 32 29 27 27 26 19 30 29 28 32 34 36 35 33 33 32 31 25 20 19 21 26 22 18 26 23 23 25 25 27 29 30 30 30 30 30 29 31 30 30 30 27 24 24 23 23
39 39 44 44 39 28 19 23 30 24 25 28 30 31 31 31 34 33 34 35 35 34 32 31 29 28 26 22 21 23 21 23 25 27 25 25 27 28 28 26 27 27 27 27 30 32 31 31 28 27 27 28 25 24
45 44 43 42 38 22 20 17 29 26 23 19 27 26 28 28 28 30 33 32 33 32 31 30 30 28 27 25 26 28 26 27 26 25 25 25 24 22 24 26 27 26 25 25 26 29 27 26 28 28 27 27 25 24
38 36 38 34 27 28 25 25 16 24 26 25 26 23 22 24 22 22 30 31 31 31 29 26 25 26 26 27 30 30 29 27 26 27 28 21 25 23 22 22 24 27 27 26 26 29 29 27 25 29 26 25 24 24
32 39 30 29 18 14 20 26 20 19 20 21 20 13 20 21 21 19 27 23 21 16 21 21 22 22 22 23 25 27 29 29 29 29 32 30 24 22 23 25 26 24 25 26 28 26 25 25 25 25 24 24 25 25
36 32 23 19 17 13 12 14 12 17 13 11 3 6 6 7 13 16 13 12 12 17 19 21 20 20 20 23 26 29 30 29 28 29 28 26 25 26 26 24 26 26 24 25 27 26 24 28 27 24 25 23 23 24
34 19 19 16 13 10 14 5 14 6 5 6 14 3 5 4 13 8 9 7 11 16 16 15 18 18 21 22 24 25 27 28 28 28 28 27 25 24 27 27 28 28 29 27 26 26 26 25 27 24 24 22 20 19
20 15 14 10 3 7 5 3 -1 7 4 -1 11 5 5 9 6 1 5 8 8 8 10 12 14 16 14 17 20 22 25 26 25 26 26 27 25 24 24 26 27 27 29 26 24 25 25 24 24 23 22 20 18 17
13 11 11 10 2 9 8 4 1 2 1 3 6 3 0 6 5 5 10 8 5 4 5 6 10 11 15 17 17 18 20 24 23 25 25 27 28 26 23 23 23 23 28 29 27 23 22 23 22 21 21 23 24 15
12 11 15 21 15 13 10 11 13 7 -2 5 1 2 0 1 -1 10 10 8 5 4 5 5 10 11 13 15 18 20 22 23 22 25 26 26 26 29 29 26 26 26 28 28 27 26 23 22 22 22 21 21 17 17
18 15 10 9 8 6 5 3 1 3 6 11 10 1 2 6 10 10 8 4 1 -0 3 8 10 12 14 16 19 20 21 22 22 23 24 24 24 26 27 27 26 29 27 27 26 26 25 24 23 21 18 16 14 15
11 13 13 1 0 1 4 8 7 9 13 10 8 6 6 11 4 2 5 3 -3 -4 -1 4 10 11 18 20 21 21 21 21 20 20 20 18 19 21 25 27 27 26 26 26 29 27 24 23 22 19 17 15 12 11
9 9 6 -2 5 6 5 5 1 0 7 7 8 7 7 6 3 0 1 -2 -2 -1 -1 3 7 10 14 16 19 20 20 21 22 21 22 20 20 22 24 24 24 24 25 25 25 26 28 21 20 16 13 11 10 9
10 4 1 2 2 -3 -3 1 2 8 -2 -6 -5 -0 3 2 5 2 -1 -3 -4 -5 -2 2 7 10 12 12 16 17 19 21 21 24 23 22 22 23 23 23 24 25 25 24 21 19 18 16 14 12 11 9 10 9
10 1 3 1 -1 -3 -3 -6 -8 -5 -7 -6 -5 -8 -4 -1 2 3 -0 -4 -2 0 8 8 9 11 15 16 18 18 22 20 21 22 22 22 22 23 24 24 23 22 21 19 17 16 16 15 14 13 12 9 8 7
-3 -6 -9 -5 -5 -4 -2 -4 -4 -7 -7 -8 -5 -5 -7 -0 5 4 1 -1 -0 1 2 10 14 16 18 19 19 20 21 21 23 26 26 25 25 23 21 21 20 19 18 17 17 16 15 13 12 11 9 7 5 4

GFSWCAN_sfc_temp_036.txt.gz
Temp
51 51 52 53 53 53 53 53 53 52 52 52 52 52 52 52 52 49 45 48 44 44 49 50 52 48 47 48 40 43 41 41 40 36 36 40 40 44 42 45 43 40 37 35 36 35 33 51 55 47 51 52 51 50
50 51 52 52 52 52 52 52 52 52 51 51 51 51 52 52 52 51 43 48 48 44 50 53 54 55 54 53 48 44 43 43 43 39 41 45 40 45 44 41 46 41 47 45 45 47 53 53 53 54 51 49 49 47
50 51 52 52 52 52 51 51 51 51 51 51 51 52 52 52 52 51 44 45 47 47 50 51 50 54 57 56 55 44 43 47 45 47 44 47 40 48 42 43 44 48 49 47 47 54 53 53 53 49 48 46 45 46
50 50 51 51 51 51 51 51 51 51 51 51 52 52 51 51 51 51 45 46 44 41 42 47 54 51 53 52 52 51 50 49 48 46 44 42 45 49 46 46 46 52 48 47 48 53 55 51 50 48 46 46 45 46
50 50 51 51 51 51 51 50 50 51 51 51 51 51 51 51 51 50 48 46 46 42 41 45 50 50 50 51 50 50 48 46 45 42 42 44 47 44 48 46 45 50 51 48 50 54 53 52 49 48 46 44 45 44
49 50 50 51 51 51 50 50 50 50 50 50 50 50 50 50 51 46 41 47 49 48 43 40 48 47 48 49 47 47 47 46 45 44 44 46 48 48 43 42 53 53 53 56 55 52 49 49 48 47 45 45 45 44
49 50 50 50 50 50 50 50 50 50 50 50 50 50 50 50 47 39 41 44 48 46 44 40 41 48 49 47 47 46 47 46 45 45 44 45 45 47 44 43 54 54 54 54 54 51 48 48 47 47 46 45 44 43
49 49 50 50 50 50 50 50 50 50 49 50 49 49 49 50 49 43 46 48 49 45 46 38 38 44 49 44 43 47 44 44 44 43 44 43 44 42 39 50 53 53 51 50 51 50 50 48 46 44 44 44 41 40
48 49 49 49 50 49 49 50 49 49 49 49 49 49 48 45 41 44 47 48 50 46 41 39 36 37 48 45 45 45 44 40 44 41 42 41 40 39 48 51 51 52 50 48 45 45 45 44 42 42 43 43 41 39
48 49 49 49 49 49 49 49 49 49 48 48 46 42 40 42 46 45 45 44 43 44 45 40 43 41 45 45 42 41 41 39 34 39 40 37 39 49 51 50 50 50 48 44 41 37 37 36 38 41 43 44 43 41
48 48 49 49 49 49 49 49 49 48 46 41 37 36 41 44 42 43 38 38 40 37 44 43 42 42 45 40 41 41 38 36 34 37 38 38 38 43 44 43 45 47 47 47 48 47 44 45 44 43 42 42 41 41
48 48 48 48 49 49 48 48 48 42 40 40 39 41 39 40 38 36 34 36 36 36 40 40 42 43 43 44 41 39 36 36 32 39 35 33 41 42 42 42 43 45 46 46 46 46 47 46 46 44 41 40 41 39
48 48 48 48 48 48 48 48 47 46 43 41 38 33 36 35 32 32 31 33 33 35 36 37 37 41 42 43 37 38 33 34 39 33 32 38 41 40 40 40 41 43 45 43 42 44 45 44 43 42 40 40 39 38
48 48 48 48 48 47 47 46 46 44 40 34 32 27 31 31 33 32 32 33 35 35 36 38 37 37 40 36 38 34 35 35 31 29 32 43 39 38 39 39 40 40 41 41 41 41 41 41 40 41 41 41 39 36
48 48 48 46 47 47 46 45 45 41 36 32 32 27 29 33 33 34 33 34 36 37 37 37 36 39 35 34 36 34 32 31 32 34 40 38 35 33 38 38 39 39 40 40 41 40 40 40 40 39 40 40 38 36
48 46 41 46 46 46 45 42 41 39 33 32 31 29 33 31 32 32 31 33 38 38 36 35 34 33 34 34 32 33 31 29 37 36 38 34 35 36 37 37 37 38 39 39 40 40 39 39 38 37 37 37 36 35
47 39 44 46 46 43 43 39 37 33 33 31 30 32 33 31 30 33 34 34 39 35 34 33 31 33 32 29 29 33 31 36 35 36 34 32 32 35 35 36 36 37 37 38 38 39 37 36 36 35 31 33 34 34
40 40 44 45 42 39 36 35 33 30 29 30 28 29 32 32 31 33 35 36 35 33 34 32 32 30 30 28 32 33 32 31 32 31 31 33 34 34 34 36 35 35 35 35 34 33 33 33 34 32 29 29 28 29
41 41 44 44 39 33 27 28 31 25 27 30 30 32 32 32 35 35 34 36 36 35 32 32 30 31 32 30 28 28 29 30 29 31 32 32 32 33 33 31 31 31 32 32 34 34 35 35 32 32 31 32 30 30
46 44 43 43 39 29 22 23 31 26 24 26 28 27 28 28 31 32 34 34 33 32 31 30 31 30 28 28 28 28 29 31 30 30 34 35 32 29 30 32 33 31 31 31 32 32 30 30 32 32 33 31 29 29
40 38 39 35 31 29 26 26 22 26 26 25 28 25 24 26 26 26 30 32 31 31 31 26 26 26 27 27 28 29 29 30 30 30 30 31 34 31 29 29 30 31 32 32 32 32 31 30 30 32 32 31 30 29
35 40 32 31 23 20 23 26 23 24 22 23 24 18 20 21 24 26 26 26 27 23 24 24 25 24 24 25 26 27 27 28 31 32 34 34 30 28 28 29 29 29 30 31 32 30 29 30 30 29 28 28 29 29
37 34 27 23 20 18 16 20 19 20 16 18 13 15 17 18 21 20 24 21 21 23 23 22 21 21 20 23 25 28 30 29 29 30 32 33 32 31 30 29 31 28 28 29 31 28 27 30 31 28 29 27 27 26
35 25 21 19 18 14 17 11 17 14 14 15 16 14 13 15 18 18 20 18 20 21 21 18 19 18 21 20 23 24 26 26 27 29 30 29 28 29 31 31 31 32 32 29 29 28 29 28 30 27 27 26 25 22
25 20 18 12 10 12 10 11 9 13 9 7 13 11 13 13 15 13 15 19 17 18 18 17 16 16 14 16 20 23 25 24 23 22 25 29 28 27 28 30 31 30 31 28 27 27 27 28 27 27 25 24 22 21
18 16 14 17 12 13 13 10 9 10 8 9 11 11 9 13 11 13 16 18 17 15 15 14 12 12 14 17 17 18 21 23 22 21 24 28 28 27 26 25 25 26 31 31 28 27 25 26 25 24 24 25 27 20
15 14 18 23 18 16 14 15 16 12 6 7 11 10 10 5 7 16 19 16 17 15 14 13 12 11 12 14 18 20 22 23 22 22 24 24 26 29 28 27 26 29 31 31 29 26 25 25 24 25 24 25 22 21
21 20 17 16 13 12 11 9 8 9 12 14 14 6 8 11 16 19 18 15 13 10 10 10 11 11 11 13 16 18 20 22 23 24 24 25 25 28 29 30 30 31 29 29 27 27 28 27 26 25 23 20 20 21
18 17 17 7 7 8 10 13 12 14 17 14 13 12 12 15 15 14 13 11 6 7 8 10 12 10 11 15 17 20 21 21 19 18 19 21 22 24 27 27 28 29 28 28 30 29 27 27 26 23 21 20 19 19
15 16 13 8 10 11 11 9 8 6 10 11 11 12 12 12 11 8 8 7 8 10 9 6 6 6 8 11 14 17 22 22 22 20 20 22 23 25 26 27 26 27 27 27 26 26 30 25 23 19 17 16 17 16
13 12 8 9 8 2 1 3 4 9 3 2 -0 6 9 7 10 8 6 7 6 2 4 8 9 9 10 11 12 13 15 22 22 22 23 25 24 24 25 25 26 26 26 26 25 22 20 18 17 16 15 15 15 14
13 9 9 5 2 -1 -0 -2 -3 -1 -2 -0 2 -2 2 6 7 11 6 3 4 8 11 10 8 10 13 15 17 18 22 20 21 22 24 24 24 24 25 25 26 26 24 22 21 19 18 17 16 15 15 14 12 12
3 1 -2 -2 -4 -3 -1 -1 -2 -2 -3 -4 0 -0 -0 4 9 10 6 4 7 8 8 8 9 13 16 18 20 21 23 21 22 25 26 26 27 26 24 23 22 21 20 20 19 18 17 16 15 14 13 12 11 10

GFSWCAN_sfc_temp_039.txt.gz
Temp
52 52 52 52 53 53 53 52 52 52 52 52 52 52 52 52 52 49 45 48 43 40 49 52 55 53 51 51 43 45 42 42 40 37 36 41 43 47 45 49 45 41 37 34 34 32 33 56 57 48 53 55 54 49
51 51 51 52 53 52 52 52 52 51 51 51 51 52 52 52 52 51 43 48 48 41 48 53 56 56 56 54 49 48 45 44 45 39 39 44 44 47 47 41 51 43 50 41 43 46 60 61 57 58 54 52 52 50
51 51 51 51 52 52 52 52 51 51 51 51 52 52 52 52 52 51 46 46 45 45 52 54 54 57 58 58 60 46 45 48 46 49 44 48 42 50 44 46 49 53 56 49 49 56 58 60 60 55 52 50 50 51
50 50 51 51 52 52 52 51 51 51 51 51 52 51 51 51 51 51 46 46 44 42 41 49 57 54 57 56 53 52 49 49 49 47 43 42 45 53 48 48 49 54 53 52 52 57 59 55 53 52 50 50 49 50
50 50 51 51 51 51 51 51 51 51 51 51 51 51 50 51 51 51 51 47 48 41 40 46 54 53 54 52 50 50 49 47 45 42 41 43 47 49 52 49 48 56 53 51 51 56 55 53 53 51 49 47 48 47
49 50 50 51 51 51 51 51 51 51 51 50 50 50 50 50 51 47 41 46 48 46 41 42 51 49 51 51 49 48 48 46 45 43 44 48 54 51 46 45 55 60 61 61 58 56 55 53 51 51 48 47 47 46
49 49 50 50 50 50 51 50 50 50 50 50 50 50 50 50 49 40 40 44 47 46 42 41 45 50 52 50 48 46 47 46 45 44 44 46 46 48 45 43 56 60 60 59 60 56 52 52 50 49 48 47 47 46
49 49 49 50 50 50 50 50 50 50 50 50 49 49 49 50 50 43 47 48 48 44 45 39 41 46 51 46 45 49 44 44 44 43 44 44 47 44 38 51 56 59 60 57 57 57 55 53 49 46 46 45 42 41
48 49 49 49 50 50 50 50 50 49 49 48 49 50 50 48 43 44 47 47 49 45 42 40 37 38 50 48 47 46 45 40 44 41 42 41 41 39 49 54 56 57 54 54 53 51 50 48 45 44 44 45 43 42
48 48 49 49 49 49 49 49 49 49 48 48 49 44 40 44 46 46 45 43 45 44 45 40 47 44 48 48 45 44 42 39 34 39 40 37 39 50 54 56 55 55 54 50 44 40 40 39 41 44 45 46 45 43
48 48 49 49 49 49 49 49 49 48 48 45 42 39 42 45 44 44 38 41 40 37 46 44 44 44 49 42 43 44 39 38 34 37 37 38 40 48 48 48 49 50 53 51 52 51 49 47 46 46 46 46 45 44
48 48 48 48 49 49 48 48 48 45 42 41 40 42 40 41 39 36 35 37 36 37 42 41 43 44 47 47 41 42 37 38 33 41 36 34 44 45 45 45 45 47 50 50 51 50 50 49 49 48 45 44 45 43
48 48 48 48 48 48 48 47 47 46 46 45 40 35 39 37 33 32 31 34 34 36 36 36 38 42 43 44 39 39 34 34 41 34 34 40 44 45 43 44 45 45 48 47 46 49 50 49 48 46 44 45 43 41
48 48 48 48 48 47 47 46 46 46 43 37 33 31 33 32 34 34 35 34 37 37 37 38 37 39 42 38 39 34 39 38 32 30 33 46 42 41 43 43 43 44 45 45 44 45 45 44 44 45 45 44 42 40
48 48 48 47 47 47 46 45 46 45 40 33 34 30 31 35 35 34 34 34 37 39 37 38 37 39 36 34 37 36 33 32 35 36 41 39 38 38 41 43 43 44 45 45 45 44 44 44 43 43 43 44 43 40
48 47 44 46 46 46 45 45 44 43 35 34 32 31 34 32 33 34 32 34 39 37 37 36 35 34 34 36 33 33 32 31 37 36 39 38 38 40 41 41 41 42 43 44 44 44 44 43 43 42 43 41 40 40
47 43 46 45 45 44 44 42 40 34 32 32 32 34 34 32 33 35 35 35 40 35 34 34 32 33 34 32 31 36 33 34 33 34 37 37 34 34 35 38 38 39 41 43 43 43 43 43 41 39 36 37 37 36
43 45 45 45 43 41 41 37 34 32 30 32 30 32 33 34 33 36 38 38 35 33 33 32 32 31 32 31 35 33 33 33 35 36 36 38 38 37 37 37 37 37 39 39 37 35 36 36 37 36 33 33 32 32
45 45 45 45 42 38 32 32 33 27 30 32 32 34 33 33 36 37 36 37 37 36 33 32 31 31 34 33 30 31 30 30 30 33 36 41 39 36 34 33 33 34 34 34 36 37 37 38 35 33 32 34 32 32
47 45 44 43 41 34 29 28 33 29 27 30 31 29 30 30 32 32 34 35 35 32 31 29 33 33 32 30 30 29 30 32 31 31 35 40 40 34 33 33 35 35 35 36 36 37 33 33 34 34 35 33 32 31
42 41 40 38 34 33 30 28 25 28 29 28 30 28 26 28 27 28 31 33 31 31 30 34 33 32 31 30 30 31 31 32 31 31 31 31 36 37 35 34 33 34 34 35 34 34 34 32 33 35 33 34 33 33
38 40 35 35 30 27 28 28 27 27 26 27 26 24 23 24 26 28 27 26 28 33 32 31 30 29 28 28 29 29 29 29 30 31 33 35 33 34 34 34 32 31 33 34 34 33 32 33 34 34 33 31 32 31
39 37 31 30 27 26 22 25 23 23 22 22 21 22 22 22 25 25 24 29 29 30 29 28 26 24 23 25 27 27 29 29 28 30 31 32 33 35 33 33 33 32 31 32 35 32 30 34 33 31 31 30 29 28
37 30 28 26 25 22 22 20 23 21 21 21 21 20 21 23 22 23 22 27 28 27 26 24 24 24 26 24 25 27 28 28 26 28 30 29 28 32 33 33 34 33 33 31 30 29 30 30 32 30 29 28 27 25
26 24 24 21 18 19 19 18 17 19 19 18 19 19 20 19 21 20 20 26 25 25 26 24 23 22 20 21 24 26 27 26 24 23 25 28 27 30 30 30 31 33 32 29 27 28 29 30 29 28 28 27 25 24
22 21 20 23 19 20 21 15 15 17 19 15 17 19 18 20 16 16 23 27 26 26 24 22 22 21 21 23 21 22 24 26 24 21 23 27 27 26 26 27 26 27 31 32 30 28 26 27 28 27 26 27 29 24
21 20 21 25 23 20 19 20 22 20 15 15 18 16 17 12 15 23 28 26 26 25 24 23 21 20 19 20 22 23 23 23 21 22 25 25 25 26 24 24 27 29 29 30 30 28 26 26 26 26 25 27 26 24
25 23 18 19 19 19 16 17 16 15 20 22 21 13 13 16 20 28 27 25 24 20 19 19 18 18 17 17 19 19 19 21 21 22 24 25 26 26 26 28 30 31 30 30 29 28 27 26 25 25 26 24 23 24
21 21 22 15 15 16 17 18 20 22 23 21 20 20 20 23 24 24 22 19 17 16 16 17 19 17 16 17 18 18 19 20 19 16 16 18 22 26 28 29 30 30 29 29 31 29 28 27 26 26 24 23 23 23
20 24 20 15 14 15 18 16 17 13 16 17 16 18 19 20 21 18 16 14 13 15 17 16 14 12 12 13 14 16 20 21 21 20 18 19 23 27 27 27 28 29 29 28 28 28 31 28 27 22 20 20 20 20
20 20 17 18 17 12 9 9 10 14 12 12 9 13 17 15 17 17 14 15 15 12 12 13 15 16 14 14 15 14 15 21 21 21 22 23 23 25 26 27 28 28 28 27 27 27 24 20 20 19 19 18 18 17
18 17 16 13 12 6 7 8 9 11 10 10 13 6 11 13 14 21 13 11 11 13 16 17 14 15 17 17 17 18 21 20 20 21 21 21 23 26 26 27 27 27 27 26 23 21 20 19 19 19 17 17 15 15
9 9 8 9 8 8 7 9 9 9 8 9 10 8 9 11 13 18 12 11 14 15 15 15 15 15 15 15 19 22 25 24 22 27 28 28 28 27 26 26 26 25 23 22 21 21 20 19 18 17 16 14 14 14

GFSWCAN_sfc_temp_042.txt.gz
Temp
52 52 52 52 52 52 53 53 52 52 52 52 52 52 52 52 52 49 45 47 42 39 43 52 53 50 49 48 42 43 42 42 41 37 36 36 37 41 38 43 38 35 34 33 33 31 27 51 51 41 44 46 47 45
52 51 51 52 52 52 52 53 52 52 52 52 52 52 52 52 52 51 43 48 48 40 44 53 55 55 53 51 47 46 44 42 44 39 39 39 38 40 39 38 45 39 43 38 38 38 50 54 49 49 47 45 44 43
51 51 51 51 51 52 52 52 52 52 52 52 52 52 52 52 52 50 44 45 44 43 48 49 50 53 57 55 56 44 45 47 46 47 43 42 37 42 38 38 41 44 48 42 43 49 51 49 51 48 46 44 45 46
50 50 51 51 51 51 52 52 52 52 52 52 52 52 52 51 51 51 45 46 43 41 40 45 56 51 54 54 53 52 49 49 48 46 42 41 39 46 40 42 41 45 46 44 44 49 49 48 47 46 46 46 46 46
50 50 50 51 51 51 51 51 51 51 51 51 51 51 51 51 51 49 47 47 47 41 39 43 51 50 52 51 50 50 49 46 44 42 40 40 43 43 43 42 40 47 45 42 41 49 48 45 46 48 45 44 45 43
50 50 50 50 50 51 51 51 51 51 51 50 50 50 50 50 50 46 40 45 48 45 40 39 48 46 49 50 49 48 47 46 45 43 42 44 48 45 37 38 49 52 53 53 48 48 48 47 46 46 43 43 44 43
50 50 50 50 50 50 50 51 50 50 50 50 50 50 50 50 46 40 39 44 47 46 41 39 42 47 50 48 47 46 47 45 44 43 42 44 44 44 40 38 49 51 52 50 52 50 45 46 43 44 43 44 45 43
49 49 49 49 50 50 50 50 50 50 50 50 49 50 50 51 49 42 46 49 48 43 44 37 37 42 49 44 43 47 43 44 43 42 44 42 43 43 38 44 49 52 51 49 50 50 48 46 43 42 42 41 38 38
49 49 49 49 50 50 50 50 50 49 49 49 49 50 48 45 41 43 47 47 47 44 39 39 35 35 46 45 45 44 44 39 44 40 41 41 41 37 43 47 48 48 47 46 45 46 45 42 40 40 40 41 39 39
48 48 48 49 49 49 49 50 49 49 48 48 46 42 40 44 47 46 44 43 42 44 43 40 44 39 44 45 41 41 42 38 34 38 40 37 38 45 47 46 45 48 46 44 39 35 36 34 37 40 42 43 41 40
48 48 48 49 49 49 49 49 49 48 49 42 40 39 42 46 44 43 38 39 40 37 42 42 41 40 45 40 40 41 37 35 32 35 36 35 36 42 42 42 42 43 44 45 45 43 42 42 44 43 42 42 42 41
48 48 48 49 49 49 49 48 48 43 41 40 40 42 40 41 39 35 35 36 35 35 39 39 40 41 42 43 39 39 35 35 32 38 34 32 39 41 40 40 41 42 44 45 46 45 46 46 47 46 44 42 41 39
48 48 48 48 49 48 48 48 47 47 46 43 38 34 37 36 33 32 31 33 33 35 35 36 36 40 42 40 37 35 33 33 38 32 32 33 37 39 38 40 40 43 45 45 44 46 47 46 45 44 42 42 39 38
48 48 48 48 48 47 48 47 46 45 39 36 32 26 32 31 33 34 34 33 35 35 36 37 36 37 40 36 37 32 36 34 31 29 29 33 34 36 38 40 40 41 42 42 42 43 43 43 42 43 43 40 39 37
48 47 48 47 47 47 46 46 46 42 36 33 31 27 30 34 34 33 33 34 36 37 37 36 34 37 34 33 34 33 32 31 33 28 33 32 33 33 36 37 37 38 39 40 40 40 41 41 41 39 40 40 39 37
47 47 44 46 46 46 45 44 42 41 33 32 30 31 34 32 32 32 32 33 36 37 36 35 34 33 29 33 31 33 31 30 31 29 28 31 32 32 33 34 36 37 38 39 40 40 39 39 38 38 38 37 36 36
47 41 46 46 45 44 44 38 36 32 31 32 30 34 33 32 32 32 35 35 39 34 33 33 32 32 33 31 31 35 33 30 28 26 26 29 30 32 31 33 34 35 36 37 38 38 38 38 37 36 32 31 31 31
41 43 46 45 43 41 38 34 30 32 29 32 29 32 33 34 32 34 36 37 35 32 32 32 31 30 30 30 30 29 29 29 25 26 28 31 32 32 32 30 31 30 32 31 28 28 28 29 30 29 28 28 29 30
43 44 46 45 42 36 31 29 30 26 29 31 32 33 32 33 35 36 35 35 36 35 32 31 29 30 31 29 29 27 25 27 28 28 29 32 33 31 29 28 29 27 27 27 30 31 30 31 30 29 31 32 30 29
46 46 45 44 42 33 28 27 30 27 25 28 30 28 30 30 32 32 29 30 32 30 29 27 29 31 30 27 24 24 26 27 28 28 27 30 31 28 29 26 28 28 29 29 27 31 25 28 30 32 32 31 30 29
41 39 40 38 33 32 29 27 26 27 28 25 28 27 26 27 25 26 28 32 28 19 20 26 27 26 25 24 26 26 25 26 24 26 27 26 30 32 33 32 24 28 28 28 27 27 30 27 28 29 32 32 32 30
36 41 34 35 30 27 26 27 26 27 25 24 24 24 20 19 21 24 27 26 27 23 24 24 22 22 22 23 21 22 23 24 24 27 31 32 29 30 30 33 28 23 25 27 29 30 26 28 31 30 32 31 31 30
38 37 31 30 27 25 20 25 23 23 21 21 19 16 16 20 24 23 22 25 21 21 21 21 19 18 17 20 22 23 24 22 22 23 25 24 28 30 30 31 30 27 27 27 27 30 30 33 34 31 31 29 29 29
37 30 27 25 25 20 22 18 23 22 21 20 18 14 13 14 16 21 20 19 19 19 19 16 16 16 17 15 15 18 20 21 19 19 19 19 21 22 25 27 30 28 31 28 26 28 31 31 33 30 29 28 27 26
26 24 24 18 16 16 17 15 18 19 18 18 16 14 11 13 10 9 11 15 15 14 16 16 15 14 9 9 16 17 19 18 16 17 17 17 19 21 21 24 28 28 28 27 27 26 29 29 29 28 28 27 25 22
22 22 19 19 12 15 18 17 16 17 18 11 13 12 11 12 6 7 13 15 15 17 19 18 15 11 15 18 15 13 15 17 16 15 17 18 19 21 21 20 19 24 26 30 28 26 27 28 27 25 26 27 27 22
21 18 19 25 21 21 18 21 22 19 15 12 13 9 9 4 5 14 17 16 16 15 15 16 17 15 14 12 14 15 14 12 13 15 19 19 20 21 20 19 18 22 27 29 29 28 26 26 25 25 25 25 25 23
23 20 15 18 19 19 17 16 16 16 17 19 18 7 7 10 12 15 15 14 12 10 9 9 9 9 8 9 9 11 11 12 12 14 18 20 20 21 21 22 24 28 27 29 29 29 28 27 26 26 25 25 22 23
18 22 22 17 17 17 17 17 17 19 20 16 14 13 13 16 13 13 12 10 7 6 6 6 7 5 5 7 10 12 12 9 11 12 12 13 15 15 17 22 24 26 28 29 32 31 28 28 27 26 26 23 23 23
19 24 20 16 17 16 16 14 13 11 14 13 14 12 12 12 11 10 8 5 5 6 4 5 3 1 1 2 4 7 10 13 15 15 14 14 14 13 14 17 23 25 29 28 28 29 32 30 29 25 22 21 21 21
22 21 18 18 16 11 8 8 9 12 9 5 3 4 7 7 10 9 6 6 4 1 1 0 1 2 4 5 2 9 12 10 12 14 17 19 19 17 19 20 23 26 28 28 28 27 28 25 22 20 20 20 21 20
19 16 15 12 10 5 3 2 4 5 4 1 2 -0 3 4 5 10 4 2 1 1 8 6 3 6 7 6 9 13 20 18 18 19 19 19 18 18 19 22 24 27 27 27 27 24 21 21 20 20 19 19 17 17
10 12 11 9 2 0 3 2 4 3 2 3 4 3 1 3 7 9 5 3 4 5 5 5 4 5 7 8 12 16 21 20 22 29 30 30 29 26 24 25 26 26 24 22 22 21 20 20 19 19 18 17 17 16

GFSWCAN_sfc_temp_045.txt.gz
Temp
52 52 52 52 52 52 53 53 53 53 52 52 52 52 52 52 52 47 43 47 41 39 42 46 50 45 48 47 39 41 42 42 40 36 35 34 33 37 35 38 36 33 33 33 33 29 27 47 46 39 43 43 43 43
51 51 51 52 52 52 52 52 52 52 52 52 52 53 52 52 52 50 41 47 47 39 42 49 51 54 50 47 46 42 41 41 44 39 38 35 34 36 35 35 41 36 38 35 36 36 46 46 45 44 44 43 41 42
50 50 50 51 51 52 52 52 52 52 52 52 52 53 52 52 52 49 42 45 43 41 44 45 46 53 56 54 54 41 42 45 42 46 40 41 34 38 33 34 40 45 48 42 39 46 46 45 43 43 43 41 43 44
50 49 50 50 51 51 52 52 52 52 52 52 52 52 52 52 51 51 40 45 43 39 39 45 55 49 51 51 50 49 47 47 47 46 42 40 39 43 38 38 39 42 46 43 41 46 44 43 42 43 43 44 44 44
49 48 50 50 51 51 51 51 52 51 51 51 51 51 50 50 51 49 41 45 46 38 38 41 47 47 50 49 48 49 47 46 44 42 41 40 42 39 38 38 36 44 43 40 40 47 46 43 43 45 43 42 44 42
48 49 49 50 50 50 51 51 51 51 51 51 50 50 50 50 50 43 38 45 47 45 40 38 47 44 47 49 46 46 48 46 45 43 42 44 48 45 38 37 44 46 48 50 47 46 46 44 44 43 42 41 42 41
48 49 49 50 50 50 50 51 51 51 50 50 50 50 50 50 43 39 39 43 47 46 41 38 40 46 48 47 45 45 47 45 44 42 41 43 44 45 40 35 45 49 50 49 49 48 43 43 41 42 42 41 42 41
48 49 49 49 50 50 50 50 50 50 50 50 50 50 51 51 48 42 45 49 47 42 43 36 37 40 48 43 42 46 43 43 43 42 43 41 43 42 38 41 45 49 49 48 45 46 46 42 40 39 39 39 37 37
48 48 49 49 49 50 49 50 50 49 49 49 49 50 46 44 40 42 48 47 47 43 39 38 34 34 45 43 44 43 44 39 43 39 40 41 40 37 40 42 45 46 45 43 43 42 41 39 37 37 36 37 36 37
47 48 48 49 49 49 49 50 49 49 48 49 45 41 38 42 46 46 43 42 41 42 42 39 42 38 41 43 38 41 41 38 33 38 40 37 38 44 42 41 41 42 41 42 40 35 33 31 35 36 37 40 41 39
47 48 48 49 49 49 49 49 49 48 46 38 38 37 42 46 42 41 38 38 39 36 42 42 39 39 45 38 40 41 36 35 32 34 35 33 35 37 39 39 40 40 40 40 42 43 42 40 41 39 40 41 40 40
48 48 48 48 49 49 49 48 48 38 40 40 38 41 40 40 38 35 34 35 35 34 39 39 39 40 41 42 39 38 34 34 31 37 34 31 36 37 37 37 40 40 40 41 43 45 42 43 43 44 42 41 40 37
46 47 48 48 49 49 48 48 47 46 45 42 38 34 36 36 32 32 30 33 33 35 35 36 36 39 41 40 34 34 33 33 38 31 31 32 34 35 35 38 38 40 42 43 43 45 45 43 43 41 41 41 39 37
46 47 46 47 48 47 47 47 46 43 39 34 32 26 31 31 32 33 32 33 34 34 35 37 35 37 39 35 35 32 35 34 30 28 28 31 32 34 35 36 36 36 38 40 40 42 42 42 41 42 41 40 38 36
45 46 46 46 47 47 47 46 46 39 37 33 31 26 30 32 33 32 33 33 35 36 36 36 35 35 33 32 31 32 31 30 32 30 29 26 30 31 33 34 34 35 36 37 39 40 40 40 39 38 38 38 38 36
46 45 43 46 46 46 45 43 39 36 30 31 28 29 33 31 31 32 32 33 35 36 35 34 33 33 32 32 31 32 31 29 30 27 24 25 29 30 31 32 33 34 35 37 38 39 39 38 37 36 36 37 36 36
46 40 45 45 45 45 45 36 34 28 24 30 28 33 31 30 29 31 34 34 38 34 33 33 32 31 32 30 29 33 32 30 28 23 23 26 27 28 29 30 31 32 33 34 35 37 37 36 35 34 31 30 31 31
40 42 46 46 43 41 36 33 28 28 26 29 27 29 33 33 32 33 35 36 34 32 32 32 32 30 29 29 27 29 29 29 24 23 25 27 28 29 30 29 30 29 29 30 28 28 27 28 29 29 27 26 26 28
42 42 45 46 41 34 28 28 29 25 24 29 30 31 31 32 34 35 34 35 35 34 31 31 29 29 29 30 30 27 19 21 24 25 28 29 29 28 28 29 31 27 27 27 29 30 30 30 29 28 28 30 29 30
45 45 45 44 42 31 25 24 30 24 23 25 28 27 29 29 30 31 31 32 32 28 27 27 29 27 27 25 23 22 22 25 24 22 24 26 27 24 27 31 32 29 27 28 26 30 23 27 28 29 31 31 29 29
40 39 39 37 32 31 26 25 23 23 25 24 24 27 25 26 25 25 26 27 28 20 15 23 26 25 22 22 25 25 24 23 22 22 21 19 24 29 31 31 32 31 29 26 26 27 31 26 27 27 27 32 30 30
36 38 32 34 28 26 24 25 23 24 21 21 22 23 20 20 21 24 22 26 26 20 22 23 19 21 21 22 20 20 22 23 23 22 27 27 22 20 23 27 29 29 30 30 25 26 30 31 31 31 31 29 30 30
37 36 31 28 25 22 18 21 17 18 18 16 18 18 17 18 21 25 21 24 21 21 20 19 16 15 17 18 21 21 22 19 19 20 22 21 21 22 21 21 23 26 28 30 26 28 30 33 33 31 31 31 29 29
37 30 26 24 22 18 18 11 19 16 17 18 16 17 15 16 19 20 18 18 20 17 18 14 13 14 14 11 12 15 19 18 18 15 15 15 16 19 21 22 24 23 25 26 27 28 29 31 33 31 29 28 28 28
26 23 22 14 12 12 7 10 11 17 17 19 18 16 13 15 10 8 14 16 10 11 12 12 12 11 8 3 12 14 16 17 16 15 13 16 16 18 17 18 22 24 23 24 27 26 27 29 30 29 28 28 27 25
21 19 17 16 10 12 12 12 14 16 18 17 17 13 14 14 8 12 16 12 11 13 14 17 15 8 11 15 12 11 14 14 13 12 15 15 16 15 10 15 17 19 21 24 26 26 25 27 27 26 27 28 30 24
19 14 19 24 19 19 17 19 20 16 16 15 13 13 14 8 12 18 17 16 16 15 15 17 17 16 17 11 12 12 11 7 11 13 13 14 16 17 16 15 15 19 20 19 22 27 26 26 27 26 26 26 26 24
20 18 13 14 15 17 15 15 14 13 16 18 19 14 13 13 18 18 17 12 9 4 3 4 6 7 7 6 6 8 7 5 4 7 12 15 17 17 17 18 20 24 23 24 23 23 26 27 27 26 26 25 26 24
15 18 18 11 14 16 17 17 17 17 21 20 17 15 15 19 14 12 13 9 2 5 6 5 6 -2 1 1 2 3 4 4 5 8 8 10 13 11 12 15 17 20 22 23 28 30 28 28 28 27 27 26 25 24
12 19 15 14 15 15 16 15 14 14 16 15 15 15 16 15 13 8 7 2 5 8 3 0 -1 1 2 -1 1 3 3 8 11 12 11 11 12 11 7 12 16 18 18 22 23 26 31 32 31 29 25 23 22 22
21 20 17 17 15 11 10 11 11 14 11 8 7 9 12 11 12 9 6 2 0 -4 -1 -1 -3 -7 -1 -1 -2 -1 8 8 6 10 13 16 17 17 18 18 17 17 18 21 23 26 27 28 26 22 21 21 21 22
17 17 17 13 10 8 9 7 8 8 8 5 6 1 3 5 6 11 2 -1 -3 -0 8 4 -2 4 4 5 3 8 19 16 16 17 15 17 18 20 20 18 16 17 19 21 24 26 25 22 22 21 21 21 21 19
10 8 10 10 8 4 5 7 5 3 3 -1 0 -1 -3 2 8 10 4 -1 3 3 4 4 4 2 3 2 6 10 18 15 14 24 26 28 30 29 21 18 20 21 22 24 24 23 22 21 21 20 20 19 18 18

GFSWCAN_sfc_temp_048.txt.gz
Temp
52 52 52 52 52 52 52 53 53 53 53 52 53 52 53 52 52 45 42 47 41 38 40 46 48 42 47 46 41 42 42 42 40 36 35 33 31 36 35 37 37 34 31 32 33 30 25 44 44 38 43 41 42 41
52 52 52 51 51 51 52 52 52 53 52 52 52 52 52 52 52 50 40 47 47 38 40 45 48 50 48 49 46 43 42 41 43 39 37 34 32 33 34 34 38 32 36 34 36 35 44 45 44 43 43 42 41 40
52 51 51 51 50 51 51 52 52 52 52 52 52 52 52 52 52 50 41 43 43 39 43 43 44 53 54 52 54 44 43 47 41 45 39 37 34 35 31 33 38 42 45 40 40 44 45 47 43 42 41 40 42 42
51 50 50 50 50 50 51 51 52 52 51 52 52 52 52 52 52 51 41 44 41 38 36 44 52 47 49 51 50 50 49 47 46 44 42 40 38 43 37 37 38 42 44 42 41 43 42 42 43 42 42 42 42 43
50 49 49 49 49 50 51 51 51 52 51 51 51 51 51 50 50 49 42 44 45 38 37 41 47 46 48 48 47 49 48 46 44 42 40 39 42 40 38 37 35 41 42 39 40 48 45 44 43 44 42 41 42 41
49 49 49 49 49 50 50 51 51 51 50 51 50 50 50 50 50 41 37 43 46 45 38 37 47 42 46 48 47 47 48 46 45 43 42 43 47 44 38 37 43 43 45 47 46 46 45 42 42 41 40 40 41 40
48 49 49 49 49 50 50 50 51 50 51 50 50 50 50 50 42 37 38 43 48 46 40 37 39 46 46 46 45 45 47 45 44 42 41 42 44 45 39 37 45 46 48 48 48 46 42 42 42 41 41 40 42 39
48 48 48 49 49 49 50 50 51 50 50 50 49 51 51 51 47 41 45 48 47 42 42 36 36 40 47 43 42 45 43 44 43 42 43 41 42 42 37 43 45 47 47 45 43 44 42 40 39 38 37 37 36 35
48 48 48 48 48 49 50 50 50 50 49 49 49 50 44 43 39 42 48 48 47 43 38 38 34 33 45 43 44 43 44 39 43 39 40 40 40 36 36 38 40 41 41 41 42 40 40 38 37 36 35 35 34 34
49 48 48 48 48 49 49 49 49 49 48 49 44 41 38 42 46 46 43 41 41 42 41 39 40 36 41 42 40 41 41 38 33 38 40 37 37 40 40 38 36 38 40 39 39 36 33 32 34 35 35 36 37 38
48 47 47 47 48 49 49 49 49 47 45 37 37 37 41 45 42 40 37 37 39 36 40 41 41 37 42 37 38 40 36 35 32 34 35 32 34 34 36 34 36 38 38 38 39 40 41 41 40 39 39 41 40 40
48 48 48 47 48 48 49 48 48 38 36 38 37 40 40 39 38 35 34 35 35 34 39 39 39 40 41 42 38 38 34 34 30 37 33 31 35 34 34 34 36 37 38 39 40 41 42 42 43 43 41 40 40 39
47 46 46 46 47 48 48 48 47 46 45 41 38 34 36 36 32 32 30 33 33 35 36 36 35 39 40 40 36 34 32 33 37 31 30 33 33 34 34 35 35 37 39 40 42 43 44 43 44 42 40 40 39 37
46 45 45 45 46 47 48 47 46 43 39 34 27 30 31 30 32 32 27 31 34 34 35 37 36 37 39 35 36 32 35 34 30 28 28 31 30 32 34 35 34 34 36 37 39 41 41 41 40 40 40 37 37 36
45 45 44 44 45 47 47 46 46 38 34 29 32 26 29 32 32 32 33 34 34 36 36 36 34 37 33 33 33 32 31 29 32 30 30 25 29 30 31 33 32 33 34 35 37 38 40 40 39 38 38 38 37 36
45 44 42 44 45 45 45 43 39 35 30 28 26 26 33 31 31 31 32 32 35 36 35 35 33 33 32 32 30 30 31 29 26 29 23 23 27 29 29 30 31 32 33 34 35 37 37 38 37 37 36 36 36 36
44 39 44 44 45 45 45 36 33 26 21 23 22 30 28 26 31 31 34 34 37 34 33 33 32 32 32 30 29 33 31 30 30 25 21 24 26 27 27 29 30 30 31 32 32 33 33 35 35 34 31 31 32 32
39 42 44 44 43 41 36 32 28 26 23 24 22 23 32 33 32 33 34 35 34 32 32 32 31 30 30 29 25 24 29 29 30 29 29 25 26 27 29 27 29 30 29 29 28 27 27 26 29 31 27 27 27 27
42 42 44 44 41 34 29 28 28 23 24 27 27 27 31 32 34 34 34 35 34 34 31 31 28 28 28 25 29 27 28 29 29 30 29 31 30 27 27 26 31 32 28 26 27 28 28 29 29 29 28 28 28 28
45 45 45 45 42 30 26 25 29 24 21 26 28 26 28 28 30 30 31 32 31 28 26 26 28 30 27 26 23 27 24 25 24 23 23 24 24 19 23 24 28 28 29 29 26 31 24 27 28 28 28 28 27 28
40 38 40 37 31 29 24 22 20 21 22 22 23 25 22 26 25 24 25 29 27 22 18 23 25 26 22 22 26 26 24 22 21 21 22 16 22 20 21 21 19 27 30 31 29 29 28 27 29 30 27 29 29 31
36 39 33 34 26 23 20 23 21 23 21 20 21 22 18 18 19 22 22 24 23 22 23 23 21 21 20 22 20 20 22 23 22 21 26 24 19 17 18 19 19 16 17 24 29 29 27 28 31 30 30 29 32 29
38 36 29 25 20 16 16 22 17 18 17 16 18 16 16 17 18 24 19 18 24 25 22 21 18 16 19 17 21 21 21 18 18 19 20 19 19 19 18 18 18 13 18 21 21 24 25 30 32 32 30 31 28 28
38 29 22 19 16 14 17 13 21 19 16 17 16 15 13 11 18 19 13 20 24 15 17 18 16 17 17 13 13 15 17 18 16 13 14 13 13 17 20 20 21 20 20 22 21 25 29 29 31 30 29 28 28 28
27 21 19 9 12 10 8 9 10 14 10 15 16 16 13 13 10 9 11 20 14 11 14 15 16 13 13 7 11 13 14 17 15 14 12 14 13 14 15 16 19 21 21 15 20 21 25 27 26 26 27 27 27 27
22 19 19 13 6 10 12 9 11 11 16 14 15 13 11 10 5 9 16 21 17 14 16 18 19 13 13 14 12 9 14 15 13 11 11 14 14 11 6 11 14 17 19 21 15 16 21 25 24 24 24 27 30 26
21 15 19 24 18 17 13 17 20 17 13 12 9 9 10 9 10 18 21 20 19 18 17 21 20 20 19 12 12 11 9 8 12 11 11 9 12 14 14 14 14 18 17 15 15 16 19 20 22 24 24 25 27 26
21 18 14 14 12 11 9 12 12 13 15 18 17 10 10 12 17 19 18 15 13 12 9 8 10 12 11 9 7 9 5 1 -0 3 7 10 13 14 14 16 18 23 21 20 20 20 20 20 20 23 25 25 26 27
14 15 17 5 6 7 11 16 17 19 23 19 14 14 14 18 17 12 13 11 8 11 12 12 10 1 1 -0 -0 -0 0 2 4 4 7 12 9 9 9 11 13 13 17 19 25 27 26 25 24 24 25 26 27 26
10 15 10 5 9 11 15 16 14 12 15 14 15 12 13 15 13 7 8 5 9 14 14 9 3 5 5 3 1 1 -0 3 6 8 7 11 10 7 5 9 13 15 16 13 15 17 24 25 27 29 29 26 23 23
17 10 8 9 10 8 8 11 10 13 7 3 3 6 11 10 14 13 13 9 7 6 5 3 -1 -7 -0 -3 -3 -3 4 3 2 5 8 12 14 15 15 17 18 19 17 16 14 15 17 20 23 25 21 21 22 22
12 10 13 10 8 9 10 6 8 5 2 1 2 1 6 7 11 17 6 5 5 3 10 6 0 5 3 2 0 2 18 11 10 13 12 15 16 16 17 18 21 20 17 16 15 16 18 21 21 21 22 21 22 21
7 9 9 5 2 3 6 10 5 2 2 1 4 4 4 7 12 14 4 -1 3 4 4 4 3 1 1 2 3 4 14 8 12 22 24 25 27 29 28 26 20 18 17 17 18 20 21 21 22 22 21 21 21 20

GFSWCAN_sfc_temp_051.txt.gz
Temp
53 53 53 53 52 52 52 52 53 53 53 53 52 52 52 53 52 43 38 46 41 38 39 42 45 40 42 43 37 40 41 42 40 36 35 33 30 38 34 36 34 33 31 31 32 29 25 43 42 37 43 41 42 41
53 53 53 52 52 51 52 52 52 52 53 52 52 52 52 52 52 49 35 46 47 38 39 44 46 47 45 46 45 43 42 42 43 39 37 36 32 32 32 31 37 32 35 32 34 34 44 44 46 46 44 42 41 41
52 53 52 52 51 51 51 51 52 52 52 52 52 52 53 52 52 50 42 41 42 38 40 41 43 51 50 49 53 41 42 47 43 43 39 35 33 34 30 31 35 40 43 37 38 43 44 46 45 44 44 43 42 42
52 52 52 51 51 51 51 51 51 51 52 52 52 52 52 51 52 51 41 41 41 37 35 42 51 47 51 50 49 50 49 48 47 45 41 40 38 41 36 36 37 41 44 41 39 44 44 43 43 44 43 42 42 41
52 52 50 50 50 50 50 51 51 51 52 52 51 51 51 51 50 48 44 42 44 36 34 40 47 48 49 48 46 46 47 46 44 41 40 39 42 40 37 38 34 39 39 36 39 46 43 43 42 43 41 41 41 40
52 50 50 49 49 50 50 50 50 50 51 51 51 51 50 50 49 42 35 42 45 42 36 36 45 44 43 46 48 47 47 46 45 43 42 43 47 43 38 36 43 42 43 44 42 45 45 44 41 41 40 40 40 40
51 50 49 49 50 50 50 50 50 51 50 50 50 50 50 50 40 34 38 42 46 43 37 36 38 45 47 46 45 45 47 45 44 42 41 42 43 44 39 33 40 43 45 45 45 43 41 41 42 41 40 39 41 38
50 49 49 49 50 49 49 49 50 51 50 50 49 49 51 50 46 40 44 48 46 41 41 36 36 40 46 41 41 45 43 44 43 42 42 41 42 41 36 40 40 43 43 44 42 41 40 40 38 37 37 36 35 34
49 48 49 48 49 49 49 49 49 50 49 49 49 50 44 43 38 41 48 48 46 42 37 38 34 33 45 43 44 43 44 39 43 39 39 40 39 35 35 35 38 37 38 38 40 41 40 39 38 36 35 34 34 33
48 48 48 48 48 48 48 49 50 49 48 48 44 40 37 41 46 46 43 40 40 41 41 39 39 35 40 40 39 41 41 38 33 38 40 37 37 36 37 38 38 36 37 36 34 35 36 33 35 35 35 36 36 35
48 49 48 48 47 47 48 49 49 47 45 38 38 37 41 45 42 41 37 37 37 36 40 38 38 37 40 35 37 40 36 35 32 34 35 33 33 35 35 32 33 34 37 35 35 37 38 39 40 40 38 39 39 38
48 48 48 47 47 47 48 48 47 38 35 37 37 41 40 39 37 34 33 35 35 33 38 39 39 40 40 42 37 37 34 34 31 37 33 30 34 32 31 32 33 35 36 38 40 39 39 40 41 42 41 40 40 40
47 48 47 46 46 46 47 48 47 46 45 41 38 34 36 36 31 32 30 31 33 35 35 36 35 39 40 40 36 35 32 32 37 32 29 32 32 31 31 33 34 36 37 38 38 40 42 42 42 41 40 41 40 37
47 46 46 45 45 46 47 47 47 43 39 34 32 31 31 31 31 31 26 32 34 34 36 37 36 37 39 35 36 32 35 34 29 28 29 30 28 30 33 34 33 32 34 35 36 38 39 41 40 40 40 38 37 36
47 46 46 45 45 45 46 46 46 38 34 30 31 25 30 32 32 32 33 33 34 37 36 36 34 36 33 33 34 32 30 28 32 29 28 26 28 28 30 32 32 32 32 33 35 35 37 38 38 38 37 37 36 36
46 45 42 44 44 44 44 42 39 35 27 27 27 22 32 31 31 31 32 32 35 36 36 35 33 31 31 32 30 30 30 29 26 29 30 25 27 27 28 29 30 31 32 32 33 34 34 35 36 36 35 35 35 35
44 39 44 44 43 43 43 36 33 27 23 20 20 26 30 19 23 31 34 34 37 35 33 33 31 28 32 30 29 32 32 30 24 29 28 24 26 26 25 29 29 31 30 30 31 31 31 32 33 34 32 32 32 32
39 42 44 43 42 40 35 32 28 25 22 23 22 21 29 29 31 33 34 35 34 33 33 32 32 30 30 28 29 29 29 29 30 30 29 27 26 26 28 26 28 30 31 29 27 27 28 28 29 30 28 26 27 27
41 42 44 44 40 34 29 28 29 23 24 26 27 26 27 29 33 33 33 34 34 34 31 31 27 29 25 25 23 16 19 23 30 31 31 30 27 26 26 24 26 25 25 25 26 28 27 27 27 28 28 28 28 28
45 45 45 44 41 31 26 26 30 25 23 26 27 26 27 26 27 30 31 31 31 29 26 26 28 28 27 26 23 23 23 26 26 25 25 24 23 17 20 20 23 23 24 24 25 33 30 27 28 28 28 27 27 27
40 39 40 38 32 30 26 24 24 24 25 24 24 26 24 24 25 25 26 30 27 25 21 24 25 27 21 21 26 26 25 23 23 24 23 16 22 19 18 17 14 23 21 21 22 25 29 28 26 28 30 30 30 28
36 40 34 35 25 22 23 25 22 25 22 22 22 23 20 18 18 20 26 24 25 25 24 23 21 23 21 22 20 19 22 23 22 22 26 24 19 16 17 17 16 11 12 11 17 20 22 24 25 28 30 30 32 29
38 35 28 22 21 19 17 22 18 18 15 15 17 15 15 15 16 24 22 22 23 27 22 21 18 17 22 19 22 22 21 20 19 19 19 19 19 18 15 16 16 8 12 16 18 18 18 25 29 28 28 30 28 28
38 27 22 18 15 14 18 12 19 15 13 15 12 11 12 12 17 17 14 17 24 21 18 17 16 16 15 14 15 18 20 19 17 13 13 12 11 16 19 19 20 18 18 20 17 17 19 21 27 27 26 27 26 27
28 20 19 10 12 9 7 8 7 10 8 9 11 10 9 10 7 7 12 20 20 17 16 17 16 15 18 15 14 15 14 18 16 16 13 14 11 10 11 14 18 19 19 11 16 17 16 16 23 25 25 26 24 24
18 17 20 13 6 10 10 4 5 6 7 5 8 7 5 6 3 10 15 16 12 13 14 17 20 15 12 14 13 11 17 17 15 13 13 15 14 11 5 9 14 14 18 19 13 14 14 14 15 15 19 22 27 28
16 14 20 23 17 16 12 15 16 11 5 7 8 8 6 4 8 17 17 16 16 14 14 19 22 22 22 18 15 13 10 13 14 13 12 11 12 14 13 12 12 16 16 13 12 14 15 16 16 16 17 19 22 24
23 18 15 14 11 10 9 8 7 8 11 17 17 9 11 10 16 18 17 14 11 9 7 11 11 14 15 12 11 13 8 5 5 7 8 10 11 10 11 14 15 22 20 16 16 17 16 16 17 17 17 18 21 22
17 15 16 4 4 5 11 13 12 16 22 17 14 14 14 17 16 13 15 11 5 9 10 10 9 2 3 1 2 4 7 9 10 9 9 14 5 8 6 8 9 9 10 13 21 25 23 21 21 21 20 21 23 25
12 13 9 3 8 10 12 14 9 9 13 13 14 11 12 14 16 8 6 4 9 13 12 9 6 10 9 9 9 5 2 5 9 13 10 11 8 4 1 6 11 13 11 14 15 14 21 19 18 17 19 22 24 22
15 8 5 7 9 3 1 5 6 12 4 1 0 5 9 8 11 11 12 10 8 3 4 3 -1 -2 7 4 4 2 7 4 3 5 5 5 6 9 11 13 14 14 14 16 16 15 14 12 9 13 17 21 21 24
8 7 9 5 3 -0 4 4 3 1 -2 -1 1 -3 1 4 8 14 7 2 4 9 14 13 11 13 8 6 1 2 18 4 4 6 6 9 11 13 14 15 17 16 16 18 16 15 14 12 13 15 18 18 21 21
10 5 2 2 0 1 5 7 4 1 -2 -3 0 -0 -1 5 10 14 6 1 7 10 10 8 4 2 1 1 2 2 12 3 5 20 23 24 25 25 24 23 24 22 20 18 15 15 14 14 15 17 19 21 21 20

GFSWCAN_sfc_temp_054.txt.gz
Temp
54 54 54 53 53 53 53 52 52 52 53 53 53 53 53 52 52 43 38 45 40 37 39 43 44 43 40 39 36 39 38 40 39 36 36 34 32 36 33 36 34 33 28 31 30 28 24 42 43 40 44 42 41 41
54 54 54 53 53 52 52 52 52 52 52 52 52 53 52 52 52 47 35 44 46 37 39 44 44 45 45 43 42 42 40 41 42 37 36 37 33 34 31 32 39 31 34 31 32 32 43 46 44 48 44 43 40 40
53 53 53 53 52 52 51 51 51 52 52 52 52 53 53 53 53 48 41 39 37 36 39 40 40 49 47 46 50 41 43 46 43 45 40 37 31 33 29 30 30 38 41 34 36 44 45 47 47 45 44 43 42 43
53 53 53 52 52 51 51 51 51 51 52 52 52 52 52 52 51 50 41 42 36 37 32 38 50 47 50 49 48 47 46 46 47 45 41 38 36 37 33 35 37 38 41 37 36 43 46 44 45 43 43 43 41 41
53 52 52 52 51 51 51 51 51 51 51 51 52 52 51 51 51 46 42 43 43 35 31 35 44 47 48 49 47 46 47 46 44 41 40 38 42 39 35 34 32 38 41 39 38 43 42 43 43 42 42 41 42 40
52 52 52 51 50 50 50 50 50 51 50 51 51 51 51 50 50 40 34 37 42 40 33 32 45 43 44 47 47 47 47 46 45 43 41 42 46 43 36 35 39 43 40 41 38 40 42 43 42 40 40 41 40 39
52 52 51 51 50 50 50 50 50 50 50 50 50 50 50 50 39 33 35 41 44 42 34 32 38 44 47 47 46 46 47 45 44 43 41 42 42 43 39 32 37 40 43 44 44 40 40 39 40 41 40 38 41 37
51 51 51 50 50 50 50 49 49 49 50 50 50 49 51 49 45 38 43 46 44 38 38 34 37 40 46 42 41 45 43 43 43 42 42 40 42 41 36 41 38 38 38 41 40 41 39 39 38 37 36 36 35 35
51 51 50 49 50 49 49 49 49 49 49 49 48 50 44 41 37 40 48 47 45 40 35 37 33 32 44 43 43 43 43 38 43 39 39 40 38 35 38 37 35 37 34 36 38 37 40 39 38 36 35 34 35 34
50 50 49 49 49 49 49 49 49 49 48 47 44 39 36 41 47 46 42 38 37 39 39 37 40 36 42 42 40 41 41 38 33 38 40 36 36 38 38 38 37 36 36 33 33 33 36 33 37 37 35 36 36 35
50 49 49 48 48 48 47 48 48 47 45 36 36 37 41 45 42 40 37 36 38 34 40 40 38 35 39 36 38 38 35 35 32 34 35 33 33 35 36 32 32 32 34 37 37 36 35 35 36 39 40 40 38 38
49 48 48 48 48 47 47 48 47 39 36 37 37 41 40 39 37 33 33 35 34 33 38 39 38 40 40 41 36 36 34 34 31 37 33 29 34 32 30 30 31 32 36 36 39 38 39 37 38 39 40 41 40 40
49 48 48 48 48 48 46 47 47 45 44 40 37 34 35 35 30 29 29 31 33 35 35 36 35 39 39 40 35 35 33 32 37 32 29 31 32 30 29 30 31 33 34 34 37 38 39 39 42 40 39 39 40 38
48 48 47 47 47 46 46 47 47 44 39 34 32 30 31 30 31 32 26 25 35 35 36 37 36 37 39 35 36 33 34 34 29 27 29 31 30 29 31 32 31 32 33 34 35 36 36 37 38 39 39 39 38 36
47 47 47 46 45 45 45 46 45 38 35 31 30 24 29 32 32 32 33 33 34 36 37 36 34 37 33 33 34 32 30 28 31 29 28 30 27 28 28 30 30 31 31 32 33 33 34 35 36 36 37 36 36 34
47 46 43 45 45 43 43 43 38 35 28 29 28 25 30 31 30 31 32 32 35 37 36 34 33 28 32 29 30 30 29 29 25 27 29 29 26 27 27 28 29 30 30 31 31 32 32 32 32 33 35 34 34 34
44 39 45 44 43 42 43 35 33 27 24 19 19 26 30 27 29 31 34 34 37 35 33 33 30 29 32 30 29 32 30 27 22 29 29 29 26 27 25 28 29 29 30 29 29 30 30 30 31 33 31 32 32 32
39 42 45 43 40 38 34 32 28 25 22 21 22 21 30 32 31 33 34 35 35 32 32 32 33 30 30 28 23 26 22 21 26 30 30 29 26 25 28 26 27 27 27 27 25 25 26 27 27 28 27 27 28 28
41 42 44 42 39 34 29 29 29 23 23 26 26 24 26 28 30 30 33 33 34 34 32 31 29 29 26 25 21 17 15 22 25 27 31 31 30 26 26 22 24 23 22 21 23 24 27 29 26 26 27 28 27 27
45 44 44 42 39 30 26 26 30 25 23 26 28 26 24 24 26 27 31 31 31 29 27 26 27 29 27 27 24 23 23 26 26 24 24 23 22 16 20 19 22 20 20 21 20 27 21 25 26 26 27 28 27 27
40 40 40 37 31 30 27 25 24 25 26 25 25 26 24 24 22 20 25 29 27 26 20 24 25 27 22 21 26 27 26 25 25 26 25 17 21 18 16 15 12 22 19 18 18 19 23 21 22 23 21 27 27 29
37 41 34 35 26 24 24 25 24 26 24 23 23 23 21 20 20 21 24 22 24 26 26 23 20 22 21 23 21 20 24 24 22 23 26 26 19 15 16 16 14 9 8 10 13 16 18 18 21 24 28 29 31 27
39 34 25 22 21 19 16 22 18 18 17 18 18 18 18 17 18 23 20 22 24 28 24 21 17 15 20 19 22 22 22 21 21 21 20 19 18 17 14 15 15 8 9 15 16 15 13 22 23 23 24 26 28 25
37 23 19 16 15 13 17 10 19 15 14 16 13 13 14 14 19 18 15 17 23 21 19 18 17 15 15 15 16 19 19 18 17 13 14 16 14 16 19 18 19 17 17 18 13 14 15 17 22 18 23 26 25 26
23 18 19 9 13 10 9 8 5 11 9 9 9 10 11 12 7 8 12 19 16 13 16 15 15 16 16 13 15 17 16 18 16 17 14 15 13 11 12 14 18 19 19 10 16 15 14 12 14 14 15 16 16 19
20 16 20 19 9 10 9 4 5 8 8 6 8 8 5 6 3 10 14 13 11 9 8 14 17 13 14 16 16 13 17 17 15 13 12 15 16 14 10 12 14 14 15 16 11 12 13 13 13 12 13 15 22 19
13 13 20 23 17 15 11 13 15 9 3 7 7 6 5 5 6 16 16 13 14 11 9 12 19 21 20 17 15 13 10 17 15 14 12 12 12 14 14 13 14 16 15 12 12 13 13 15 14 13 13 13 12 14
21 18 15 13 10 9 8 7 6 7 9 14 14 5 8 12 18 19 18 14 10 6 5 7 9 12 15 13 11 14 8 4 7 8 12 13 12 10 10 13 14 22 19 14 13 14 15 14 14 14 15 14 15 15
17 14 16 3 3 4 10 12 11 14 20 16 13 11 13 16 15 14 13 9 3 8 12 11 10 6 3 2 2 3 6 12 13 13 15 19 7 10 3 6 6 6 8 10 20 23 18 18 19 18 18 17 18 18
13 13 9 2 10 11 13 13 8 5 11 13 13 11 12 12 13 8 7 4 8 14 16 13 9 13 12 12 7 5 2 5 11 16 15 17 13 5 -0 1 6 10 11 9 10 11 20 17 16 12 12 12 15 16
13 7 5 6 8 5 1 3 3 10 2 -1 -2 5 9 7 11 11 12 13 11 2 5 4 0 0 6 6 6 4 9 6 7 10 7 3 2 2 5 8 10 11 11 12 12 12 13 13 10 11 11 9 10 18
6 10 9 4 5 -1 -2 -1 -3 -0 -4 -2 1 -6 0 3 7 15 5 3 2 5 14 12 9 10 9 6 5 7 20 7 4 4 3 4 5 9 11 13 14 13 13 14 15 15 14 12 12 12 12 9 10 15
-1 -3 -4 0 1 -1 1 1 -0 -1 -3 -4 0 -1 -2 4 11 13 6 0 4 5 6 5 4 4 6 7 7 4 11 -1 4 18 23 24 26 24 24 23 20 19 18 18 17 17 14 13 12 12 13 13 16 17

GFSWCAN_sfc_temp_057.txt.gz
Temp
55 55 54 54 53 53 53 53 53 52 52 53 53 53 53 53 52 44 40 43 39 36 38 42 43 42 40 37 34 38 37 38 37 36 36 35 32 35 34 36 33 32 29 30 29 28 22 42 41 40 45 45 43 43
54 55 54 54 53 53 53 52 52 52 52 52 52 52 53 52 52 47 37 44 44 35 37 43 42 45 45 46 40 38 38 38 39 36 36 37 32 35 31 32 39 31 33 30 32 32 43 45 45 49 48 45 44 42
54 54 54 53 53 53 53 52 52 52 52 52 52 52 52 53 53 49 41 40 38 34 34 36 37 47 48 47 49 37 39 43 43 43 38 38 31 33 28 29 31 37 41 35 36 42 42 46 48 47 45 44 45 44
53 53 53 53 53 53 52 52 52 52 52 52 52 52 52 52 52 51 39 41 39 34 30 34 47 43 50 46 45 46 45 44 44 43 41 38 36 36 32 33 33 37 39 40 36 40 44 47 47 47 45 44 44 43
52 52 53 53 53 52 52 51 51 51 51 51 51 52 52 51 51 45 39 40 42 34 30 32 40 46 47 47 47 46 45 45 44 41 40 38 41 39 34 33 31 37 37 37 38 42 40 43 46 46 44 43 44 42
52 52 53 52 52 52 51 51 51 51 51 51 51 51 50 51 50 38 35 36 43 42 31 29 42 44 46 47 46 45 45 44 43 44 42 42 45 42 36 34 39 38 39 40 39 38 39 42 42 41 41 41 41 41
52 52 51 51 52 51 51 50 50 50 50 50 50 50 50 50 39 34 32 41 45 42 33 30 34 44 47 46 46 45 45 44 44 43 41 41 42 43 39 35 38 38 39 39 42 41 38 39 38 38 39 39 40 38
51 51 51 51 51 51 50 50 50 50 50 50 50 50 49 49 45 39 42 46 44 37 35 31 33 40 46 42 41 46 43 44 43 42 42 40 41 41 35 41 37 38 36 37 36 38 39 41 39 38 37 37 36 36
51 51 51 51 51 50 50 50 49 49 49 49 49 49 43 39 36 39 48 46 43 37 33 35 32 33 44 42 43 43 44 38 43 39 39 40 38 35 39 39 39 37 35 34 35 35 38 37 38 39 38 37 35 35
50 50 50 50 50 49 49 49 49 49 48 47 44 39 35 40 48 46 41 36 36 37 37 35 39 36 40 40 38 40 41 38 33 38 40 36 36 38 38 36 37 35 35 32 33 33 32 34 36 37 39 39 38 36
50 50 50 49 48 49 49 48 49 47 45 38 36 36 41 45 42 39 35 34 35 34 38 39 39 37 41 37 38 39 35 35 32 34 35 33 33 35 35 34 34 32 32 33 35 36 37 37 35 35 36 41 40 39
49 49 49 48 48 48 48 48 48 39 37 39 38 41 40 38 36 33 33 34 34 32 37 38 38 40 40 41 35 35 34 34 30 37 33 30 34 32 33 30 30 30 33 35 37 37 38 38 39 36 37 39 41 41
49 48 48 48 48 48 48 48 47 46 44 39 37 33 35 35 30 29 27 31 32 36 36 36 35 39 39 39 35 34 33 32 37 32 31 29 32 31 29 30 30 31 34 34 34 36 37 38 40 39 37 38 39 38
48 48 48 48 48 48 48 48 47 45 38 34 31 28 30 30 31 32 28 31 31 35 36 38 36 37 39 34 36 33 35 34 29 28 28 30 32 29 30 31 32 32 33 33 33 34 35 35 35 37 38 38 38 37
47 47 47 47 48 47 47 47 46 39 35 31 31 25 29 32 32 32 33 33 35 36 37 36 35 37 34 33 34 32 30 28 31 29 26 30 29 28 28 29 29 29 30 31 32 32 33 34 33 35 36 36 36 35
47 46 43 47 46 46 46 43 38 35 29 29 29 26 28 29 30 31 32 33 35 37 36 35 33 27 31 28 30 28 26 23 26 24 25 30 27 27 27 28 28 29 29 30 31 31 31 31 31 32 35 34 34 34
45 39 46 46 45 43 42 35 33 27 26 20 19 27 29 26 22 28 34 34 37 35 32 33 31 31 31 29 27 31 23 25 23 22 26 31 30 26 26 28 29 29 27 27 27 28 29 30 30 30 29 29 29 30
38 42 45 43 40 38 35 31 28 24 19 18 22 23 28 29 28 30 32 34 35 33 32 32 33 30 29 28 24 25 21 17 20 25 26 30 29 26 27 27 27 27 26 25 22 23 23 27 26 26 26 26 27 27
41 43 44 42 38 33 29 28 27 20 22 25 27 27 27 26 29 28 29 32 34 34 31 30 30 28 28 24 22 16 17 20 25 27 27 28 31 29 27 22 23 21 20 18 21 21 23 25 25 25 25 26 26 26
45 44 43 41 39 30 26 25 30 26 22 25 27 25 26 25 25 24 26 28 31 29 26 24 25 28 27 27 24 23 23 26 26 24 24 23 22 16 20 19 22 19 19 19 17 25 17 22 23 23 23 25 28 26
41 40 40 36 31 30 27 25 25 26 26 25 26 27 25 25 21 18 18 25 27 26 20 25 25 28 23 21 26 27 26 25 26 27 26 18 21 19 15 14 11 20 18 17 17 18 21 19 19 20 17 27 29 30
37 40 34 35 25 23 23 25 25 26 25 24 24 24 22 21 21 22 23 21 22 25 27 24 20 21 22 23 22 21 23 25 23 25 28 26 19 15 15 16 13 9 8 10 11 14 16 16 18 20 22 22 27 29
39 34 25 22 19 18 14 21 17 18 18 19 20 20 20 19 19 22 17 19 24 28 26 20 17 15 20 20 23 22 22 21 21 21 22 20 19 16 16 15 15 8 8 14 14 14 12 21 21 20 19 19 25 26
36 23 21 17 14 12 16 8 18 15 15 17 14 14 15 16 19 17 15 20 23 20 19 19 18 16 18 17 18 18 19 19 16 13 13 16 12 15 19 19 20 18 18 17 13 14 14 15 20 15 15 15 16 16
24 19 22 15 14 9 7 6 4 10 9 9 10 12 12 14 12 12 15 20 17 15 16 15 17 16 16 14 15 16 16 19 18 19 14 15 13 12 12 13 18 19 19 11 15 16 14 12 12 12 13 13 13 12
14 17 19 20 16 10 8 4 3 6 7 6 7 7 6 8 9 14 17 18 15 14 13 12 13 12 15 18 18 16 20 19 18 16 14 18 18 14 8 12 11 15 15 17 12 12 12 11 11 9 11 13 20 16
14 13 21 22 16 14 11 12 14 8 2 7 7 6 6 7 9 18 18 16 16 15 12 10 15 20 20 18 18 16 13 19 18 17 14 15 16 17 18 16 15 17 16 14 11 12 11 11 11 11 11 11 9 11
22 17 16 13 10 8 7 6 4 6 8 13 13 6 9 13 18 20 19 16 12 6 5 7 11 14 15 15 12 13 7 4 4 7 10 11 9 8 7 12 12 22 17 14 13 10 12 13 13 12 12 12 13 13
22 19 15 3 4 4 8 11 11 13 19 15 13 10 12 16 13 12 13 8 1 4 8 9 9 3 4 3 3 3 5 13 15 14 14 17 10 13 3 4 6 5 5 6 19 22 15 14 16 16 16 16 16 15
17 16 9 0 7 10 13 12 7 4 10 12 13 11 11 11 12 6 5 3 8 14 16 12 9 11 14 12 11 9 6 8 13 19 18 19 15 5 -2 0 1 2 3 4 7 9 19 16 15 13 13 12 12 12
13 9 5 5 8 6 1 1 1 9 1 -2 -4 4 9 6 10 11 12 15 18 3 5 7 2 2 10 9 11 8 14 9 10 9 6 3 0 0 2 3 5 6 6 6 8 10 11 11 10 11 11 9 8 15
6 8 8 4 6 -2 -4 -2 -4 -1 -5 -3 1 -8 -1 2 6 15 5 1 2 6 13 12 11 14 10 6 5 5 19 4 3 5 4 4 2 4 6 8 8 8 9 11 12 13 12 11 12 12 12 9 9 10
-1 -3 -7 -2 0 1 -0 1 -1 -1 -4 -4 1 0 -1 5 12 14 3 -1 3 4 5 7 4 2 3 5 6 3 12 1 3 17 21 23 25 22 20 18 16 14 12 13 14 15 13 13 13 12 11 11 12 13

GFSWCAN_sfc_temp_060.txt.gz
Temp
55 55 55 54 55 54 54 54 54 53 52 52 52 53 53 53 52 49 46 48 43 38 40 44 46 44 44 45 43 46 46 46 45 41 41 40 39 40 38 41 38 37 34 32 34 31 29 50 48 43 49 52 53 52
55 55 54 54 54 54 54 54 53 53 52 52 52 52 53 53 53 50 43 48 48 39 39 45 46 48 47 46 42 46 45 46 50 45 45 44 40 39 40 34 44 37 44 41 41 42 51 52 50 54 52 53 53 52
54 55 54 54 54 54 53 53 53 52 52 52 52 52 53 52 53 50 46 44 40 35 38 38 39 47 50 47 50 41 47 49 49 52 48 46 40 44 37 40 42 46 48 44 43 50 51 53 54 52 52 52 53 52
54 54 54 53 53 52 53 53 53 52 52 52 52 52 52 52 52 51 45 45 41 37 30 36 50 44 52 50 48 48 50 51 51 51 48 46 43 46 43 43 42 48 47 46 46 49 51 54 54 51 51 52 51 51
54 53 53 53 53 53 53 53 52 52 52 51 51 51 51 52 52 49 46 46 47 38 31 34 43 48 49 48 45 46 48 48 48 47 46 44 46 44 45 42 40 47 47 45 45 53 52 52 49 46 49 50 51 50
53 53 53 53 52 53 53 52 52 52 51 51 51 51 51 51 49 45 37 43 46 45 33 27 44 43 48 47 45 45 47 48 49 49 46 48 50 48 40 38 48 48 48 49 50 48 48 50 49 47 46 48 49 49
53 53 53 52 52 52 51 52 52 51 50 50 50 50 50 50 45 39 39 44 45 44 34 30 33 42 47 46 46 45 46 46 48 48 46 46 46 47 41 36 49 48 48 47 48 47 47 47 47 48 46 46 46 47
52 53 53 52 52 51 51 51 51 50 50 50 50 50 50 49 47 40 46 47 46 38 36 30 32 39 46 38 41 46 44 45 45 46 43 43 45 43 36 44 47 45 45 44 43 43 44 45 44 45 46 45 44 45
51 52 52 51 51 51 51 51 50 50 49 50 49 49 46 43 39 42 47 47 45 39 32 33 32 33 44 44 43 44 44 39 43 40 41 41 39 35 41 44 44 45 42 41 40 41 42 42 42 43 43 42 42 45
50 51 51 51 51 50 50 50 50 49 49 48 46 40 35 41 47 46 40 35 35 36 34 32 39 35 41 42 41 42 44 39 34 39 41 37 36 41 40 40 40 39 39 38 37 37 37 36 38 41 42 43 43 42
50 50 51 50 50 50 49 49 49 49 47 41 38 37 41 45 42 39 34 32 34 32 36 38 40 38 44 38 38 42 34 35 33 35 36 34 34 37 38 36 36 36 36 38 39 39 40 40 39 40 42 43 44 44
50 50 50 50 49 49 48 49 49 42 40 41 41 42 40 38 35 32 33 35 34 33 39 39 41 41 41 42 39 38 36 35 32 37 34 32 38 35 36 34 35 37 37 37 38 37 38 38 39 39 41 42 44 45
50 50 50 49 48 48 48 49 47 46 44 42 38 33 34 34 30 30 29 31 32 36 38 38 37 40 41 43 37 38 33 33 38 33 33 36 35 34 34 35 35 36 35 35 35 35 36 37 38 38 38 41 43 43
50 49 48 47 48 48 48 48 47 45 40 35 32 29 30 30 33 34 34 34 36 37 37 39 37 38 41 37 39 33 35 35 31 30 32 37 35 35 35 35 36 34 36 35 35 36 36 36 35 37 37 38 39 40
48 48 47 47 48 48 48 47 47 42 37 32 32 28 30 35 33 34 34 35 36 38 38 38 35 38 35 34 36 33 31 30 33 34 36 35 34 33 34 34 34 34 34 35 35 35 35 36 36 37 38 38 36 35
47 46 43 47 47 46 45 44 41 38 32 31 30 28 31 31 32 33 33 34 37 39 38 37 34 32 32 34 31 30 29 29 36 35 36 35 34 34 34 33 33 33 34 34 34 34 34 34 33 34 37 36 35 36
44 40 46 46 46 45 44 38 36 31 30 25 25 31 30 30 31 33 35 36 39 36 33 33 31 32 34 30 29 33 32 36 36 35 35 35 33 34 34 34 33 33 32 32 32 32 32 33 33 33 31 32 33 34
40 44 46 43 40 38 35 34 30 28 24 25 26 28 31 33 32 34 34 36 36 34 33 32 33 32 31 30 32 36 35 32 31 34 35 35 34 32 32 33 32 32 31 30 28 29 29 30 30 30 29 30 31 33
43 42 43 43 39 35 30 30 31 23 24 28 30 30 31 31 32 33 33 35 35 35 34 32 31 30 34 35 35 33 31 33 36 34 35 35 35 33 32 30 29 28 27 27 29 30 30 29 29 29 29 30 30 31
44 44 43 42 40 32 27 26 31 27 24 28 29 28 29 29 29 29 31 32 32 32 30 28 30 35 36 37 35 36 34 34 34 32 31 31 31 27 28 29 30 28 28 26 26 28 29 29 29 28 28 29 29 29
41 40 40 37 33 32 28 26 26 27 27 26 27 29 27 27 26 26 27 29 29 28 26 30 33 35 31 31 32 33 33 33 34 37 36 32 30 30 28 26 25 25 28 28 28 28 27 27 27 27 26 29 30 31
37 40 34 34 28 26 25 25 26 27 26 25 26 26 24 23 24 25 26 26 26 29 30 31 31 30 29 30 30 29 31 31 30 32 32 31 27 25 25 26 24 25 25 25 25 26 26 26 26 27 27 27 29 29
39 35 28 24 21 20 17 23 21 21 22 22 23 22 22 22 22 25 22 24 26 30 29 27 26 23 26 26 26 27 27 28 29 29 30 29 27 26 26 26 26 23 23 25 25 25 25 26 26 26 26 26 26 27
36 25 22 20 17 13 18 13 20 18 19 20 19 19 19 19 21 20 19 23 27 28 26 27 23 24 23 22 25 27 27 27 27 25 26 26 25 25 25 26 27 25 25 26 24 24 24 23 25 24 23 22 22 22
26 20 23 18 16 12 9 9 9 14 12 12 14 16 16 17 17 17 20 25 25 25 26 23 23 24 25 25 25 25 22 26 26 26 25 24 24 22 22 22 24 26 25 22 22 22 22 21 21 21 21 20 19 19
17 19 20 21 17 14 12 9 7 10 10 8 11 12 12 15 15 19 22 25 25 25 25 24 23 22 22 23 26 25 26 24 26 26 27 23 25 25 24 23 24 25 23 24 22 21 21 20 19 18 19 19 21 19
19 18 22 23 18 16 14 15 16 13 6 10 12 11 12 11 14 22 24 24 25 25 23 23 23 24 26 25 24 24 22 23 23 25 22 24 25 26 25 24 23 26 23 22 21 21 21 20 19 19 18 19 18 17
23 18 15 15 14 12 11 9 8 9 13 16 16 9 12 15 22 24 24 23 21 18 18 17 17 18 21 23 23 21 17 16 14 17 20 21 19 19 18 20 20 25 20 21 21 20 19 18 18 17 17 16 17 19
23 21 18 8 6 7 10 14 14 17 20 17 16 15 16 19 19 19 20 17 11 15 18 20 21 13 13 13 12 14 16 17 18 17 19 24 23 24 18 16 15 16 16 17 22 23 18 17 18 18 18 18 19 19
21 16 10 2 7 12 17 15 13 10 14 16 16 15 16 17 18 14 13 12 15 20 23 21 18 15 19 17 19 16 12 15 21 25 24 25 24 19 14 14 14 14 13 14 15 15 19 19 18 16 16 16 17 17
13 11 8 6 9 10 4 3 5 11 7 6 3 11 15 13 14 16 16 20 22 14 13 17 14 11 16 15 16 18 20 17 15 16 15 14 13 14 13 13 14 14 13 13 13 13 13 13 13 13 14 13 12 17
9 9 11 7 9 3 1 0 -0 3 2 2 8 -1 5 7 10 19 15 9 9 12 19 19 14 19 15 17 15 17 21 15 12 12 10 14 14 13 13 13 11 11 12 11 12 12 12 12 13 13 14 12 12 12
3 1 -4 1 3 4 2 4 2 2 -0 1 6 5 4 9 14 19 8 5 10 11 12 12 12 11 8 8 11 12 15 9 8 18 19 20 21 20 17 15 15 14 13 13 14 14 13 13 13 14 14 14 13 13

GFSWCAN_sfc_temp_063.txt.gz
Temp
56 56 55 55 55 54 55 54 54 54 54 53 53 53 53 53 53 51 50 52 46 42 44 47 48 44 43 45 43 48 47 48 47 41 41 40 41 44 42 46 42 39 37 35 37 31 30 53 49 45 49 55 55 55
56 56 55 55 55 54 54 54 54 54 53 52 52 52 52 53 52 52 45 52 52 41 43 49 48 50 49 46 40 48 48 50 52 47 48 47 43 44 44 37 49 39 46 43 42 43 53 55 54 57 56 54 55 54
55 55 55 55 54 54 54 54 54 53 53 52 52 52 53 53 52 52 48 46 43 38 41 43 42 50 53 50 49 38 50 53 52 56 52 50 43 48 40 42 45 49 54 46 46 52 53 55 57 56 55 53 55 55
54 55 55 55 54 54 54 54 53 53 53 53 53 53 52 52 52 52 47 48 44 40 31 40 53 47 54 53 50 46 45 51 52 53 49 48 45 51 46 45 46 49 51 48 48 53 55 56 58 57 53 55 54 55
52 53 54 54 54 53 53 53 53 53 53 53 52 52 52 52 52 50 49 50 49 38 33 36 45 49 51 51 48 45 44 44 45 46 47 46 51 49 50 47 45 53 49 46 46 55 55 54 55 52 52 53 53 53
52 52 53 54 54 53 53 52 53 52 52 52 51 51 51 51 50 48 41 48 49 46 35 30 46 46 50 51 47 44 42 43 45 48 48 51 55 50 43 41 52 55 57 55 52 53 53 53 51 50 50 50 51 51
51 52 52 53 53 53 53 52 52 52 52 51 51 50 50 50 49 41 41 44 47 45 35 31 33 41 48 47 46 44 44 44 46 48 47 48 49 49 45 40 51 55 54 53 53 51 49 52 51 51 51 51 50 50
51 51 51 52 52 53 53 52 51 51 51 51 50 50 50 50 49 42 49 47 47 39 37 29 32 35 46 40 40 47 42 43 45 46 47 46 48 47 39 48 52 55 52 50 50 49 49 49 49 49 49 49 47 48
50 50 50 51 51 52 52 51 51 50 50 50 50 49 48 45 41 45 49 48 46 41 32 32 31 32 45 40 42 44 45 36 44 42 44 44 39 36 44 47 49 50 47 47 45 44 44 44 46 46 46 47 45 47
49 49 50 50 50 51 52 51 50 49 49 49 47 42 36 44 47 46 40 36 35 35 34 30 36 34 40 39 39 40 42 39 34 40 43 38 37 47 47 45 45 47 45 42 41 41 40 38 40 44 45 47 47 46
49 49 49 50 50 50 51 50 49 48 47 41 39 38 42 47 41 38 33 31 32 31 34 35 37 35 42 39 38 41 36 37 33 36 36 34 34 40 40 38 38 38 38 39 41 42 42 42 41 41 42 44 46 47
49 49 49 49 50 50 51 49 48 44 42 42 43 43 40 38 35 32 32 34 32 33 39 39 42 40 41 44 38 40 35 35 32 38 34 32 39 38 39 37 37 40 41 40 40 39 38 38 39 39 39 40 44 46
49 49 49 50 50 50 49 48 47 46 45 44 39 33 34 34 29 29 29 32 33 38 41 40 38 40 40 42 38 37 33 33 38 33 33 38 37 37 38 38 38 38 36 35 35 36 35 36 38 37 37 39 40 44
49 49 50 49 50 50 48 48 46 44 41 35 32 29 30 31 32 35 37 38 39 39 39 40 39 38 42 37 39 33 36 35 31 30 33 42 38 38 38 39 36 34 36 37 37 38 38 37 36 36 35 37 37 38
49 50 49 49 48 47 47 46 46 43 39 33 33 28 31 36 35 34 35 37 38 41 39 38 36 40 36 34 37 34 31 30 34 35 39 39 37 37 37 38 36 38 38 38 38 38 38 38 38 39 40 39 39 36
49 49 45 47 47 47 46 44 41 40 34 33 31 30 35 31 33 34 34 34 39 40 38 38 34 33 33 35 32 31 31 31 37 39 39 38 37 38 38 37 37 38 38 37 37 37 37 36 36 36 39 37 37 37
45 40 46 46 46 44 43 38 36 32 32 29 28 34 33 32 32 35 36 36 39 38 34 33 31 32 35 32 30 34 33 39 40 39 40 39 37 38 38 37 36 36 36 36 36 36 35 35 36 36 33 33 34 35
40 44 46 44 41 39 36 35 33 31 27 29 28 33 34 35 33 35 35 35 35 34 34 32 34 31 31 30 34 40 41 37 37 39 39 39 39 37 36 37 36 35 35 34 31 31 32 32 34 33 32 31 32 33
43 43 43 44 42 37 33 32 33 28 28 31 33 34 34 35 35 35 37 35 34 35 34 33 32 31 35 40 38 37 37 39 41 38 40 41 41 38 36 32 32 31 30 31 33 34 33 32 32 31 31 32 31 32
44 44 43 43 43 35 30 29 33 30 27 31 32 31 32 32 33 33 35 35 34 33 32 30 32 39 41 40 39 39 39 40 39 36 36 36 38 32 32 32 34 33 33 31 29 30 32 32 32 31 30 30 30 31
40 39 40 40 36 34 31 29 29 30 30 29 30 31 30 31 30 30 31 32 31 31 31 36 37 40 36 37 37 37 38 39 40 41 41 37 36 35 33 32 31 31 32 33 32 33 30 30 31 30 28 30 31 32
37 41 36 37 31 29 28 28 28 30 29 28 28 29 27 26 27 28 28 28 30 33 36 36 37 36 35 34 36 34 36 35 36 36 36 36 32 31 31 32 29 29 29 31 31 30 31 31 30 29 29 30 31 30
40 37 33 31 26 27 21 28 25 25 24 25 26 25 25 25 25 27 24 28 30 33 34 32 31 29 29 32 30 32 32 31 34 35 36 36 35 32 32 31 31 29 28 29 30 29 29 29 30 28 29 28 28 28
38 29 26 23 25 19 24 20 24 23 24 23 23 22 22 23 24 23 22 26 31 32 30 29 29 28 28 24 27 31 32 32 33 34 34 33 31 31 31 31 30 30 30 30 28 28 28 27 28 27 26 25 25 24
29 23 26 20 21 20 19 19 18 21 19 19 19 20 20 20 21 21 23 29 30 30 31 30 28 28 27 29 30 30 27 30 31 31 33 32 32 28 27 28 30 31 30 26 26 26 26 25 24 24 24 23 22 21
20 22 22 23 21 21 21 18 17 18 18 16 18 17 18 20 18 21 27 30 30 31 31 30 29 28 28 28 28 30 31 29 30 30 32 29 30 30 29 27 27 29 29 28 27 26 25 24 23 21 22 22 24 23
21 21 24 25 24 21 20 21 22 21 16 15 19 16 17 14 19 27 30 31 31 31 30 30 29 29 31 30 30 30 28 27 28 27 26 29 30 32 31 29 27 29 27 26 25 25 24 23 22 22 21 22 21 20
26 23 19 21 19 19 17 19 18 16 22 23 22 14 15 19 25 30 30 29 29 26 26 26 25 25 26 28 28 27 25 23 21 22 25 26 25 26 25 26 25 28 25 24 24 23 23 22 21 21 20 19 19 21
24 23 22 9 13 17 18 21 22 25 27 24 23 23 23 25 28 28 27 25 21 23 25 27 28 22 21 21 20 21 24 22 22 21 21 26 28 27 24 23 22 22 23 23 26 26 20 20 20 20 20 20 21 21
22 25 19 12 11 18 24 23 23 19 21 22 21 22 23 24 26 25 23 21 21 24 28 30 29 23 25 24 25 23 20 21 23 27 27 27 29 25 21 20 19 19 19 19 19 19 23 22 20 18 17 18 18 18
20 20 18 18 18 23 17 12 13 16 17 17 15 17 23 22 22 24 24 27 28 27 26 25 25 22 22 22 23 24 24 23 20 22 24 22 21 21 20 20 20 20 18 17 17 17 16 16 15 15 14 14 13 17
18 17 17 12 19 15 11 13 15 15 16 13 17 14 15 15 17 26 27 22 22 22 26 27 23 26 22 23 23 24 27 21 19 18 16 21 20 19 18 17 16 16 16 15 15 15 13 12 13 14 14 13 13 13
13 13 10 13 15 17 13 13 15 14 12 13 15 16 16 17 18 26 18 14 18 19 19 19 18 17 14 13 16 18 21 16 15 20 21 21 21 20 17 17 17 16 15 15 15 15 13 13 14 13 13 13 13 13

GFSWCAN_sfc_temp_066.txt.gz
Temp
57 56 56 56 56 56 56 55 55 55 54 54 53 53 53 53 53 49 46 49 42 38 40 45 45 40 41 41 38 42 43 44 41 38 37 37 37 40 36 39 38 36 31 30 33 29 24 47 45 40 45 49 50 48
57 56 56 55 55 55 55 55 55 54 54 54 53 53 52 53 53 52 43 50 50 39 39 46 46 47 46 45 37 39 40 43 45 39 40 40 37 37 37 35 42 35 39 35 36 34 47 49 47 50 50 50 48 47
55 55 56 56 55 55 55 55 54 54 54 54 53 53 53 53 53 51 45 46 43 37 38 39 41 48 51 49 49 36 41 48 46 46 42 44 37 40 36 39 41 44 47 40 40 45 46 49 50 49 48 48 52 51
52 53 54 55 55 55 54 54 54 54 54 54 53 53 53 52 53 52 44 46 42 38 30 36 50 46 51 50 48 46 45 45 44 45 41 40 39 44 38 42 38 43 44 42 40 45 46 48 50 49 48 49 49 50
52 52 53 53 53 54 55 54 54 53 53 53 53 53 52 52 52 49 46 47 46 38 30 33 42 46 49 48 46 46 43 40 36 39 40 39 44 42 41 39 36 43 41 38 37 46 46 43 46 47 47 46 47 46
51 52 52 52 52 53 54 54 53 53 52 52 52 51 51 51 51 45 37 44 47 44 34 27 41 42 46 47 43 43 41 40 37 40 42 44 49 44 35 36 45 47 49 49 43 46 46 47 46 44 44 44 45 45
51 51 51 52 52 52 52 53 53 53 52 51 50 50 50 51 46 39 37 42 46 43 34 27 30 41 44 46 39 39 42 39 38 39 42 43 44 45 39 35 45 47 46 46 47 45 42 47 44 45 45 46 47 44
50 51 51 51 51 51 51 52 52 53 52 51 50 50 50 50 48 41 46 47 45 38 36 26 27 35 43 38 36 43 39 40 39 41 44 42 44 42 36 43 46 48 47 45 45 43 42 43 43 43 43 43 41 42
49 50 50 50 50 51 51 51 51 53 51 50 48 49 46 42 38 41 50 48 44 39 31 31 28 29 43 40 41 39 42 34 41 39 41 41 39 36 41 43 44 44 43 42 42 41 40 40 40 40 40 40 40 40
49 49 49 49 50 50 50 50 51 52 49 48 45 40 35 42 47 46 40 36 34 35 35 29 36 31 39 39 36 37 39 35 32 37 41 37 36 43 45 41 39 40 41 40 37 35 36 34 37 37 39 40 40 40
49 49 49 49 49 49 50 50 51 49 46 40 36 36 42 46 40 37 32 31 31 29 32 33 34 33 41 34 34 40 34 35 32 34 35 33 33 38 36 34 35 38 39 39 40 40 41 40 37 37 37 39 40 42
49 49 49 49 49 49 50 50 49 42 40 41 41 43 41 37 34 31 31 32 30 29 35 34 38 38 40 42 37 38 33 33 31 38 34 31 37 35 35 34 36 39 40 40 39 37 37 37 38 38 38 39 40 41
48 48 49 49 49 50 50 50 48 46 44 42 38 33 33 33 28 27 25 30 31 36 37 37 36 39 40 41 37 36 33 32 37 32 31 33 34 35 35 37 35 36 36 36 35 36 36 35 37 36 36 37 38 39
49 49 49 49 49 50 50 48 46 44 39 33 31 27 29 29 30 32 31 33 36 37 37 39 36 37 40 36 37 31 34 34 29 28 28 33 34 34 35 36 35 34 35 34 36 37 37 38 37 37 36 36 36 36
49 49 48 49 49 49 47 46 45 42 37 31 32 27 29 32 34 33 34 34 37 38 38 37 35 38 34 33 34 31 30 28 31 30 30 31 33 33 34 35 35 36 37 36 37 36 36 36 35 36 36 36 35 35
50 49 47 49 50 49 46 43 39 39 33 32 32 29 32 30 31 32 32 33 37 39 37 36 33 32 32 32 30 29 29 27 28 30 30 31 32 33 33 34 35 35 34 34 34 34 34 32 31 32 34 32 32 33
49 41 47 49 47 44 43 36 35 32 32 30 28 33 32 31 31 33 35 35 37 36 32 32 31 30 32 30 29 32 26 30 31 28 29 32 34 33 32 32 32 33 33 32 32 31 31 31 31 30 27 27 28 30
41 45 45 44 41 39 35 34 32 29 24 26 25 29 32 34 33 34 35 34 34 32 32 32 33 30 29 28 27 29 28 28 27 29 29 32 32 31 32 31 32 31 30 29 26 24 24 24 27 26 24 23 24 25
42 42 44 45 42 36 32 31 32 24 24 29 30 31 31 33 33 32 34 35 34 34 32 32 31 30 30 30 29 31 26 27 29 30 32 34 33 31 31 27 27 25 24 23 26 26 26 26 25 25 25 25 24 25
45 44 44 44 43 34 29 28 31 27 22 27 30 30 31 31 30 28 30 32 32 32 31 30 31 33 33 31 28 27 28 31 31 28 29 29 30 23 26 25 26 26 25 23 21 27 20 24 26 26 25 24 24 24
40 40 42 39 34 33 30 29 28 28 28 28 28 29 29 29 29 29 30 30 27 24 24 27 32 35 31 29 31 31 31 31 30 31 30 25 28 25 23 22 21 26 25 24 23 23 28 24 23 21 15 24 26 26
37 41 35 36 30 27 25 26 27 29 28 27 27 27 26 25 26 26 26 26 25 28 29 30 27 27 26 28 27 26 28 29 30 29 34 33 25 22 22 23 23 19 19 18 18 19 20 20 21 21 21 20 24 22
40 37 32 30 23 22 17 24 20 19 23 22 18 18 15 15 16 21 17 23 26 29 29 26 23 22 22 23 25 26 27 23 25 27 28 27 27 23 22 24 24 20 18 19 19 19 17 26 24 22 20 20 20 20
38 29 26 21 21 14 21 14 22 18 17 16 14 14 16 18 20 19 17 22 27 28 27 25 22 20 20 17 18 21 23 23 23 22 21 21 19 21 25 24 25 23 21 20 18 17 17 18 25 19 18 17 16 15
26 22 22 16 17 14 11 11 10 14 11 12 11 11 13 15 16 19 21 26 27 27 28 26 25 25 20 18 20 21 22 22 20 20 20 21 19 17 17 20 24 23 22 16 18 18 16 16 16 16 16 16 14 13
17 21 19 18 15 14 13 7 7 8 10 5 9 10 11 13 11 14 21 24 24 26 26 25 25 24 23 24 22 22 23 23 23 22 23 24 24 22 18 16 15 19 23 22 18 19 17 17 16 14 14 17 24 18
19 20 23 25 20 19 15 17 18 13 5 5 8 7 8 6 9 19 21 21 22 23 24 24 24 25 25 25 25 24 22 22 23 22 20 20 21 21 22 22 20 22 20 20 20 19 17 17 16 15 14 11 12 12
23 19 12 15 14 14 11 11 8 7 11 17 16 4 6 13 18 21 20 19 19 17 18 19 21 22 23 24 23 22 20 19 17 17 20 21 22 20 19 18 19 30 16 17 16 15 16 16 14 12 11 11 10 10
17 20 18 6 7 10 10 11 11 16 21 16 12 12 13 18 17 17 19 16 13 14 15 18 22 20 19 14 15 16 17 17 16 17 17 20 16 21 18 18 17 15 15 14 28 21 13 11 11 12 11 13 14 13
14 18 12 5 8 11 13 14 12 10 15 15 16 14 14 15 18 16 13 11 12 17 22 23 24 18 20 16 17 15 17 19 21 23 22 22 21 14 10 11 12 9 9 10 10 10 24 16 16 11 10 8 7 8
17 15 11 11 10 12 6 6 7 12 9 6 7 8 12 12 15 15 18 22 24 22 14 22 24 14 15 14 15 13 18 16 18 20 20 12 11 10 9 10 10 10 9 8 7 7 6 6 5 5 5 5 6 14
14 8 9 8 9 7 4 4 3 4 5 3 5 3 4 5 8 16 17 15 12 16 25 25 13 19 14 13 11 12 27 11 10 10 10 11 11 10 9 8 7 7 7 6 6 5 5 4 4 5 8 7 7 6
6 4 3 4 5 6 6 5 4 4 2 1 6 8 6 9 13 19 9 6 12 11 7 6 4 5 4 5 5 7 16 5 11 22 23 23 23 16 8 7 8 8 7 7 6 6 6 6 7 7 8 8 8 8

GFSWCAN_sfc_temp_069.txt.gz
Temp
56 56 56 56 56 56 56 56 55 55 55 54 54 53 53 52 52 44 40 45 38 31 34 40 41 34 34 34 32 38 39 41 39 35 34 34 34 39 33 35 33 32 33 28 29 28 23 44 43 39 44 46 47 47
56 57 56 56 56 56 55 55 55 54 54 54 54 53 53 53 52 51 41 49 48 38 34 42 44 44 42 40 35 36 37 37 43 38 36 36 34 33 32 29 37 31 36 33 33 33 43 45 44 47 48 50 48 46
56 56 56 56 56 55 55 55 54 54 54 54 54 54 53 53 53 50 40 44 42 37 36 34 34 43 47 46 46 32 37 43 40 40 39 38 35 36 30 33 40 43 43 37 38 42 44 46 46 47 48 46 48 49
54 54 54 54 54 55 56 55 55 54 54 54 54 54 53 53 53 52 41 45 42 38 31 32 45 40 46 46 44 44 43 44 42 35 34 38 37 41 35 38 37 40 41 38 37 42 44 46 46 47 46 47 47 47
52 52 53 53 53 53 53 53 54 55 54 54 54 53 53 52 52 47 42 43 45 37 28 31 40 43 44 44 43 42 41 39 36 32 34 38 41 41 38 37 34 40 39 36 35 43 43 42 43 46 45 45 45 44
51 51 52 52 52 52 52 52 52 53 54 53 52 52 51 50 51 41 35 39 43 43 34 27 36 37 41 42 41 41 41 39 36 33 34 41 46 43 34 32 42 43 44 45 42 43 44 45 44 44 44 43 43 42
51 51 51 51 51 51 52 52 52 52 52 53 52 51 50 50 45 37 36 41 45 40 33 27 24 36 41 43 38 38 40 37 37 35 34 35 39 43 37 33 44 45 46 44 45 44 41 43 42 43 44 44 45 42
50 50 50 50 51 51 51 51 51 51 51 53 51 50 49 50 48 41 45 48 42 36 34 27 23 29 42 36 30 37 35 36 37 36 39 39 43 41 36 40 45 45 43 42 42 42 42 42 42 41 41 42 39 40
49 49 50 50 50 50 50 50 51 51 51 52 50 48 45 42 35 37 49 48 42 38 30 29 19 19 41 38 37 34 38 31 37 34 36 40 37 34 38 42 44 41 42 42 39 40 40 39 39 38 38 38 37 38
49 49 49 49 49 49 50 50 50 50 51 49 43 37 34 38 47 45 40 35 35 35 34 29 30 25 35 37 35 35 36 34 30 35 41 37 35 42 44 43 39 39 41 39 37 34 34 32 36 35 36 38 38 37
49 49 49 49 49 49 49 50 50 49 46 39 36 35 41 46 40 36 32 31 31 28 31 32 33 28 39 34 34 36 33 34 31 34 35 33 33 37 35 33 34 35 37 37 39 40 39 40 38 35 35 36 38 40
49 49 49 49 49 49 50 50 50 42 39 39 39 42 41 36 33 30 30 31 29 27 33 32 34 34 37 41 36 37 32 33 30 38 34 31 35 32 32 32 34 37 37 37 39 38 37 38 38 38 38 38 39 40
48 48 49 49 49 49 50 49 49 46 44 40 36 32 33 32 26 26 17 28 30 34 36 36 35 39 40 40 37 35 32 31 37 32 30 34 33 33 33 34 33 35 36 36 36 36 36 36 38 37 36 37 37 38
48 48 48 49 49 49 49 50 48 45 37 31 31 26 28 26 29 28 30 33 36 36 37 38 35 35 38 36 36 29 35 34 29 27 27 33 33 33 34 35 35 34 35 35 34 34 34 34 35 36 37 37 36 36
48 48 48 48 49 49 49 48 47 41 35 29 30 22 24 29 33 33 33 33 35 37 37 37 34 36 33 32 33 31 29 26 30 29 30 30 32 32 32 33 35 34 34 35 36 36 36 36 35 34 34 34 33 33
48 48 46 49 49 49 48 45 40 38 32 32 31 28 29 27 27 32 32 32 37 38 37 36 32 32 32 32 28 27 25 26 28 31 30 29 31 31 31 33 36 35 34 34 34 34 33 32 31 31 31 30 30 30
49 44 49 49 48 46 45 36 35 32 30 29 23 31 28 27 28 31 35 35 37 35 32 32 30 28 32 28 27 30 28 28 33 30 26 30 32 31 31 32 32 33 32 32 31 31 30 30 30 28 27 27 26 27
42 45 49 48 43 40 35 33 31 28 23 23 24 25 31 32 30 33 34 35 33 32 32 32 32 26 28 27 28 30 30 30 24 25 27 29 30 29 31 30 31 32 31 30 27 23 23 22 26 25 22 21 22 23
44 46 48 45 42 35 31 31 31 23 21 24 27 27 28 30 33 33 32 35 34 34 32 32 31 22 27 32 32 32 30 26 29 30 30 31 31 30 30 25 26 24 23 22 25 25 25 25 25 24 24 24 23 24
45 45 44 45 42 32 27 25 30 21 18 24 25 25 25 27 30 26 26 31 32 31 30 29 28 29 30 32 32 31 29 29 29 28 29 28 28 21 25 25 27 25 24 22 19 26 19 23 24 24 23 23 23 23
40 40 41 38 33 31 27 28 27 27 27 25 25 28 26 28 27 28 28 29 25 23 22 27 30 32 28 29 31 31 31 31 30 29 29 24 27 24 21 21 19 24 24 23 23 23 28 23 22 20 11 23 25 25
36 41 34 35 29 27 24 26 26 28 27 26 26 26 24 23 24 25 24 24 26 23 26 30 27 26 25 28 26 25 28 29 28 28 34 32 25 21 21 22 21 21 20 20 20 20 20 19 19 19 19 19 23 21
38 35 31 30 25 23 20 24 19 23 22 22 17 20 12 9 11 14 16 15 21 22 23 24 23 21 22 22 23 24 24 22 24 25 26 26 25 22 20 22 23 21 19 20 19 18 15 25 24 21 18 19 18 18
38 28 25 23 23 18 21 13 20 14 12 14 8 9 8 8 10 9 10 16 23 23 24 24 21 22 21 18 16 18 21 22 22 18 18 19 18 21 24 24 25 23 23 19 18 17 15 18 25 18 15 15 14 14
27 23 23 17 17 17 13 10 7 10 6 4 5 6 7 8 8 8 13 21 24 24 25 25 25 25 23 21 22 21 19 20 18 18 19 18 16 15 16 18 23 23 21 16 17 17 15 14 15 15 15 15 14 12
19 21 19 17 15 16 14 10 6 7 5 2 3 4 3 6 5 10 15 18 19 22 22 23 24 23 23 25 24 23 25 22 21 19 22 21 22 22 19 17 16 21 21 23 17 18 18 16 15 14 15 17 25 18
18 19 23 25 20 19 15 16 17 10 2 4 2 3 2 4 4 16 19 17 19 18 20 21 22 23 24 24 25 25 23 23 24 23 20 18 18 22 23 21 21 24 20 20 20 19 19 17 16 16 15 9 10 12
22 19 14 13 13 11 10 8 6 7 8 13 13 3 5 10 15 18 18 16 14 12 13 14 18 21 22 22 19 20 18 16 15 16 19 22 22 22 22 24 23 30 20 19 19 17 17 18 16 14 12 11 9 7
15 18 17 8 7 8 9 11 10 13 19 14 10 9 10 16 14 13 17 13 7 10 13 18 22 14 16 11 12 13 14 15 17 18 19 21 18 23 18 20 21 18 14 16 30 21 13 11 11 12 11 10 10 7
14 15 12 4 9 11 11 11 9 6 12 14 15 12 13 13 16 12 10 7 11 17 23 21 16 12 21 12 15 12 14 18 20 22 21 23 22 15 9 11 14 14 13 14 13 11 25 16 15 13 14 8 5 4
13 8 6 5 7 5 4 4 2 10 5 2 1 7 11 10 13 14 19 24 25 22 8 18 21 15 16 12 9 9 16 14 17 19 20 12 11 10 9 7 7 9 10 10 8 8 7 5 3 3 3 1 4 10
11 4 7 10 9 4 0 -0 -3 -1 -3 -2 3 -4 2 3 6 15 10 8 8 14 23 23 15 23 11 12 8 10 27 10 8 9 9 9 10 9 9 7 5 7 7 6 4 4 2 1 1 1 3 3 3 4
-1 -2 -1 -1 4 4 3 2 2 1 -2 -3 1 -0 -1 6 11 16 8 2 7 6 6 4 0 1 2 3 3 4 14 3 6 21 23 23 22 15 6 5 6 6 6 4 3 3 2 0 0 0 1 4 5 5

GFSWCAN_sfc_temp_072.txt.gz
Temp
57 56 56 56 56 56 56 56 55 55 55 54 54 53 53 52 52 43 39 41 37 30 32 37 39 33 32 32 27 34 37 40 40 35 34 34 30 34 31 33 31 31 31 30 31 28 23 43 42 37 42 43 43 43
56 56 56 56 56 56 56 56 55 54 54 54 54 54 53 53 52 51 41 46 47 38 37 40 41 42 41 41 33 33 33 35 36 36 36 35 32 31 31 27 33 32 35 32 33 32 42 44 43 46 46 47 48 46
56 56 56 56 56 56 56 55 55 54 54 54 54 54 54 53 53 51 43 44 42 37 37 36 34 41 44 43 45 31 34 41 39 34 32 37 33 35 28 30 33 37 39 36 36 41 42 45 45 46 47 46 48 48
55 55 56 56 56 56 56 56 56 55 55 54 54 54 54 53 53 52 43 42 41 38 31 32 43 39 43 42 41 42 40 43 40 37 31 31 35 40 34 37 36 37 39 37 35 40 43 46 45 45 45 46 46 46
53 54 54 53 53 53 53 53 53 54 55 55 55 54 53 52 52 48 44 41 42 38 30 33 39 41 42 42 41 39 38 37 33 31 30 31 36 39 37 36 34 39 38 35 35 43 42 43 42 45 44 44 44 45
52 52 52 52 52 52 52 52 52 52 52 52 53 53 53 51 49 43 33 38 40 43 34 25 34 34 39 40 37 37 37 36 36 33 32 35 39 37 35 32 42 42 42 44 42 42 44 44 43 44 44 43 43 42
51 51 51 52 51 51 51 51 51 51 51 51 52 53 52 50 44 39 35 40 44 42 32 25 23 33 39 40 39 38 39 37 36 34 31 35 37 36 35 31 43 43 44 44 44 43 39 41 44 46 45 43 45 41
51 51 51 51 51 51 50 50 50 51 50 51 51 52 50 49 46 41 44 47 43 37 34 24 24 26 42 35 30 35 33 35 35 33 34 35 40 37 34 39 44 43 41 39 41 40 41 41 40 40 40 41 38 39
50 50 50 50 50 50 50 50 50 50 50 51 49 48 44 42 37 37 47 48 42 37 29 28 20 18 40 37 36 34 33 28 33 29 34 36 34 32 37 40 42 44 41 40 38 38 39 39 39 38 37 37 36 37
49 49 49 49 49 49 49 49 50 50 49 48 42 37 34 39 47 46 40 36 35 35 34 28 30 25 33 35 34 32 34 31 27 32 38 33 33 39 43 42 41 42 40 39 36 34 34 33 36 35 35 36 36 36
49 49 49 49 49 49 49 49 50 49 47 39 36 35 41 46 40 36 31 30 31 26 31 31 30 28 38 30 33 36 32 33 29 31 33 32 33 36 34 33 34 35 36 37 38 38 39 41 39 37 36 36 36 37
49 49 49 49 49 49 49 50 50 42 37 39 39 42 40 36 33 29 28 30 27 24 32 30 32 32 33 38 34 35 32 32 30 35 33 30 36 32 32 31 33 38 39 38 39 38 38 38 38 38 38 38 38 39
49 49 49 49 49 49 49 49 48 46 44 40 36 32 32 32 26 23 13 21 22 32 34 33 33 37 37 39 36 34 32 30 37 32 29 32 31 31 30 32 34 36 37 36 36 37 37 37 38 37 36 36 37 37
48 48 48 49 49 49 49 48 47 45 38 28 30 24 27 24 24 23 23 28 35 35 35 35 36 34 36 34 35 31 34 34 29 27 25 32 32 31 32 33 35 34 35 35 35 35 35 34 34 34 33 35 35 34
48 48 48 48 48 49 49 48 47 39 35 26 29 21 24 27 26 33 33 33 35 37 36 36 35 36 32 32 33 31 28 24 27 26 28 29 32 31 32 34 35 35 35 34 35 35 34 34 34 34 34 33 33 33
48 48 46 48 48 49 49 46 40 37 33 31 28 26 28 28 17 30 32 32 36 37 37 35 32 31 32 31 28 27 27 25 29 31 32 27 30 30 32 34 35 35 34 33 33 33 33 32 31 31 31 30 29 30
48 43 49 49 48 49 45 37 35 32 31 28 24 28 23 24 21 27 34 34 36 34 32 32 30 27 32 25 23 28 27 31 32 32 27 29 33 33 31 33 34 34 33 32 31 31 30 31 30 29 27 27 26 27
43 44 49 49 47 41 35 34 31 29 24 18 18 20 28 29 27 31 33 35 33 32 32 31 31 26 25 21 23 30 32 32 30 27 28 29 30 29 31 31 32 32 31 31 28 25 23 23 27 26 23 21 22 22
44 46 49 46 43 35 31 31 32 25 19 17 21 23 25 27 30 29 30 34 35 34 31 31 29 28 27 31 32 32 31 30 30 30 30 30 30 29 29 25 25 24 23 21 25 26 25 26 25 25 24 24 23 23
48 47 46 46 42 32 28 27 30 23 18 21 20 19 23 26 27 27 29 31 32 30 30 29 27 30 30 31 30 30 28 31 30 30 30 29 28 20 24 24 27 25 24 21 18 25 18 23 23 23 23 23 22 22
40 39 40 37 32 31 28 26 26 22 21 18 18 21 21 23 26 26 26 30 28 26 25 25 29 31 29 32 31 30 30 30 30 31 30 26 28 23 21 19 18 24 24 23 22 23 28 23 22 19 11 23 24 23
37 40 33 33 29 27 25 26 21 26 23 23 26 26 24 23 23 24 25 23 26 23 22 26 23 24 25 28 27 24 28 29 28 28 32 31 26 21 21 21 19 21 21 21 20 21 21 20 18 18 18 18 22 19
37 35 31 29 25 24 20 23 17 24 19 21 20 22 18 14 15 18 19 17 20 22 22 21 19 18 21 23 24 26 25 22 24 25 26 25 25 23 20 20 22 20 19 21 19 19 17 24 23 20 17 18 17 16
36 28 25 22 19 14 19 15 22 19 18 16 11 14 11 10 10 8 10 12 19 18 20 20 16 19 18 18 20 21 23 22 21 18 17 17 17 21 24 23 24 22 23 19 17 18 17 18 25 18 15 14 13 13
27 23 23 13 15 14 15 16 16 16 14 9 9 8 8 7 6 4 9 17 16 17 19 22 23 23 23 22 23 24 23 22 20 18 19 18 16 14 16 17 23 24 21 16 18 17 15 13 15 15 15 14 15 13
19 17 15 15 17 20 18 15 13 12 11 7 6 4 2 3 3 8 12 13 13 16 17 20 21 21 22 24 23 22 25 24 23 21 23 19 20 19 15 16 16 22 21 23 18 19 18 15 14 14 15 17 25 20
14 15 21 25 22 20 17 17 18 13 6 8 5 4 1 3 3 15 15 13 15 15 18 19 22 22 23 22 22 22 20 21 24 23 20 19 20 21 22 20 20 23 20 20 19 19 19 18 17 16 16 10 11 12
21 21 17 16 15 13 13 10 9 10 11 14 13 7 6 9 15 18 18 15 12 8 9 12 18 22 22 22 18 18 17 14 14 16 19 22 22 22 21 23 24 29 22 18 18 17 18 18 17 15 13 12 10 6
17 19 19 10 8 9 11 12 13 15 19 15 12 11 11 15 14 14 18 14 4 7 12 20 23 10 14 10 9 13 14 14 16 16 17 21 19 23 16 18 17 16 15 15 29 23 13 12 12 12 10 9 9 5
15 16 11 4 9 13 13 12 11 7 12 14 14 12 12 12 15 10 10 7 10 17 22 16 13 10 16 11 18 13 11 16 20 21 18 20 21 14 7 10 12 11 10 10 11 10 28 14 15 12 13 8 6 5
16 12 10 9 12 8 7 6 3 10 3 0 -2 6 10 7 12 12 12 16 16 9 9 18 18 10 13 11 6 6 16 13 15 17 17 12 10 7 7 6 5 4 6 7 7 7 6 4 4 3 3 1 0 6
12 6 8 12 10 3 -1 -2 -5 -1 -4 -3 0 -8 1 3 6 15 8 4 6 8 16 11 7 14 6 7 4 7 24 8 5 8 8 9 9 9 6 3 0 3 5 4 3 3 2 2 1 0 1 -1 -2 -1
-2 -3 -4 -1 4 4 2 1 1 1 -3 -4 -1 -2 -3 5 11 14 4 0 3 4 4 3 2 1 1 -0 1 3 12 1 6 21 24 25 24 16 3 3 5 6 6 4 1 1 -0 -1 -1 -2 -2 -2 -0 2

GFSWCAN_sfc_temp_075.txt.gz
Temp
57 57 56 56 56 56 56 56 55 55 55 54 53 53 53 52 52 43 38 40 36 35 35 37 36 33 31 30 26 31 32 36 37 34 33 34 30 32 29 31 30 29 31 29 29 27 24 41 40 36 40 41 42 41
56 56 56 56 56 56 56 55 55 55 54 54 54 54 53 53 52 49 37 43 46 38 37 41 43 45 42 39 35 35 30 32 34 31 30 30 32 31 29 25 31 29 33 30 31 31 41 41 42 44 45 44 44 45
56 56 56 55 55 55 55 56 56 55 55 55 54 54 54 53 53 49 39 43 42 37 35 38 35 41 43 42 43 32 31 36 35 35 32 32 29 34 28 28 30 34 37 34 35 40 40 42 42 44 46 44 47 47
55 55 55 55 55 56 56 56 56 55 55 55 55 54 54 54 53 52 44 43 42 38 31 33 41 36 42 40 39 40 39 38 37 36 29 26 27 35 33 34 34 35 37 35 34 38 40 43 44 45 44 44 44 45
55 55 55 55 55 56 56 55 55 55 55 55 55 54 54 53 53 49 44 44 45 37 31 31 38 39 40 40 38 37 37 35 29 31 28 26 33 34 36 34 32 37 36 34 33 41 42 43 42 44 44 43 44 44
54 54 54 53 53 53 53 53 53 52 52 52 52 53 54 53 49 44 36 38 39 43 34 26 33 33 36 37 38 36 36 34 33 32 30 32 39 32 29 32 41 41 41 44 42 42 42 41 41 41 44 43 44 44
53 52 52 52 52 52 52 52 51 51 51 51 51 51 52 51 44 39 37 39 44 43 32 26 23 33 35 37 38 34 34 32 32 33 30 31 35 34 31 32 41 44 43 42 43 43 39 40 41 42 45 45 45 41
51 51 51 51 52 51 51 51 51 51 50 50 51 51 52 49 46 40 43 46 44 37 34 25 24 26 37 35 32 33 32 34 34 32 33 32 36 34 27 36 43 44 43 40 41 40 42 41 40 39 39 40 38 39
51 51 51 51 51 51 50 50 50 50 50 51 50 49 45 42 38 39 47 47 43 37 27 28 20 15 35 37 35 33 33 28 33 29 29 34 30 29 34 39 42 43 40 40 37 37 38 39 38 38 38 36 36 36
50 50 50 50 50 50 50 50 50 50 49 48 42 37 35 39 47 46 40 36 35 35 34 28 32 26 32 34 30 30 32 29 25 30 32 29 28 38 41 40 39 38 39 37 36 33 34 33 36 36 36 37 36 36
49 49 49 49 49 49 49 50 50 49 47 37 36 35 41 46 39 36 30 30 30 25 30 32 30 28 35 27 28 34 31 32 27 29 30 29 30 35 34 33 34 35 37 36 37 37 38 38 37 35 35 37 37 35
49 49 49 49 49 49 49 50 49 39 36 38 39 42 41 36 33 29 25 29 26 22 29 29 31 32 33 35 32 35 31 31 29 34 30 30 34 32 32 32 33 35 36 36 37 37 38 38 39 38 38 38 38 38
48 48 49 49 49 49 50 50 48 46 43 38 36 33 32 31 25 23 19 19 24 25 31 33 32 35 35 34 33 33 31 30 36 32 30 31 33 31 31 32 34 37 37 36 36 37 37 36 37 37 36 36 37 37
48 49 49 49 49 49 49 49 48 44 37 31 29 24 25 24 27 22 20 20 33 35 35 36 34 35 37 33 34 32 34 34 27 26 26 32 31 30 30 35 35 35 36 35 35 35 35 35 34 34 34 35 35 34
48 48 48 48 48 49 49 48 47 40 35 26 29 19 20 26 19 28 24 33 35 37 35 34 34 36 33 31 33 31 28 23 27 26 28 32 31 31 31 34 33 34 35 34 34 33 34 34 34 33 33 33 32 32
48 48 45 48 48 49 48 46 41 38 33 30 28 25 27 22 17 28 31 31 35 37 36 35 32 31 30 31 27 27 27 23 29 31 33 31 31 31 33 34 35 35 35 33 33 33 32 32 31 30 30 29 29 30
48 42 48 48 48 48 46 38 36 33 31 28 27 31 27 26 19 28 34 35 36 33 31 31 28 28 31 22 19 23 20 29 33 33 31 30 32 33 32 34 34 34 33 32 31 31 30 30 30 29 28 26 26 27
43 45 48 48 47 42 36 34 33 30 25 21 18 19 30 29 26 34 34 34 32 32 32 31 31 29 23 21 22 27 32 32 31 28 30 30 31 30 32 32 33 32 32 31 28 23 22 23 27 27 23 21 22 23
44 45 49 48 44 36 32 31 32 25 19 16 20 21 24 27 28 28 32 33 35 35 31 30 27 27 28 30 32 32 32 29 31 31 31 31 31 30 30 26 25 24 24 22 25 26 26 26 26 25 24 24 24 24
48 48 47 47 43 33 28 27 30 20 16 20 18 17 20 22 25 24 25 29 31 30 28 28 27 29 29 31 30 30 28 30 30 32 33 32 29 21 24 24 27 26 25 20 18 25 18 23 23 23 22 22 22 22
41 40 40 37 32 31 26 23 26 23 23 16 13 18 17 16 17 26 27 30 28 27 26 28 27 29 27 31 34 33 31 30 29 30 31 30 30 25 22 20 18 23 24 23 22 23 29 23 23 20 12 23 23 23
37 39 33 34 29 27 23 23 19 24 21 20 24 18 19 21 22 24 25 20 24 25 26 25 23 23 24 27 27 26 29 29 29 28 32 31 27 24 24 22 19 22 21 22 21 22 22 21 18 18 18 17 21 18
38 35 31 30 26 25 21 24 19 21 20 20 21 21 20 16 15 17 17 18 21 24 22 21 19 17 20 20 22 25 25 23 24 25 26 25 25 24 22 22 23 20 20 22 20 20 20 24 23 20 17 18 16 16
37 29 26 24 25 19 20 14 22 21 20 18 16 15 11 11 12 12 14 14 19 18 19 18 15 17 16 15 17 19 21 21 22 21 20 19 21 23 24 24 24 23 24 19 17 17 17 18 24 18 16 15 13 13
29 24 25 18 16 15 11 13 16 18 18 17 15 12 11 11 11 8 12 17 12 13 15 14 16 16 16 16 21 22 22 23 22 22 24 21 19 18 20 20 23 23 20 16 19 18 17 13 15 16 15 15 15 12
21 18 15 11 10 17 18 16 16 17 17 14 13 10 7 9 7 11 14 14 11 13 15 17 18 15 18 23 22 22 24 23 22 21 25 23 23 23 22 19 20 23 20 23 17 18 17 15 14 13 14 17 26 19
13 11 19 25 22 20 18 20 20 17 13 12 11 8 6 6 7 16 16 13 14 14 12 12 19 20 21 20 21 20 18 19 23 23 20 20 21 23 24 23 23 24 20 18 17 18 18 17 15 15 16 9 11 12
20 20 17 17 18 17 17 15 14 13 13 15 14 7 10 13 17 18 18 18 15 7 6 8 14 17 18 19 16 16 14 11 10 13 16 21 22 22 22 24 25 29 25 17 17 15 17 17 16 15 13 13 11 6
17 20 21 15 15 14 15 15 15 16 19 15 12 10 12 16 16 15 17 11 -0 6 12 15 20 5 9 7 8 12 12 11 14 15 16 20 17 21 13 13 13 13 13 15 28 27 16 13 13 12 10 9 7 2
15 17 14 8 14 15 14 12 11 9 13 14 15 14 14 15 15 9 10 6 9 13 13 11 8 7 15 9 16 14 8 14 19 22 20 21 20 11 5 9 11 9 7 7 9 10 29 16 16 8 6 5 5 5
16 11 10 9 11 9 6 5 6 11 7 3 1 8 10 7 12 9 5 4 4 2 6 7 8 1 6 9 2 3 13 9 8 12 14 8 8 8 9 7 5 3 4 6 7 8 7 4 3 3 4 4 2 6
13 9 12 15 13 8 3 0 -2 1 -3 -3 -1 -8 -0 3 7 15 3 1 3 6 11 4 3 7 2 3 3 5 18 15 8 6 6 8 10 10 5 3 -1 1 3 3 2 2 1 2 1 1 1 -2 -3 -3
3 2 0 4 8 8 5 3 3 2 -2 -4 -2 -4 -5 3 10 13 3 -2 2 3 1 -0 0 1 1 1 1 3 10 3 4 19 25 26 26 19 3 -1 2 4 6 4 2 1 1 -1 -2 -3 -3 -4 -4 -3

GFSWCAN_sfc_temp_078.txt.gz
Temp
57 56 56 56 56 56 56 55 55 55 54 54 53 53 52 52 50 42 37 39 36 29 31 36 35 31 31 29 29 31 29 34 32 31 32 32 30 33 30 31 29 31 28 29 29 27 24 40 38 34 39 40 40 40
56 56 56 56 55 55 55 55 55 54 54 54 53 53 53 52 51 46 36 41 43 37 35 39 40 42 40 38 36 35 29 29 31 28 29 29 30 31 31 26 30 29 33 29 31 31 40 40 41 42 42 42 42 41
56 56 55 55 55 55 55 55 55 54 54 54 54 54 53 53 52 47 37 40 42 37 36 33 33 39 41 41 42 32 34 35 33 35 28 30 26 31 29 30 30 32 35 33 34 39 38 40 41 42 43 43 43 48
55 55 55 55 55 55 55 55 55 55 55 55 55 54 54 53 53 50 42 44 42 38 32 31 40 36 39 39 38 40 36 36 36 35 30 29 26 32 29 31 31 34 34 33 32 37 38 42 42 44 43 44 43 43
55 55 55 54 54 55 55 55 55 55 55 55 55 55 54 53 53 48 44 44 45 38 31 30 36 36 38 37 36 36 35 33 30 30 27 25 30 30 32 34 31 37 35 33 33 40 41 42 43 43 43 43 44 43
54 54 54 54 54 55 55 55 55 54 53 53 53 53 54 53 49 44 38 40 42 43 35 26 33 31 34 35 34 33 34 32 33 29 28 30 35 31 26 27 38 42 41 40 39 40 41 39 39 40 42 42 42 43
54 54 54 54 54 54 53 52 52 52 52 51 51 51 52 50 44 40 38 38 43 43 31 25 23 32 33 35 34 32 33 33 31 31 30 28 31 34 29 27 38 43 42 41 40 40 37 39 40 40 41 45 45 40
53 53 53 53 52 52 51 51 51 51 51 51 51 51 51 49 47 41 43 46 44 37 35 26 22 25 34 34 32 36 31 32 33 31 32 29 31 30 24 32 39 44 43 42 41 40 40 39 39 38 38 39 38 37
51 51 51 51 51 51 51 51 51 50 51 51 51 49 45 42 38 39 47 46 43 35 25 27 17 15 33 32 35 33 34 28 34 30 30 32 28 25 31 35 38 40 40 40 38 38 38 37 37 37 37 36 36 36
50 50 51 50 50 50 50 50 50 50 50 50 43 37 35 39 47 46 40 36 34 35 34 28 31 26 31 31 27 31 31 26 21 29 32 28 25 35 39 41 40 39 37 39 37 34 34 33 36 34 34 36 36 35
50 50 50 50 50 50 50 50 50 49 46 38 36 34 40 46 39 36 28 28 30 25 30 31 29 26 34 27 27 34 27 28 24 28 27 26 28 33 32 33 35 35 36 36 37 37 39 39 37 35 35 35 36 36
49 49 49 49 49 49 50 50 49 40 37 38 39 42 40 36 33 29 26 28 25 23 27 24 27 32 33 35 31 33 30 31 26 31 28 27 33 32 32 31 32 34 36 36 36 36 36 37 37 37 37 37 37 38
49 49 49 49 49 49 49 49 47 46 43 38 36 33 31 31 23 22 19 23 24 23 25 33 32 35 35 33 32 32 30 30 34 29 29 32 33 32 32 33 35 36 37 35 36 37 37 37 38 37 35 36 37 36
48 48 48 48 48 49 49 49 48 44 37 31 28 24 25 24 27 21 19 19 27 33 34 35 33 33 36 33 34 30 34 34 25 22 26 31 32 30 31 35 36 35 36 36 36 36 36 35 34 35 35 35 35 33
48 48 48 48 49 49 49 48 47 38 32 28 28 20 22 25 19 26 21 27 32 37 35 33 33 34 33 31 32 31 26 21 26 27 29 33 32 31 32 34 33 34 35 34 34 34 34 34 33 33 33 32 31 31
48 47 44 48 48 49 48 46 41 37 33 29 28 25 27 25 15 23 27 30 34 36 35 34 31 30 30 31 27 25 25 23 28 32 33 32 31 32 33 33 34 35 35 33 34 34 33 33 32 30 29 28 28 29
47 41 47 48 48 48 46 38 37 33 32 29 28 31 26 27 19 20 28 29 34 33 30 30 27 26 31 24 22 27 27 30 32 33 31 29 31 32 32 33 34 34 34 33 32 32 30 30 29 27 26 26 25 26
42 45 47 48 47 43 37 35 33 32 27 27 24 22 31 32 25 30 34 33 33 31 31 29 30 27 26 18 23 29 32 32 32 30 29 29 30 31 32 33 34 33 32 32 29 24 22 22 27 27 23 21 21 22
44 45 48 48 43 36 33 31 32 25 22 20 22 22 24 26 28 28 34 34 34 34 31 29 26 26 27 26 31 32 32 31 30 32 32 32 30 30 31 26 28 25 24 22 25 26 26 26 26 25 24 24 23 23
48 48 48 47 44 33 28 27 30 23 20 22 21 21 20 21 24 26 28 29 32 30 27 26 28 27 27 28 28 28 30 31 30 30 31 33 31 25 27 26 27 26 26 22 19 26 19 24 24 24 23 23 22 22
41 44 45 38 33 31 25 23 24 23 22 18 19 17 16 16 14 14 18 28 27 26 24 26 28 28 26 26 34 34 33 31 30 31 31 28 30 25 25 26 21 24 25 25 23 24 29 23 23 19 14 23 23 22
37 40 34 35 29 28 23 25 22 25 19 18 23 15 9 10 10 12 18 21 24 21 24 25 23 23 23 26 26 25 28 29 29 28 32 31 27 23 23 22 21 21 22 23 23 23 23 22 19 18 18 18 22 17
38 35 31 31 26 24 21 25 20 18 16 18 19 19 20 20 14 15 9 13 17 21 21 21 20 18 21 20 21 24 24 21 22 24 25 25 25 24 22 23 23 22 23 24 22 23 22 25 22 21 17 19 16 15
37 29 27 25 25 19 22 15 21 15 13 13 9 8 8 8 11 8 10 14 17 17 17 17 16 18 16 14 16 18 19 19 20 18 18 17 19 22 25 24 24 23 24 22 20 21 18 18 24 19 17 16 14 14
29 24 26 18 18 17 11 11 9 13 9 11 10 9 7 7 6 3 10 16 11 12 16 15 16 16 14 10 16 18 18 21 21 19 19 18 17 17 20 22 24 25 22 19 19 18 17 14 14 15 15 15 15 13
14 17 17 14 12 12 12 6 7 8 10 7 11 6 5 8 7 12 15 14 13 15 16 18 20 15 17 19 17 17 20 19 20 19 21 20 20 18 19 20 21 25 22 23 18 19 18 15 13 12 14 17 26 19
12 15 18 24 19 18 14 16 18 12 9 12 10 11 9 8 9 17 17 16 18 18 16 15 19 20 23 18 17 17 15 16 21 21 18 17 19 21 22 22 22 24 20 19 19 19 18 17 16 14 14 9 10 12
18 17 14 13 12 13 13 12 12 13 16 16 16 10 11 13 17 20 20 17 13 7 7 9 10 13 13 13 12 14 12 8 8 12 16 20 21 21 20 23 24 28 24 18 18 16 17 17 15 14 12 13 10 6
12 17 17 9 13 14 14 14 15 17 20 17 14 13 14 17 16 15 18 13 4 8 15 15 14 2 6 4 5 9 7 8 12 14 17 22 14 22 9 10 11 11 11 13 25 26 18 15 14 13 12 10 8 1
11 14 15 14 14 15 17 16 14 11 14 15 15 14 15 16 15 10 10 6 9 11 8 5 1 4 7 5 10 12 6 8 13 17 16 18 15 9 3 7 9 8 6 7 9 11 27 19 18 9 7 6 5 5
17 15 13 12 15 13 10 9 8 12 7 4 3 8 13 11 13 8 4 0 -1 -3 2 3 2 -3 2 2 -0 0 11 6 2 4 7 12 13 10 9 9 8 3 3 6 6 7 9 11 4 3 4 4 5 6
13 8 12 11 11 7 5 4 4 7 5 7 7 -0 4 6 9 10 3 -2 1 4 11 0 1 6 0 -1 -0 2 14 11 8 6 3 6 9 9 8 3 -1 -0 1 2 2 2 1 2 0 1 1 -2 -3 -3
6 7 7 11 11 10 7 5 7 6 2 -0 -0 -4 -6 1 9 10 1 -4 2 3 2 -0 0 1 2 0 0 2 8 3 4 18 22 24 27 23 13 1 -1 2 4 4 2 1 0 -1 -3 -3 -4 -4 -5 -5

GFSWCAN_sfc_temp_081.txt.gz
Temp
57 57 56 56 55 55 55 55 55 54 54 53 53 52 52 51 50 41 35 37 36 30 30 34 35 30 29 28 26 30 28 30 29 28 24 28 29 29 30 31 30 32 29 28 29 27 25 41 38 35 40 41 42 42
57 57 56 55 55 55 55 55 54 54 54 53 53 53 52 52 50 45 35 40 41 34 34 38 39 40 39 37 36 34 30 27 28 22 23 21 26 29 30 27 34 30 32 29 31 32 40 40 41 43 43 42 43 43
56 56 55 55 54 55 54 54 54 54 53 53 53 53 53 52 52 45 36 39 41 38 35 32 33 37 39 39 41 33 31 35 31 34 27 26 21 26 27 29 31 34 36 31 34 39 38 41 41 42 44 44 45 49
56 55 55 54 54 54 54 54 54 54 54 54 54 53 53 53 52 47 40 40 40 38 32 31 40 35 38 38 38 39 35 35 36 35 30 25 27 31 26 27 28 34 35 32 32 38 38 41 42 44 43 44 44 44
55 55 54 54 54 54 54 54 54 54 55 55 55 54 53 53 53 48 45 44 45 39 33 31 34 35 36 35 35 35 35 34 33 30 28 26 27 26 27 29 28 34 34 33 32 41 40 42 42 43 43 43 44 44
55 54 54 54 54 54 54 54 54 54 54 54 54 54 53 53 50 44 38 37 43 41 33 26 32 30 33 33 33 32 35 34 34 31 29 28 32 27 23 26 33 36 39 42 39 41 40 41 41 40 41 42 42 43
54 54 53 53 54 54 54 54 54 54 54 53 53 53 53 51 45 40 35 38 42 40 30 26 24 32 32 33 32 34 35 34 33 31 29 27 30 32 24 22 34 39 42 42 43 40 39 40 40 40 42 43 44 41
54 53 53 53 53 53 53 53 52 52 52 52 52 51 50 50 48 41 44 46 43 37 35 22 21 26 33 32 32 35 31 32 33 29 31 28 30 29 24 30 35 39 39 40 43 41 40 37 39 37 38 39 38 38
53 53 53 53 53 52 51 51 51 51 51 51 50 49 45 41 37 39 47 45 41 35 22 25 18 13 32 30 35 34 34 26 31 27 27 30 29 23 29 31 33 37 36 40 40 40 40 37 38 36 37 37 36 36
52 52 52 52 51 50 50 51 51 51 50 50 43 38 35 39 47 45 39 36 35 35 33 27 29 22 29 28 26 31 31 25 17 27 32 27 27 35 35 35 35 36 38 38 35 35 37 35 37 36 36 36 36 35
51 50 50 50 50 50 50 51 51 50 48 39 35 34 39 46 40 36 30 28 29 26 31 31 31 25 33 28 26 31 24 25 17 23 25 23 25 33 34 31 33 36 37 35 37 38 39 39 37 35 35 35 35 35
48 48 49 50 50 50 50 50 50 40 38 39 39 42 40 36 33 28 24 26 23 23 26 23 24 31 33 34 30 31 29 30 22 31 24 20 33 32 33 32 34 35 34 36 37 36 36 37 37 37 36 36 36 37
48 49 49 49 50 50 50 49 48 47 45 39 36 32 30 29 20 20 16 22 20 24 24 26 31 35 35 34 31 30 28 28 32 26 24 32 33 33 32 33 35 37 37 36 36 37 36 37 38 37 35 36 37 36
49 49 49 49 49 49 49 48 48 43 38 31 26 24 24 21 24 24 21 21 26 32 33 34 32 33 35 32 33 28 33 34 27 22 24 29 32 32 31 34 34 35 36 36 36 36 35 35 34 34 34 35 35 33
48 48 48 48 48 48 48 47 45 39 33 27 28 22 23 26 21 25 21 26 32 36 34 33 32 33 32 31 32 31 26 21 27 27 27 33 32 30 31 34 33 34 34 35 35 35 35 34 33 31 32 32 31 30
48 48 46 48 48 48 47 45 40 37 33 28 27 22 26 22 20 21 28 27 33 36 34 34 30 29 29 30 26 23 26 24 28 32 33 32 30 31 32 33 33 34 34 33 34 34 33 33 32 31 31 30 29 29
46 41 47 48 47 47 46 37 36 33 31 29 28 30 26 23 20 22 27 29 32 34 28 30 21 27 30 23 20 23 25 29 32 32 32 28 28 31 32 32 32 34 33 31 33 32 30 30 29 28 27 26 24 25
41 45 47 48 45 42 37 35 33 32 28 28 25 25 30 31 26 28 31 33 33 31 30 24 31 26 26 22 19 24 28 30 31 32 30 29 30 29 32 32 33 33 32 32 29 24 22 23 27 27 23 20 20 20
44 45 48 46 43 37 33 32 33 25 22 24 25 24 28 28 30 27 33 34 34 34 31 29 26 25 28 25 22 21 28 32 27 32 33 34 32 30 30 27 29 29 28 24 27 27 26 26 26 25 25 24 23 23
47 48 47 47 43 32 28 27 31 24 21 24 23 24 23 23 26 29 31 31 32 30 28 26 28 28 27 27 25 29 28 31 30 28 30 32 32 27 27 26 28 28 28 24 21 27 19 24 24 24 23 23 22 23
43 44 46 39 33 29 26 23 25 22 21 20 21 21 20 24 23 25 26 30 28 26 23 26 28 28 25 25 30 32 34 33 32 28 30 29 31 27 26 26 23 25 25 26 25 25 30 25 25 21 16 24 23 23
37 40 34 35 29 26 23 24 23 25 21 19 21 15 13 12 10 13 19 25 25 21 23 24 22 23 23 24 27 27 30 29 28 27 32 30 26 25 23 23 23 25 25 26 24 25 25 23 20 19 18 19 22 18
39 36 32 31 26 23 20 25 21 19 16 19 17 18 20 21 17 17 10 13 16 19 19 20 18 16 19 19 21 25 24 22 23 24 24 24 24 23 22 23 24 24 26 26 23 25 24 26 24 24 18 19 18 15
37 30 28 25 24 19 23 18 22 17 14 14 12 10 8 9 11 8 10 11 16 15 16 16 16 17 16 14 16 20 21 20 19 16 16 16 17 20 24 23 24 24 25 25 21 21 21 21 25 21 18 16 15 16
30 24 25 15 19 16 14 12 9 12 8 7 6 8 6 8 6 2 10 14 10 10 13 14 15 17 15 11 17 18 17 19 17 17 16 16 14 14 17 19 25 26 24 20 21 21 21 18 18 17 18 17 16 14
16 17 19 18 17 16 14 6 9 10 9 6 8 3 -0 3 2 9 12 13 13 14 15 18 20 15 16 20 18 17 20 18 17 16 17 17 17 16 14 16 20 24 21 22 20 21 20 18 17 16 16 17 25 20
11 13 19 24 19 16 13 15 16 10 4 7 6 4 5 5 5 15 17 15 17 17 15 15 19 18 18 17 18 18 13 13 18 17 14 13 16 19 20 20 20 22 19 18 18 18 18 18 17 16 15 11 13 14
18 17 13 11 12 11 10 9 7 9 11 14 14 8 10 13 16 19 19 16 13 8 8 8 7 9 11 15 12 13 13 6 6 9 13 17 19 17 16 21 22 28 22 17 17 15 16 17 17 16 14 14 13 10
12 16 17 6 7 9 10 12 12 14 18 15 14 13 15 17 16 15 15 10 4 10 14 11 11 2 3 3 2 3 3 5 11 11 11 16 11 16 6 5 6 7 8 10 24 26 18 16 15 14 12 12 9 3
11 12 10 5 9 10 10 10 10 9 14 15 15 14 15 15 13 8 9 8 10 10 7 5 1 0 4 4 7 11 3 2 7 11 8 12 10 7 8 9 9 6 4 5 7 8 23 21 19 6 5 4 4 4
12 9 8 8 10 7 6 7 7 12 9 8 6 9 12 10 12 8 7 7 6 2 6 5 2 -4 1 1 -1 0 9 3 0 2 2 8 10 11 11 11 10 8 4 3 4 6 12 14 5 4 4 3 2 5
10 9 11 10 12 7 6 5 5 6 4 5 6 3 9 10 14 13 5 -1 5 8 11 0 2 6 -0 -2 -3 -0 13 9 6 6 2 5 6 8 10 10 5 1 1 2 1 2 2 4 2 4 5 1 -2 -3
1 1 2 5 8 9 8 8 10 10 8 6 5 0 -2 4 11 10 4 -2 4 4 3 1 1 1 1 -0 -1 -0 8 0 2 17 20 22 25 25 22 11 8 4 3 3 1 1 -1 -2 -3 -4 -3 -2 -4 -6

GFSWCAN_sfc_temp_084.txt.gz
Temp
52 53 52 56 55 55 55 55 55 54 54 53 53 53 52 51 50 47 42 44 47 44 40 40 42 39 37 38 34 37 36 36 37 31 29 30 31 35 33 36 34 35 32 33 35 30 29 47 45 42 51 51 52 52
52 52 53 56 55 54 54 54 54 54 53 53 53 53 52 52 50 49 42 46 48 44 42 45 46 47 46 44 39 38 35 35 37 34 33 33 32 34 32 33 40 33 40 40 41 42 48 50 53 56 54 53 53 53
52 54 54 55 54 54 54 54 54 53 53 53 53 53 52 52 51 49 43 45 46 40 41 42 41 45 45 45 49 36 39 40 37 40 35 30 26 35 32 35 34 36 37 38 40 49 48 50 53 53 54 54 55 56
52 53 54 55 54 54 53 54 53 53 53 53 54 53 53 52 51 49 45 47 46 41 37 38 45 42 45 45 44 46 42 42 42 40 34 31 30 37 33 35 34 41 38 35 41 46 50 52 53 55 53 52 53 54
51 53 53 54 54 53 53 53 53 53 53 53 53 53 53 52 51 47 45 46 48 42 37 37 42 41 42 42 41 42 41 39 36 33 32 30 36 34 37 35 33 42 40 37 39 44 46 51 52 53 52 51 52 52
50 52 54 54 53 53 53 53 52 53 53 53 53 52 52 52 49 45 40 43 47 46 36 32 40 38 41 41 39 38 39 38 35 34 33 35 39 35 29 29 41 45 46 48 45 47 46 50 51 52 50 51 51 51
51 51 54 53 53 53 53 52 53 53 53 53 53 52 52 50 46 42 41 44 46 46 37 30 33 39 38 39 39 38 38 36 35 34 32 34 35 35 30 29 41 45 45 45 46 47 44 48 48 50 50 50 49 47
51 53 54 53 53 53 52 52 53 54 54 53 53 52 50 49 47 42 44 46 46 40 38 29 30 34 39 36 34 38 34 34 34 35 35 32 35 34 27 37 41 42 42 42 46 48 46 47 47 46 47 48 46 45
50 53 53 53 53 52 52 52 53 53 52 50 50 50 47 43 39 40 47 46 45 40 32 30 28 29 38 37 37 34 35 29 37 31 33 34 33 27 34 36 38 41 40 42 44 44 44 44 45 44 45 45 46 44
52 52 53 52 52 52 52 52 51 50 50 51 46 41 35 40 47 46 40 37 36 35 35 32 35 31 35 35 33 34 34 31 27 34 35 30 31 39 39 35 36 39 43 43 40 39 41 40 41 42 44 45 46 44
52 52 52 52 52 51 50 50 50 50 49 42 37 35 41 47 41 38 32 30 31 27 33 35 34 31 36 32 31 35 31 31 24 30 30 28 29 34 35 34 37 39 41 41 43 43 43 43 44 41 40 41 42 42
52 51 51 50 50 50 50 50 50 43 41 41 41 42 41 38 34 30 26 29 28 27 31 31 32 33 35 36 32 34 30 31 25 34 29 26 34 34 34 34 36 39 39 39 40 38 40 40 42 42 41 41 41 41
50 50 49 49 49 50 50 50 48 48 46 41 37 33 33 31 24 23 20 25 26 30 31 31 32 35 34 34 31 31 28 29 34 29 29 32 35 35 34 34 35 38 39 39 39 39 39 39 40 39 38 39 39 38
49 49 48 49 49 50 49 49 49 45 40 33 31 25 27 23 26 27 29 29 33 33 32 36 34 35 36 31 32 29 34 34 29 27 30 36 35 34 35 35 34 35 36 36 37 37 36 36 35 35 35 37 37 35
48 48 49 49 49 48 49 47 45 40 36 31 30 27 24 30 27 29 28 32 35 38 36 34 34 35 33 31 32 32 29 27 30 31 35 35 35 34 35 34 33 34 34 34 35 35 35 35 34 33 35 36 36 35
48 48 46 48 48 48 47 44 41 38 32 30 28 25 28 28 24 27 28 30 35 38 37 34 30 30 30 31 29 28 28 27 32 34 35 35 33 34 34 34 34 34 34 33 33 35 36 35 35 35 34 34 33 33
48 42 47 48 47 47 45 38 37 33 31 30 28 33 30 28 28 29 33 35 38 35 29 31 27 27 32 28 26 31 30 34 36 37 35 34 33 33 34 33 33 34 34 33 32 36 35 34 34 33 33 31 31 31
42 45 47 46 45 42 37 36 33 32 29 29 28 28 32 33 30 31 32 34 36 34 34 29 32 26 27 26 28 33 34 35 35 35 35 35 35 35 34 34 33 33 33 33 32 32 31 31 32 33 30 29 28 28
44 45 46 46 43 38 34 33 33 27 25 28 28 29 31 31 33 33 36 37 36 37 33 31 27 27 30 34 33 32 33 36 36 36 37 38 37 36 34 32 32 32 31 31 29 32 34 33 33 32 31 30 30 30
47 46 46 45 43 33 30 29 33 29 26 26 27 27 27 28 30 32 33 33 33 32 29 27 29 34 35 36 35 35 36 37 36 35 36 37 37 32 33 33 33 33 32 32 30 31 30 30 30 30 30 30 29 30
44 44 43 39 33 31 28 27 27 25 24 24 24 27 24 27 27 28 28 32 29 28 27 32 33 35 33 34 35 35 36 36 36 36 36 34 35 33 32 32 31 30 30 32 32 32 33 31 32 31 29 30 30 30
38 41 35 36 30 28 26 27 26 26 24 23 24 23 21 21 21 23 24 26 27 29 31 30 31 32 31 31 33 31 34 34 33 33 34 33 31 31 30 30 29 29 30 30 31 30 31 32 30 29 28 29 30 28
40 37 33 32 26 25 21 27 24 22 22 22 22 20 20 20 18 20 19 21 23 26 27 27 26 24 28 26 26 29 28 28 31 31 31 31 30 28 27 28 28 26 27 30 30 30 30 31 30 31 29 28 26 26
38 31 28 25 25 19 24 20 23 20 20 19 21 18 16 17 15 15 16 19 23 23 23 23 23 26 25 21 25 28 28 28 28 26 26 27 28 30 30 29 29 29 28 29 28 28 28 28 30 28 27 26 25 25
30 24 25 17 21 19 17 17 16 17 15 14 11 11 12 13 14 12 15 21 20 21 22 22 23 25 26 26 26 26 23 27 27 28 28 26 27 26 28 28 30 31 30 27 27 27 28 27 26 26 26 25 25 24
21 21 22 20 18 18 17 15 13 13 13 10 12 8 9 12 9 15 18 21 22 23 22 21 24 23 23 25 27 27 27 24 25 27 28 25 26 28 27 27 27 31 28 28 28 27 27 26 25 24 25 24 27 28
15 16 21 25 21 18 16 18 18 16 10 12 11 9 11 10 11 19 22 22 24 23 21 22 25 26 28 27 26 25 23 21 26 26 22 23 25 26 26 26 25 29 26 26 25 25 26 25 25 24 24 24 22 23
19 19 17 16 15 15 13 12 11 12 15 16 16 8 13 15 19 22 21 20 19 17 17 16 16 18 21 22 21 20 21 16 17 18 21 23 22 20 18 20 21 24 25 24 24 23 22 23 23 23 22 22 22 21
16 18 19 12 8 10 12 15 15 17 20 17 16 15 16 20 21 19 19 16 11 13 18 18 19 14 16 15 13 14 14 16 19 17 16 22 22 22 14 16 17 17 17 18 24 27 22 21 21 21 20 20 19 15
13 15 12 5 10 12 12 13 11 10 15 16 17 17 18 20 17 12 13 12 14 12 10 9 9 14 15 17 16 17 13 11 13 17 16 17 18 15 15 15 16 17 16 15 16 18 23 24 25 16 14 13 14 14
13 11 10 9 9 7 5 6 8 13 10 10 8 11 14 13 14 12 10 8 8 8 12 12 11 7 10 10 10 11 13 9 5 6 7 9 10 11 12 13 14 15 14 12 13 13 15 19 19 15 14 13 12 16
11 7 10 8 7 3 2 6 4 6 4 7 8 5 9 12 13 15 11 8 9 12 15 8 8 11 8 8 6 6 14 11 7 7 4 7 8 10 12 13 14 12 11 10 11 11 10 13 16 13 14 12 10 10
-0 -1 -0 6 7 8 6 7 5 5 5 7 9 7 7 7 10 12 7 4 9 11 10 9 7 6 5 3 4 4 10 5 4 17 19 20 22 25 25 22 16 14 11 11 12 10 8 6 8 9 9 9 7 6

GFSWCAN_sfc_temp_087.txt.gz
Temp
52 50 51 51 53 55 55 54 54 54 54 54 54 53 53 52 52 52 46 49 53 52 45 46 47 43 42 43 40 41 39 39 40 32 32 34 34 37 35 40 37 35 33 32 34 31 30 52 48 43 51 54 55 55
51 50 50 51 52 53 54 54 54 54 54 54 53 53 52 52 52 52 46 49 56 51 45 50 51 51 49 48 44 42 39 38 40 37 36 35 35 37 35 34 44 35 39 35 42 42 50 53 55 57 58 57 57 56
51 50 49 52 53 52 54 53 53 53 53 53 53 53 53 53 52 51 47 49 51 47 45 46 44 48 51 49 53 40 43 43 41 43 37 35 29 37 34 38 38 41 38 37 42 49 52 54 56 57 58 57 59 59
50 49 50 51 52 54 53 53 53 53 53 53 54 53 53 52 52 51 47 50 51 48 42 41 49 45 48 49 48 49 45 46 46 43 36 33 31 40 37 39 36 44 42 37 39 46 50 55 55 55 56 58 56 57
50 49 50 51 52 53 52 52 53 53 53 54 53 53 52 51 50 48 48 49 52 47 42 40 45 45 46 46 45 46 44 41 38 35 33 32 37 36 39 38 35 45 42 39 39 45 45 50 53 54 53 54 56 55
49 49 50 51 52 53 52 52 52 52 52 52 52 52 51 51 52 49 41 48 50 50 42 35 43 42 44 45 43 42 43 40 39 36 35 38 41 36 30 32 43 47 49 49 44 47 48 49 53 54 52 53 54 54
49 49 50 51 53 52 52 52 52 52 52 52 52 51 50 50 47 43 41 46 49 50 41 34 36 41 43 43 42 40 41 38 36 36 34 36 36 36 31 30 43 46 47 46 46 44 45 50 47 51 51 52 52 52
49 49 50 51 52 52 52 51 51 52 52 52 52 51 50 49 49 43 45 48 50 44 43 33 34 37 42 39 36 40 35 34 34 36 36 33 36 35 28 39 42 43 45 45 45 47 47 49 48 50 49 50 48 47
49 50 50 52 52 52 52 52 52 52 52 51 50 50 48 45 40 40 47 48 48 43 36 36 34 31 41 40 39 35 37 30 38 32 33 34 33 28 36 39 37 39 39 42 46 45 47 43 44 47 47 47 49 48
49 50 50 52 52 51 51 52 52 52 50 51 49 44 37 41 46 46 42 39 38 37 40 37 40 34 39 38 35 34 35 32 28 34 37 30 32 42 43 37 35 36 40 43 41 41 43 39 44 46 46 48 49 48
49 50 51 52 51 51 51 52 51 51 51 44 39 36 41 47 42 38 33 32 32 30 36 39 39 36 40 34 34 37 32 32 26 32 30 30 31 36 36 35 36 38 42 44 45 45 45 43 43 45 43 44 45 45
50 50 51 51 51 51 51 50 51 45 43 43 41 43 42 38 34 31 29 31 30 31 35 35 36 38 36 39 34 35 30 32 26 35 29 28 37 35 35 34 35 37 41 42 42 40 39 40 41 42 43 43 42 43
50 51 51 51 51 51 50 51 49 48 48 44 40 33 35 32 26 25 23 27 29 34 35 34 32 36 35 36 33 32 28 29 36 30 30 37 37 38 35 35 35 37 38 39 39 39 38 37 38 38 38 40 41 40
51 51 51 50 50 49 49 49 50 47 44 37 34 26 31 25 28 30 33 34 37 37 35 38 36 36 37 31 33 29 35 34 29 28 32 38 37 37 38 37 35 35 36 36 36 36 36 36 35 35 36 37 37 37
50 50 49 48 48 48 49 49 47 43 39 33 34 30 27 31 31 33 33 35 38 41 39 37 36 37 33 32 33 33 29 29 33 33 37 37 37 37 36 35 33 34 34 34 35 35 34 35 34 36 38 38 38 37
49 47 45 47 48 48 47 46 43 41 34 32 30 27 31 30 27 30 33 33 40 40 40 38 32 30 31 32 29 29 29 29 34 36 38 38 38 38 36 34 34 35 34 33 32 34 36 37 37 37 37 36 36 36
48 42 46 47 47 47 46 40 39 33 32 31 29 33 33 33 32 33 37 38 43 38 31 33 27 29 33 29 28 35 32 36 37 38 38 37 37 37 36 35 33 34 34 34 34 33 35 36 36 36 34 34 34 34
41 44 47 48 48 43 39 36 33 32 30 31 30 30 35 36 35 35 38 39 38 36 35 31 35 28 27 26 31 37 38 36 38 39 39 39 38 39 37 36 34 33 33 33 33 33 32 33 33 34 33 31 30 29
43 45 47 47 44 38 33 32 33 29 28 30 31 34 35 35 35 39 39 40 39 39 34 31 29 28 31 37 37 35 37 39 40 40 40 42 41 39 37 33 33 33 32 32 32 32 32 32 34 34 33 32 31 32
46 45 43 43 42 34 31 31 34 32 29 29 31 30 31 31 33 36 36 35 35 34 31 29 31 36 38 40 40 40 40 40 39 38 39 41 41 35 34 34 35 35 34 35 33 33 31 32 32 33 32 32 31 31
43 41 42 39 34 33 31 31 28 29 29 27 29 30 26 30 30 31 31 33 31 30 30 35 37 41 39 39 40 40 40 40 39 41 40 38 39 37 36 35 34 32 32 33 34 35 35 33 34 33 32 32 32 32
39 42 37 37 32 31 29 30 30 29 28 26 27 28 25 25 25 26 27 29 29 33 35 36 37 38 37 35 37 35 38 38 38 38 37 36 35 34 33 33 31 31 31 32 32 32 33 34 32 32 31 32 32 31
41 39 34 33 29 29 24 30 27 26 25 24 26 24 24 23 22 24 24 28 30 33 33 32 31 30 32 32 31 32 32 32 34 36 37 37 36 32 31 31 31 29 30 32 32 31 31 33 32 32 31 31 30 29
39 32 29 27 28 22 27 23 26 24 25 24 24 21 20 21 20 20 20 25 29 29 28 27 28 30 30 25 29 33 34 33 34 33 33 33 32 33 33 32 33 33 32 31 30 30 30 30 32 30 30 29 29 28
31 25 27 20 24 22 21 21 21 23 21 20 20 18 17 18 19 18 20 27 28 28 29 29 29 30 31 33 33 32 28 32 32 32 32 31 31 30 31 30 32 33 32 30 31 30 30 29 29 28 28 28 28 28
23 22 24 23 21 23 21 19 19 19 19 17 18 14 15 18 16 19 25 28 29 30 29 28 30 30 31 31 32 33 32 30 31 31 32 31 31 31 30 28 28 30 30 31 29 29 30 29 28 24 26 27 30 29
21 21 23 26 24 22 20 22 23 22 18 18 17 13 16 15 18 25 29 29 29 28 27 28 31 32 32 32 31 29 28 27 27 27 25 27 28 29 28 27 26 28 27 26 26 27 26 27 26 26 26 26 25 24
23 23 20 21 20 21 19 19 19 19 21 21 20 14 15 20 23 27 27 25 23 23 24 23 23 24 25 26 24 24 26 23 23 24 26 26 26 24 20 22 21 25 23 23 24 25 25 24 24 24 23 23 23 23
22 23 24 15 17 19 20 21 21 23 24 22 22 21 21 24 24 25 24 22 20 22 26 26 24 22 24 22 20 21 20 22 23 20 22 25 26 22 19 20 20 21 21 21 25 27 25 23 23 23 23 22 22 19
19 23 19 15 16 18 20 18 19 17 20 21 21 22 22 24 22 18 19 21 23 22 19 18 17 20 20 20 21 21 19 17 17 19 19 20 20 17 16 16 17 18 18 18 18 19 24 24 24 20 20 17 17 17
19 20 18 19 17 15 14 13 15 17 16 16 14 19 21 18 21 18 18 16 17 17 20 19 18 16 17 18 17 16 18 14 8 9 10 13 13 13 14 15 16 17 16 16 15 15 16 16 18 20 20 16 15 18
18 16 17 14 14 12 11 14 15 17 15 17 16 14 18 19 18 21 17 16 18 21 22 17 17 19 15 14 13 12 17 14 12 11 8 10 12 14 15 16 17 17 16 15 14 14 14 12 13 18 17 14 14 12
11 12 11 13 13 14 13 15 15 13 14 15 15 12 12 13 15 19 15 13 18 19 18 17 16 14 11 8 10 11 14 11 9 18 21 21 23 23 23 23 23 20 16 15 14 14 13 12 10 11 11 11 11 9

GFSWCAN_sfc_temp_090.txt.gz
Temp
53 53 53 51 51 51 53 53 54 53 53 54 54 54 54 54 53 50 44 47 47 42 41 46 47 40 38 38 34 36 34 35 34 30 30 32 31 32 29 34 33 31 28 29 31 26 26 44 44 37 43 46 48 48
53 52 52 50 50 51 52 54 53 53 53 54 53 53 53 53 53 52 43 48 52 43 40 48 47 47 46 44 40 37 35 36 35 30 28 27 25 26 29 23 37 30 34 32 34 35 45 46 45 49 50 48 48 48
53 51 51 51 50 51 52 54 53 52 52 53 53 53 53 53 53 51 45 47 48 42 40 41 41 46 49 47 49 35 37 41 37 36 29 28 23 28 22 25 30 33 37 34 35 43 44 46 48 48 49 49 50 52
51 50 50 51 50 50 51 52 52 52 53 53 54 53 53 53 53 52 46 48 47 45 35 35 48 41 46 46 46 46 41 43 41 37 30 30 27 34 27 31 29 34 36 36 33 39 44 46 45 46 47 49 50 50
51 50 50 50 50 50 51 53 52 52 53 54 53 53 52 52 52 49 47 47 48 43 35 34 42 42 44 44 43 43 42 40 37 33 29 26 34 31 32 32 28 35 34 30 30 39 38 40 45 48 46 47 48 48
51 50 51 50 50 51 51 52 52 52 52 52 52 52 52 52 52 47 40 45 48 46 37 29 38 38 40 42 40 39 41 38 36 34 33 35 40 32 26 24 37 40 43 42 36 38 39 42 48 46 45 46 47 47
50 51 50 50 50 50 52 52 51 52 51 51 51 51 50 50 45 41 40 43 49 46 37 29 29 36 40 40 39 39 40 36 35 34 32 34 34 31 28 24 38 41 40 39 41 40 38 44 41 45 47 46 47 45
50 50 50 50 50 51 51 51 51 51 51 51 51 50 50 50 48 41 43 48 48 40 39 29 28 29 38 35 32 38 33 34 33 33 34 32 34 31 26 33 39 42 38 37 39 41 40 43 44 44 46 45 43 42
50 50 50 50 50 51 51 51 51 51 50 50 50 51 47 44 40 40 48 48 45 39 31 31 26 23 36 37 36 34 36 28 35 30 32 32 31 26 31 35 34 36 35 36 38 40 42 41 41 43 42 43 42 42
49 50 50 49 50 51 51 51 51 50 50 50 47 42 36 40 47 46 42 37 35 34 35 31 34 27 34 36 33 32 33 30 26 31 35 29 29 37 38 37 36 36 36 38 34 34 36 35 38 41 42 43 43 42
49 49 49 49 50 50 51 51 51 50 50 42 37 35 41 47 41 37 31 31 30 27 32 33 33 28 36 32 31 35 30 30 24 29 28 28 27 29 37 36 36 36 38 41 38 40 41 37 39 40 41 40 41 41
49 48 49 50 51 50 51 50 50 46 43 42 41 42 41 37 33 31 29 29 28 27 31 29 29 34 33 36 33 33 28 30 24 33 27 25 29 34 35 36 35 36 37 39 40 38 38 38 39 40 39 39 39 40
49 49 50 51 50 51 50 51 50 48 48 42 38 33 34 31 27 26 22 25 26 30 30 29 30 35 34 35 32 31 27 27 32 28 27 28 35 37 35 37 36 37 37 38 38 38 37 36 36 36 35 35 36 35
48 48 50 50 51 50 50 48 50 47 42 36 33 26 30 26 30 29 30 30 32 32 32 34 33 31 35 30 33 28 30 32 26 24 27 33 32 33 36 36 35 34 35 36 36 35 35 35 34 35 35 36 37 36
49 50 50 50 50 48 49 49 49 42 38 33 34 29 28 30 30 31 32 32 33 36 37 31 33 36 31 30 32 30 27 24 26 25 32 34 32 32 32 35 33 34 33 33 34 35 35 34 34 35 36 35 35 34
50 50 48 48 48 48 49 47 42 40 34 33 32 27 31 29 26 29 32 32 37 37 34 32 28 28 29 31 27 27 28 21 25 34 35 34 32 32 32 34 34 34 33 32 30 32 34 35 34 34 35 34 32 32
50 45 47 47 48 49 48 40 38 33 32 31 28 32 31 31 29 31 35 36 40 32 27 29 26 21 30 27 27 29 29 27 34 28 30 34 34 32 30 30 33 34 33 32 33 33 33 33 34 33 31 31 30 30
42 45 47 47 46 45 37 36 33 32 29 30 29 29 32 33 32 34 37 37 35 31 28 27 28 26 26 24 22 26 28 34 30 29 30 33 33 33 32 31 33 33 33 33 32 31 30 29 30 31 30 27 25 25
44 45 47 47 44 37 33 32 33 26 27 29 30 31 32 32 34 33 35 36 34 33 28 28 23 24 24 26 26 28 26 27 30 32 33 35 35 34 32 28 28 28 31 32 32 32 32 32 31 30 29 30 28 29
45 45 45 45 43 34 31 30 33 30 27 28 30 29 29 29 32 34 35 32 29 27 23 23 26 28 29 30 28 28 29 32 32 30 31 32 33 25 27 26 28 28 28 27 27 33 27 29 29 29 29 30 28 28
43 42 42 38 33 32 30 30 27 28 28 26 29 29 27 30 30 31 30 31 25 25 26 28 29 31 31 29 33 32 34 34 32 32 31 26 30 26 25 24 23 27 25 25 25 27 33 29 28 27 25 29 29 28
38 42 35 36 31 30 28 29 28 29 27 26 25 26 25 25 26 26 27 29 25 28 28 29 26 27 26 28 30 29 32 32 32 32 35 33 28 24 24 23 22 20 22 26 24 25 25 25 25 25 24 25 28 25
41 38 33 32 28 28 23 29 25 25 20 22 19 17 21 23 18 21 18 23 26 25 24 23 22 21 23 23 26 27 27 24 26 28 30 29 29 24 22 22 22 19 21 24 24 22 23 30 28 26 24 24 23 22
39 30 27 26 27 21 26 21 25 22 21 20 17 13 16 15 17 15 15 20 22 22 20 19 19 20 20 17 19 22 24 26 24 22 21 22 20 25 26 26 27 25 25 24 21 21 21 22 28 22 21 20 20 20
30 25 26 20 23 22 20 19 20 20 15 16 13 11 12 14 12 12 15 19 20 19 19 19 20 20 20 20 21 21 20 22 21 21 21 21 19 18 19 22 27 28 24 20 21 21 21 18 18 17 18 18 17 16
22 22 22 22 21 22 21 18 17 17 17 13 12 11 12 13 10 13 18 18 18 18 17 16 18 19 20 21 20 19 19 19 20 19 19 17 18 18 18 19 18 20 22 22 18 18 20 20 18 15 15 18 27 18
21 20 23 27 23 22 20 21 22 18 13 12 13 12 11 9 11 19 19 19 19 17 16 16 18 20 19 19 19 18 17 14 15 16 16 16 18 19 19 18 17 19 18 17 17 18 19 19 18 17 17 15 13 14
23 23 20 20 19 19 17 16 15 14 16 18 19 11 14 16 17 18 17 16 14 13 14 14 13 13 13 13 12 13 13 11 11 12 15 16 15 14 13 14 15 26 19 15 15 14 16 21 21 18 16 16 16 11
21 23 23 15 16 16 16 17 17 18 21 18 16 15 15 19 16 16 16 13 11 12 14 14 13 10 10 9 9 10 9 11 15 15 15 14 14 12 8 8 8 8 8 9 21 23 18 17 17 17 17 16 14 8
19 22 17 12 14 15 14 13 13 13 17 17 17 16 16 16 14 12 12 11 11 12 8 7 5 6 7 7 8 8 6 6 6 9 8 8 8 6 4 4 7 7 6 7 10 12 20 14 15 11 12 13 9 6
20 18 15 14 12 10 9 10 11 15 12 10 9 12 13 10 13 12 10 8 7 6 7 6 5 3 6 5 4 4 6 3 -1 1 1 2 2 4 6 7 7 6 7 11 12 12 11 10 7 8 10 16 14 16
16 11 13 10 8 7 8 9 9 9 8 10 9 7 10 11 11 12 8 6 6 8 15 8 6 8 5 3 3 3 16 3 2 2 1 3 5 7 10 11 11 11 12 13 12 11 10 9 10 8 11 14 12 8
7 7 8 9 7 7 8 9 7 6 6 5 6 4 4 6 9 10 6 4 7 8 8 6 4 4 3 1 1 1 9 1 3 19 21 22 24 24 23 19 17 14 16 14 11 7 7 8 9 9 10 11 11 10

GFSWCAN_sfc_temp_093.txt.gz
Temp
54 54 54 54 53 52 52 53 53 53 55 53 53 54 55 54 54 49 43 42 43 34 36 41 42 35 35 34 29 32 32 32 31 24 20 20 23 27 25 30 31 30 27 27 29 24 23 44 42 36 41 44 45 45
53 53 53 53 53 52 52 52 53 53 53 53 53 54 54 54 55 50 42 45 47 38 36 43 42 42 42 39 35 33 32 32 31 27 22 20 22 20 23 18 34 26 31 31 33 32 40 42 43 44 44 45 46 46
52 53 53 53 52 53 52 51 52 53 52 52 53 54 54 54 55 49 40 43 43 37 36 36 35 40 44 42 43 31 32 37 33 32 25 24 21 24 18 20 26 29 33 30 32 40 42 40 43 43 44 44 46 49
52 52 53 52 52 52 50 51 53 53 52 53 53 54 53 54 53 50 43 44 43 40 31 31 44 37 43 43 43 42 38 39 37 33 23 22 25 30 24 27 26 30 32 30 30 35 38 40 43 42 44 45 45 47
51 52 52 51 51 51 50 50 52 52 52 53 53 53 53 53 51 47 43 43 45 41 30 30 37 39 41 41 40 40 38 34 31 26 23 23 29 28 27 27 24 31 31 27 26 33 34 36 42 44 43 43 45 45
51 52 51 51 51 51 50 51 51 51 51 51 51 52 52 52 52 45 39 42 45 43 33 26 34 34 38 38 38 38 37 34 32 28 28 32 38 27 22 20 32 35 36 37 32 35 36 39 41 45 42 43 46 45
51 51 51 51 51 51 50 51 51 51 51 51 51 51 51 49 44 40 39 42 48 43 33 25 25 33 37 36 38 38 38 35 34 30 28 33 34 26 19 21 33 36 35 36 39 38 34 39 38 43 45 44 46 45
50 51 51 51 51 51 51 51 51 51 51 51 50 50 51 51 47 40 42 47 45 38 37 24 25 26 35 33 32 37 33 34 33 30 34 31 32 28 24 30 34 35 36 37 35 35 35 38 39 41 43 44 42 42
50 50 51 51 51 50 51 51 50 50 50 50 50 50 46 42 37 38 48 47 42 38 29 26 21 18 33 36 35 34 35 28 34 27 31 32 28 24 29 31 34 36 35 35 38 36 36 36 37 39 42 42 41 42
50 50 50 50 50 51 51 50 50 50 50 51 46 40 35 38 47 46 39 34 32 32 32 29 30 25 32 34 32 31 32 29 18 29 34 28 26 34 34 33 36 36 36 37 34 31 33 33 35 36 40 42 42 42
50 50 50 49 48 50 50 50 50 51 50 41 36 35 39 46 39 36 28 27 27 26 30 29 28 27 35 30 30 34 28 30 23 27 25 27 25 26 34 35 36 37 37 37 39 37 35 35 37 38 40 40 40 40
50 50 50 49 49 50 50 50 49 45 41 41 40 42 40 36 32 31 29 28 25 26 29 26 27 27 30 37 33 33 28 28 23 32 24 25 27 31 35 36 36 37 37 37 40 38 38 37 37 39 38 38 37 38
49 49 49 48 50 50 50 50 50 48 48 41 37 32 32 30 26 28 22 23 22 29 28 26 28 32 32 35 32 30 26 23 31 27 27 26 29 35 35 37 36 36 36 37 38 37 37 36 36 36 35 35 35 34
49 48 47 50 50 50 49 48 50 49 42 35 32 25 29 26 28 29 30 29 31 31 31 31 28 28 31 28 31 19 31 31 25 22 20 25 30 31 32 35 35 34 35 35 35 35 35 35 34 34 34 35 35 34
47 48 49 50 49 49 48 50 49 41 38 33 34 27 27 29 29 31 31 32 32 36 32 29 28 34 27 28 29 29 27 21 25 22 23 26 31 30 30 35 33 33 33 33 34 35 35 34 33 34 35 34 34 32
47 49 49 49 48 49 49 48 42 39 33 32 31 27 30 27 26 29 30 31 36 34 31 29 29 26 26 27 27 26 25 18 23 23 29 32 30 30 30 34 34 34 33 32 31 30 31 32 31 32 33 32 31 31
48 47 48 48 48 48 49 39 38 32 32 30 26 32 31 29 28 30 34 36 36 31 22 23 18 20 27 27 26 32 26 23 33 24 28 35 34 30 29 29 34 34 33 32 32 32 32 33 32 33 31 32 30 30
45 46 47 47 46 45 36 35 33 32 27 27 27 29 31 32 32 33 35 36 33 26 25 21 26 26 26 24 23 24 23 35 29 26 28 30 30 30 30 29 33 33 33 32 32 32 31 30 31 31 29 27 26 26
45 46 47 48 45 37 32 32 32 25 26 29 30 30 31 31 33 34 36 36 32 30 27 21 17 15 23 24 24 31 25 31 28 30 30 32 32 31 31 26 26 28 31 31 31 32 32 33 32 32 31 29 27 29
47 47 48 46 42 34 30 30 33 29 26 28 30 28 28 29 31 32 33 30 27 23 20 22 23 25 26 27 26 26 27 30 30 29 29 31 31 23 26 25 27 27 27 25 22 31 26 28 28 29 29 29 27 28
42 41 41 37 33 32 29 28 26 28 28 26 28 27 27 29 30 29 30 30 22 17 18 24 27 29 29 27 31 31 32 32 30 31 30 24 28 25 23 22 19 26 24 23 23 25 29 27 26 24 22 29 29 29
38 40 35 36 31 29 27 28 27 28 26 26 26 27 25 25 26 26 27 28 25 22 23 26 23 24 24 27 29 26 30 30 30 30 34 33 27 24 23 22 20 16 16 18 19 21 23 24 26 25 23 25 27 25
40 37 33 32 28 26 23 29 25 25 23 22 22 21 21 22 21 23 18 15 19 20 20 21 19 18 21 21 24 25 26 22 24 26 27 27 27 23 21 21 20 15 15 19 20 21 20 28 26 25 22 23 21 22
38 30 27 26 26 21 26 22 26 24 23 21 17 17 19 16 19 10 10 12 17 17 18 17 16 18 17 15 17 19 21 22 21 18 18 20 19 24 25 24 25 23 22 20 19 19 19 21 27 21 19 17 17 17
29 24 26 20 23 22 20 19 20 20 16 17 14 10 11 11 4 5 8 14 13 13 14 14 16 15 14 13 17 18 17 20 19 19 19 18 16 15 16 18 25 25 20 16 20 20 18 17 18 18 17 16 15 16
21 20 18 17 17 20 19 16 16 16 16 10 9 8 5 6 6 10 13 13 12 12 12 12 14 15 17 17 18 16 18 16 18 18 16 14 16 14 10 15 15 17 19 19 16 16 17 17 17 17 17 18 25 20
20 16 21 26 23 22 20 22 23 19 11 11 10 8 8 8 9 16 17 15 16 12 11 10 14 18 18 16 16 15 13 9 13 14 13 12 12 13 14 14 14 18 17 15 14 15 16 18 18 17 17 17 15 16
22 22 19 19 19 19 19 17 15 14 15 17 17 9 14 17 19 18 16 14 12 10 10 10 9 10 11 10 8 9 9 6 5 7 12 12 10 8 9 10 12 24 17 15 15 13 12 13 16 20 19 17 17 13
20 23 24 18 18 17 15 15 15 17 20 18 16 14 15 18 14 14 15 12 7 10 11 11 10 4 6 5 5 4 3 7 13 13 12 10 8 10 4 4 3 3 4 6 19 21 16 16 17 16 17 17 18 16
19 23 18 14 15 14 12 12 11 11 16 16 17 15 16 15 13 9 10 8 9 8 5 3 1 4 4 6 5 6 1 -0 3 8 7 6 6 3 1 4 7 8 6 5 8 10 18 13 11 6 7 7 9 12
21 18 15 14 10 8 7 8 9 14 10 8 7 12 12 9 12 9 7 5 2 1 5 4 2 -3 4 2 1 2 6 1 -2 -1 -1 -1 -1 1 4 6 6 6 4 5 9 9 9 9 5 5 5 4 6 16
17 11 14 12 8 8 7 7 7 7 7 8 8 6 9 10 12 10 6 4 4 7 14 5 5 8 2 -0 -1 -0 15 0 -1 -1 -1 1 4 7 9 10 9 8 7 9 11 11 10 8 8 7 7 5 5 7
10 10 9 9 7 7 9 9 8 6 6 3 5 3 3 8 13 11 6 3 8 8 7 4 1 1 1 0 -1 -1 8 -2 3 18 21 22 25 24 23 16 16 15 13 12 10 4 1 1 4 4 4 4 5 7

GFSWCAN_sfc_temp_096.txt.gz
Temp
52 51 53 54 54 54 54 53 53 53 54 53 54 54 54 54 55 48 41 44 44 36 36 38 39 34 34 32 29 31 31 31 29 24 20 20 22 25 23 28 28 29 23 23 27 21 22 38 39 32 35 40 45 44
51 52 52 53 54 54 54 53 53 52 53 53 54 53 53 55 55 51 42 47 46 38 36 42 41 39 39 38 33 32 31 29 31 26 20 20 22 16 21 17 31 29 30 30 30 29 38 39 37 42 42 41 41 42
50 51 51 53 53 53 53 53 53 52 53 54 53 53 54 55 56 50 42 43 42 36 36 36 36 40 43 40 42 31 31 35 32 31 23 23 22 23 18 19 23 27 31 28 30 35 40 36 40 41 42 41 42 43
50 51 51 52 53 53 53 52 52 52 51 54 53 53 53 54 54 51 44 44 43 39 30 31 43 38 42 41 41 40 37 37 35 31 22 21 25 28 23 25 24 28 29 28 28 32 34 36 38 42 42 43 43 43
50 50 51 51 52 53 52 52 51 50 53 53 53 53 54 53 51 47 44 44 45 41 30 29 36 39 39 40 39 39 37 33 29 25 23 23 28 27 25 25 22 28 28 26 25 31 31 33 38 43 43 42 42 41
50 50 50 51 52 52 52 51 50 53 52 52 52 52 52 52 51 46 40 43 44 41 32 25 33 34 36 37 37 36 35 32 30 27 26 28 33 26 20 19 30 32 34 34 30 34 34 36 38 41 40 41 44 43
49 50 50 51 52 51 51 50 51 52 52 51 51 51 52 50 44 41 40 42 46 42 31 24 25 34 35 35 38 36 37 31 29 27 26 28 29 25 18 20 31 33 31 36 37 36 32 35 34 39 40 42 45 45
49 49 50 51 51 51 51 50 50 51 51 51 50 50 50 50 47 41 43 47 44 39 36 22 24 26 33 34 31 37 33 34 32 27 30 30 29 27 22 28 31 32 37 36 36 35 34 34 36 39 39 41 42 42
49 49 50 51 51 51 51 49 51 50 50 50 49 50 46 41 38 39 48 46 40 38 28 24 21 17 32 35 32 34 34 22 32 25 30 30 26 22 29 29 31 36 35 35 37 37 33 33 35 38 37 41 41 41
49 49 50 50 51 51 49 51 50 50 49 50 47 40 34 38 47 45 39 35 32 31 31 27 29 25 31 33 31 27 29 25 15 27 32 26 25 32 33 32 33 34 37 37 34 33 32 31 34 37 38 41 41 41
49 50 50 50 50 48 50 50 50 50 49 40 36 34 39 46 39 34 27 28 26 26 30 29 28 26 34 25 24 29 21 25 23 23 24 26 22 25 31 32 37 37 37 37 38 38 38 36 36 37 39 39 39 39
50 50 50 50 49 49 50 49 49 44 41 41 40 41 39 35 29 28 22 24 25 27 28 26 26 27 29 34 27 32 24 25 23 30 24 24 26 25 31 36 37 37 37 37 38 38 38 37 37 37 38 37 37 37
50 50 49 48 49 50 50 49 50 47 47 42 38 33 34 29 21 23 22 20 19 26 27 27 27 31 29 33 31 30 24 20 30 26 26 24 27 31 28 33 33 36 36 36 37 38 37 36 36 35 35 35 35 34
49 49 49 48 49 49 49 48 49 50 42 35 31 26 27 22 25 27 28 26 28 29 30 29 29 29 31 26 32 22 29 30 24 22 19 24 29 30 30 35 35 34 35 35 35 36 35 35 34 35 35 35 34 33
49 49 48 49 49 48 48 49 48 42 38 33 32 24 25 27 29 27 30 30 29 35 31 28 26 28 22 22 25 28 25 19 24 21 23 25 30 29 29 34 33 34 33 33 34 34 35 34 33 32 35 34 33 32
48 48 48 49 48 48 47 45 41 39 33 31 27 25 29 27 28 29 30 30 34 32 28 28 23 19 20 22 20 19 19 15 22 22 25 28 28 29 29 33 34 35 34 33 32 30 31 31 30 30 32 32 31 31
48 44 48 47 48 46 44 39 38 33 32 27 25 31 29 30 29 31 34 33 34 29 22 22 17 18 22 16 19 24 20 22 23 26 25 31 30 29 28 28 33 34 34 33 33 33 32 32 30 30 30 32 32 32
43 47 48 48 46 41 36 35 32 31 27 27 27 28 31 32 32 33 34 35 32 26 25 21 25 25 17 17 20 24 26 29 27 26 27 29 29 29 29 28 34 33 33 32 32 32 31 31 31 31 31 29 27 27
46 46 47 47 43 37 32 31 31 22 24 29 30 30 31 32 33 33 35 34 32 30 25 18 16 15 23 25 21 25 29 35 33 29 29 30 30 30 30 25 26 31 32 31 28 30 32 32 32 32 31 30 29 29
47 47 47 45 42 34 30 29 33 29 26 28 29 28 29 30 31 32 32 31 29 23 20 18 23 26 26 27 25 26 29 30 28 28 29 29 29 22 26 26 27 26 26 24 21 29 24 27 27 27 27 27 27 29
43 41 41 37 33 31 29 27 26 28 28 26 28 28 27 30 30 30 30 31 24 16 19 24 26 28 27 26 30 30 30 30 29 30 30 24 28 25 22 20 18 24 24 23 22 24 28 25 24 22 20 27 28 28
38 40 34 36 30 29 27 28 27 28 26 26 26 27 26 26 26 26 27 28 23 22 24 26 23 24 24 27 28 25 29 30 29 29 32 32 26 22 22 22 19 17 16 17 17 19 20 20 21 21 21 23 26 24
40 37 33 32 28 27 24 29 25 26 24 22 24 22 22 22 22 24 25 25 21 20 20 21 18 16 20 19 24 25 25 22 24 26 27 27 26 22 20 20 20 14 14 18 18 18 16 26 23 21 20 21 20 20
38 30 27 26 26 21 26 23 26 24 24 23 20 18 18 19 21 16 15 15 18 17 19 18 16 17 17 15 17 18 19 20 20 17 16 18 18 21 24 23 24 21 20 18 16 16 16 17 24 18 17 17 17 16
29 24 26 21 24 23 21 20 21 21 19 20 17 15 15 16 10 11 12 15 12 13 13 12 14 14 14 11 16 16 15 17 17 18 16 15 15 14 15 17 23 21 18 14 17 17 15 13 15 15 16 15 16 17
21 21 23 21 20 22 21 20 20 19 19 17 14 13 11 9 8 13 16 14 12 12 11 15 16 13 16 16 16 16 17 13 16 17 15 12 14 14 9 13 13 15 16 16 13 14 14 13 13 13 16 16 23 19
21 18 22 27 23 22 20 22 23 21 18 15 13 11 12 11 13 17 16 13 14 11 9 10 13 16 18 16 15 13 10 6 11 12 11 9 9 10 10 11 11 14 14 12 12 13 12 14 14 14 15 16 13 13
23 22 19 19 19 20 19 19 20 20 18 18 18 12 16 19 19 17 15 12 10 7 9 9 8 10 13 9 6 8 7 2 3 6 10 10 6 4 4 5 8 22 11 9 9 8 9 10 12 13 14 16 17 15
20 23 24 18 19 19 18 19 18 18 20 20 18 16 16 17 13 13 14 11 7 13 14 14 9 2 6 3 3 1 0 5 13 12 11 9 6 7 0 0 0 1 1 3 17 19 13 16 18 18 18 15 14 14
19 23 20 17 18 16 14 14 15 14 17 17 18 16 16 14 12 9 10 9 10 11 5 3 0 4 6 6 5 6 -0 -3 2 9 7 6 6 2 -2 -0 3 4 1 1 4 6 17 12 10 4 4 5 4 6
21 21 17 15 13 11 10 11 12 15 13 11 10 14 13 10 13 9 6 3 3 4 7 3 1 -5 4 1 2 3 7 1 -4 -2 -2 -2 -3 -3 2 4 5 3 1 3 6 8 8 7 2 3 4 3 3 8
19 16 17 14 11 8 8 8 7 8 9 10 9 7 10 11 12 9 5 2 2 6 12 4 6 8 1 -2 -2 -1 14 -0 -1 -1 -2 -1 1 5 7 8 7 3 3 7 6 5 4 3 4 4 5 4 3 2
13 13 11 11 9 8 10 10 8 8 7 5 6 3 2 7 13 9 3 -0 5 6 6 3 -0 -1 1 0 -1 -1 6 -3 3 18 20 22 24 24 19 10 12 12 10 8 7 4 1 -1 2 2 2 2 2 4

GFSWCAN_sfc_temp_099.txt.gz
Temp
52 52 53 52 53 53 54 54 54 54 54 54 53 53 54 53 55 47 42 44 44 34 35 38 37 34 33 32 30 31 31 30 29 23 20 19 21 24 22 25 24 24 25 25 24 20 18 36 37 32 35 39 39 39
51 52 52 52 52 53 53 54 54 53 53 53 52 54 53 54 53 50 42 46 47 38 36 41 40 39 36 36 32 30 30 28 30 25 20 19 21 15 20 17 28 25 30 28 27 27 36 36 36 40 39 38 38 38
51 51 52 52 52 52 53 54 54 53 53 53 53 54 53 54 55 50 43 43 43 36 36 37 34 39 41 38 39 31 30 34 31 29 23 23 22 23 17 18 21 26 30 29 30 32 33 35 37 40 42 40 40 41
50 50 51 51 51 52 52 53 53 53 53 52 52 54 53 54 54 51 44 44 43 38 31 32 43 37 40 40 40 39 36 35 33 30 22 21 25 27 22 24 23 27 27 26 26 29 32 33 35 36 38 40 42 41
50 50 50 50 51 51 52 53 53 53 53 53 52 53 53 53 52 47 44 44 46 42 30 31 36 37 38 38 38 38 36 32 28 25 23 22 27 26 24 24 21 27 27 25 25 30 30 31 35 39 38 40 41 41
50 50 50 50 50 51 52 52 52 52 52 51 53 52 52 52 53 47 41 44 45 41 33 26 34 33 35 37 36 35 34 30 28 27 25 27 31 26 19 19 28 30 31 32 29 30 32 34 35 38 37 38 40 42
50 50 50 50 50 51 52 52 52 51 51 52 52 51 52 53 44 40 38 43 47 43 32 25 26 35 34 34 34 33 33 30 29 26 25 27 27 24 18 20 29 31 30 32 38 36 33 32 32 35 35 37 40 40
50 50 49 50 50 51 52 52 51 50 52 51 51 51 51 50 48 41 43 47 45 39 35 22 24 30 34 30 29 36 31 29 28 26 27 27 28 26 22 27 29 31 33 37 36 37 37 34 33 37 40 37 38 39
50 49 49 50 50 51 51 50 50 51 50 50 50 51 46 42 38 39 48 46 42 39 28 24 22 18 32 31 30 32 30 20 29 24 26 28 25 21 28 28 30 33 33 35 37 37 36 31 32 37 37 37 39 41
49 49 49 50 50 51 50 48 50 50 50 50 47 39 33 38 47 46 41 37 35 31 30 25 28 25 29 29 27 27 27 23 17 26 29 25 24 31 32 31 32 33 34 36 34 34 32 31 32 36 37 39 40 40
48 48 49 50 50 50 49 50 50 50 50 40 35 34 40 46 40 35 30 30 27 26 29 28 27 26 31 25 25 28 20 24 22 21 21 16 20 24 29 30 32 36 38 37 38 37 37 37 36 36 38 38 39 38
48 49 50 50 50 50 49 49 50 44 41 41 39 41 39 36 32 30 26 25 26 27 27 25 25 27 29 32 27 29 18 21 15 26 23 18 23 24 29 31 34 35 37 37 38 37 38 38 37 36 37 36 36 36
49 50 50 50 50 49 49 50 50 48 48 43 39 34 34 30 23 25 21 18 21 25 28 28 27 29 30 30 26 25 24 20 29 25 21 22 27 28 26 31 32 36 37 36 37 38 37 37 36 35 35 35 35 34
49 50 49 48 48 49 50 49 49 50 42 35 32 27 28 19 24 26 27 26 27 28 30 29 27 27 30 25 28 15 25 30 23 19 18 22 28 30 29 33 34 35 35 35 35 36 35 35 34 34 34 34 33 31
49 49 49 47 48 49 49 50 50 42 38 32 32 28 25 27 29 27 23 27 27 34 31 28 27 28 24 22 24 25 25 22 22 20 22 24 28 28 28 32 33 34 33 33 34 34 35 34 33 33 34 32 31 31
49 49 44 47 48 48 49 45 42 39 33 31 26 26 29 28 28 23 26 29 33 34 30 29 23 18 18 21 20 19 16 14 20 22 24 26 27 28 28 31 34 35 34 33 33 31 31 29 27 27 28 29 29 30
47 40 47 48 48 47 46 39 38 32 31 27 27 31 29 29 27 27 32 32 35 30 23 22 18 19 21 13 15 21 18 21 22 26 25 28 28 28 28 28 32 35 34 33 33 33 32 33 32 31 28 30 29 30
40 46 48 48 46 41 36 35 32 30 26 28 27 29 30 31 32 32 31 34 31 25 24 20 24 17 16 16 17 22 23 20 23 25 27 29 29 28 29 29 30 34 33 33 32 32 31 31 31 31 32 31 29 29
46 46 47 47 44 36 32 31 31 24 24 29 30 31 31 32 33 34 35 32 30 29 25 19 16 15 22 24 21 16 26 24 31 28 29 29 29 29 29 24 29 33 32 27 27 29 30 30 32 32 31 30 29 28
47 47 47 46 42 33 30 29 32 26 25 27 29 28 29 30 31 31 30 29 27 21 20 16 23 25 26 27 24 25 31 32 28 27 28 28 28 21 26 25 27 26 26 24 23 28 24 24 25 26 25 25 25 25
43 41 41 37 32 32 29 27 25 26 28 26 28 29 28 30 30 30 28 29 25 18 19 23 26 27 26 25 29 29 29 29 29 29 29 23 28 24 21 19 18 24 24 23 22 23 28 24 23 20 15 24 26 27
38 41 35 36 30 29 27 28 26 28 27 26 26 28 27 26 26 26 27 28 22 22 23 26 23 23 24 27 27 24 28 29 28 29 32 31 25 21 21 21 19 19 18 18 17 18 19 19 19 19 18 19 22 20
40 38 33 32 28 27 24 29 25 26 24 22 25 23 23 23 22 25 24 25 23 20 20 21 18 15 19 18 24 24 24 21 24 26 27 26 25 20 19 20 19 15 14 17 17 17 15 24 21 20 17 17 17 17
39 30 28 26 26 21 26 23 26 24 24 23 21 19 19 20 22 19 19 21 19 18 19 17 16 18 17 16 17 17 18 20 19 16 15 18 17 20 24 23 24 20 18 17 15 15 14 16 22 15 14 12 13 14
30 25 27 22 24 23 21 21 21 22 20 20 18 17 17 19 17 16 18 21 15 15 14 13 16 15 15 11 15 15 15 17 18 17 15 14 14 14 15 17 21 19 16 13 16 16 14 11 11 11 12 12 12 15
22 21 24 23 22 23 22 20 21 20 20 18 16 15 16 17 15 17 19 18 15 14 13 18 17 14 16 15 16 16 17 13 15 16 13 11 13 14 11 13 12 14 14 14 12 13 13 11 11 10 12 14 21 15
21 18 22 27 24 23 21 23 23 22 20 18 15 14 16 16 15 19 17 15 15 11 9 14 17 18 19 15 14 14 10 7 9 11 10 8 8 7 9 10 10 13 12 10 10 11 10 10 10 9 10 10 10 11
23 22 19 19 20 20 20 20 20 21 20 20 20 15 17 18 20 18 15 11 9 9 11 9 9 14 16 11 9 12 6 3 6 7 10 9 4 1 2 3 7 21 8 7 7 6 7 8 8 9 9 10 12 9
21 24 25 19 20 20 19 21 20 19 21 21 19 17 17 17 14 12 13 11 8 13 15 14 9 8 8 6 5 3 2 8 12 11 11 8 5 7 -1 -1 -1 -1 -1 1 16 18 12 16 18 19 17 12 9 6
21 24 21 19 20 17 15 14 16 17 19 18 19 16 16 14 12 10 10 9 12 11 9 9 10 8 10 11 6 5 -1 -3 1 9 8 6 6 2 -3 -2 1 1 -2 -0 3 3 16 11 10 3 4 4 3 4
23 22 18 16 13 12 12 13 14 16 14 12 11 14 13 11 13 12 9 7 7 7 10 6 0 -4 7 2 3 5 7 0 -4 -3 -3 -2 -3 -3 -1 1 2 0 -0 2 3 4 4 3 0 2 3 2 2 6
20 17 17 14 12 12 12 12 12 12 12 12 11 9 10 13 14 12 7 5 4 6 12 9 11 9 1 -3 -3 -2 15 1 -2 -2 -2 -1 -0 4 6 6 3 4 5 6 7 3 0 -2 -1 -0 2 1 0 0
14 13 10 13 12 8 10 11 10 9 9 6 5 3 2 8 14 12 5 2 7 10 10 6 -0 3 3 1 -1 -0 6 -4 3 17 20 22 25 24 18 8 7 8 8 6 2 1 -0 -3 -2 -1 -0 -1 -0 1

GFSWCAN_sfc_temp_102.txt.gz
Temp
52 52 53 53 53 53 53 53 53 54 54 54 54 52 53 55 54 49 41 44 43 34 34 36 36 34 33 32 29 29 30 29 28 23 20 19 20 24 21 23 23 23 22 25 23 20 16 35 35 31 34 36 37 37
52 52 52 52 52 53 53 53 53 53 54 54 54 53 52 54 54 50 42 46 47 38 35 40 38 38 37 35 31 29 30 28 30 25 19 19 21 14 19 17 26 22 27 24 25 26 34 38 34 36 37 36 37 37
51 51 51 52 52 52 53 53 53 53 53 54 54 53 53 54 53 51 42 43 42 37 35 36 34 39 40 37 38 31 29 33 30 27 22 23 22 23 17 18 19 24 28 27 29 30 31 34 35 38 37 36 38 40
51 51 51 51 51 52 52 53 53 53 53 54 54 53 54 54 55 51 44 44 43 39 30 31 41 35 39 38 38 37 34 33 31 28 22 21 24 26 21 24 23 26 27 26 25 28 30 32 32 33 36 37 38 39
50 50 51 51 51 51 52 52 52 52 53 54 53 52 54 54 53 47 44 43 45 42 29 29 35 36 37 37 37 37 35 31 28 25 22 22 26 25 23 23 20 26 26 25 25 29 29 30 33 35 34 35 37 37
50 50 50 51 51 51 51 51 52 52 52 53 52 51 53 53 53 47 41 43 44 42 33 26 33 34 35 36 35 34 33 29 28 27 25 26 29 25 19 19 28 28 29 31 29 29 31 32 33 34 33 35 36 36
50 50 50 50 50 51 51 51 51 52 52 52 52 51 52 52 48 43 40 43 46 43 32 26 28 35 33 34 32 32 32 29 28 26 25 26 26 23 18 19 29 29 31 30 35 33 29 31 31 33 34 36 38 37
50 50 50 50 50 50 50 51 51 52 52 52 50 51 51 50 47 42 43 47 45 38 36 25 24 30 33 29 28 32 28 27 27 26 26 26 27 25 21 26 27 30 32 32 36 37 37 37 32 33 38 39 36 39
50 50 50 50 50 50 50 51 51 51 51 51 51 50 47 42 39 39 48 46 42 41 31 25 24 21 32 30 29 29 28 20 29 24 26 27 25 22 28 27 28 30 31 33 38 37 37 34 31 32 36 38 38 39
50 50 50 50 49 50 50 51 51 50 50 50 48 39 34 39 47 46 41 38 36 34 31 28 30 25 30 27 25 25 27 22 16 26 28 25 24 30 30 30 31 32 33 34 34 33 34 34 33 37 36 39 39 38
50 50 49 49 49 50 50 51 50 49 51 41 35 34 40 46 40 35 31 32 30 28 30 28 27 26 30 24 23 28 21 24 11 20 19 14 18 24 29 29 31 32 34 36 36 38 37 37 36 36 36 37 37 37
49 48 49 49 49 50 48 50 50 44 41 40 40 42 40 37 32 30 28 27 27 27 25 24 25 26 28 31 27 28 18 19 12 24 24 18 22 23 27 29 31 32 33 34 36 38 38 38 37 36 36 35 35 36
49 49 49 49 49 47 49 50 48 47 49 45 38 33 34 29 20 21 18 17 18 25 27 27 26 28 29 28 26 24 19 20 26 24 22 20 25 26 24 29 30 34 34 36 37 38 37 37 37 35 35 35 35 34
49 49 49 49 47 47 49 48 49 51 42 35 31 26 27 21 23 24 25 26 29 29 29 28 27 27 29 24 25 17 25 27 21 17 17 21 27 28 27 31 32 34 36 35 35 36 36 35 34 34 34 33 33 31
49 50 49 48 48 48 48 49 49 42 38 32 32 23 24 27 29 24 25 29 29 34 30 27 26 28 23 21 24 24 23 22 22 18 22 23 27 28 28 34 35 35 34 34 34 34 35 35 33 32 33 30 29 29
49 48 43 49 48 48 48 46 42 39 33 29 25 25 29 27 27 20 27 29 33 33 30 29 22 18 18 23 23 17 16 15 20 21 23 24 26 27 28 34 33 34 35 34 33 32 31 28 26 26 27 27 28 29
46 38 47 49 48 47 45 40 38 32 30 27 27 31 26 26 28 28 31 30 37 30 23 22 18 20 22 15 15 21 17 21 21 21 27 27 29 28 28 28 34 33 33 33 33 33 33 32 33 32 31 30 30 31
39 43 45 47 45 41 36 35 32 30 26 27 26 29 30 32 31 31 30 34 30 25 25 21 24 15 17 16 17 22 20 19 23 25 26 28 28 27 29 28 32 35 33 33 32 32 31 30 31 31 31 31 31 30
44 46 47 46 43 36 32 31 32 25 24 28 30 31 32 32 33 34 35 31 30 30 26 22 19 15 21 23 21 15 26 26 31 28 28 28 28 28 28 25 29 34 34 29 30 30 31 30 30 31 30 29 28 29
48 47 47 47 42 33 29 29 32 27 24 27 30 29 30 30 31 31 30 30 29 25 23 20 23 25 26 26 24 24 26 27 28 27 27 27 27 20 25 25 28 31 30 28 26 28 26 24 24 24 24 24 23 24
43 41 41 38 33 31 29 27 26 26 28 26 28 29 28 30 31 28 26 28 27 19 21 23 26 26 24 24 28 29 29 29 28 29 29 23 27 23 20 19 18 24 23 23 22 22 28 23 22 19 14 23 24 24
39 41 35 36 30 29 27 28 25 28 26 26 27 28 27 27 27 27 26 23 21 24 24 27 23 23 23 26 26 22 28 28 28 29 32 31 25 22 25 23 23 19 20 19 17 18 18 18 18 18 17 18 22 19
41 38 33 32 28 27 24 29 25 27 25 23 25 24 23 23 22 25 21 22 24 23 23 22 19 16 20 17 23 24 24 23 25 26 27 26 24 20 18 19 19 17 16 18 16 16 14 23 20 18 15 16 15 15
39 31 28 26 26 21 26 23 26 25 25 23 22 19 20 21 23 22 20 22 24 20 20 19 19 19 18 17 17 17 18 19 18 15 14 19 18 20 23 22 23 21 19 16 14 14 13 15 21 14 12 11 11 11
31 26 27 22 25 23 21 21 22 23 20 21 19 18 18 20 21 17 20 25 18 15 17 17 17 18 21 12 14 14 13 16 18 17 14 13 13 13 14 16 19 18 16 12 15 15 12 10 10 10 10 10 10 12
22 21 24 23 21 22 21 20 20 21 21 19 17 16 18 19 19 20 22 21 17 18 16 21 20 17 17 16 17 14 15 12 16 18 13 11 13 14 11 14 12 13 13 13 11 12 11 10 9 7 9 11 18 11
20 17 22 27 24 23 21 23 24 23 21 18 16 15 18 19 20 22 21 19 18 17 16 18 19 22 21 16 14 13 10 7 11 13 10 8 6 6 9 11 10 12 11 9 9 10 9 9 7 6 7 7 6 8
22 21 19 20 20 21 21 21 22 22 21 20 20 18 19 22 22 20 18 15 11 11 12 11 12 17 17 13 14 12 8 6 8 7 10 9 5 1 1 3 8 20 6 5 5 4 6 6 6 8 8 9 10 6
19 23 24 20 20 21 20 21 21 20 22 21 21 20 19 18 15 15 15 14 13 15 17 15 9 10 10 8 6 5 11 11 12 10 10 8 5 7 -2 -2 -1 -1 -2 1 17 17 10 15 17 19 13 9 9 4
19 24 21 20 20 18 15 15 17 17 19 19 20 17 17 16 14 13 13 13 14 15 11 13 11 12 14 14 9 6 1 -2 1 10 9 7 7 2 -3 -2 -1 -2 -3 -1 1 1 16 10 8 2 2 3 3 4
24 22 18 17 14 13 13 14 16 17 17 16 16 18 17 15 15 13 13 11 10 10 13 10 5 4 12 10 7 8 7 1 -5 -3 1 -1 -3 -2 -2 -2 -1 -1 -0 1 1 2 2 0 -2 -2 0 -1 -1 3
20 18 18 15 13 13 14 15 15 15 15 15 13 13 13 15 16 15 11 10 11 12 15 13 13 11 2 -2 -2 2 17 6 1 -2 -2 -1 -0 1 1 2 0 1 3 3 3 0 -2 -3 -3 -2 -1 -3 -2 -1
15 14 13 13 13 12 13 15 13 13 13 13 12 9 10 12 16 15 7 5 8 10 11 7 0 6 4 3 3 6 7 -2 2 17 19 22 24 22 15 10 4 5 4 3 2 -0 -3 -5 -5 -6 -6 -4 -2 0

GFSWCAN_sfc_temp_105.txt.gz
Temp
54 54 53 53 53 53 53 53 54 54 54 53 54 54 52 53 55 49 42 44 42 32 32 34 35 32 34 32 29 29 30 29 28 24 20 19 20 23 21 22 22 21 18 19 23 20 17 35 35 31 35 37 38 38
53 53 53 53 53 53 53 53 53 53 53 53 54 54 53 52 53 50 41 45 45 37 33 38 37 37 35 34 31 28 30 28 30 25 19 19 21 14 19 16 24 22 26 24 26 26 34 36 35 37 37 36 36 37
53 52 52 52 52 52 52 53 53 53 53 53 54 54 53 53 53 50 43 42 41 36 33 34 33 39 40 36 36 32 29 32 30 27 22 23 22 23 17 18 20 24 28 27 29 30 32 34 36 40 36 35 37 38
51 51 51 52 52 52 52 52 53 53 53 53 54 54 54 53 54 50 44 43 42 38 30 31 41 35 39 38 37 36 34 32 30 28 21 21 24 26 21 24 23 26 28 26 26 29 30 32 34 34 35 35 36 37
50 51 51 51 51 52 52 52 52 52 53 53 53 54 53 52 52 48 45 44 45 42 31 31 35 37 37 37 36 36 34 31 28 24 22 22 26 24 22 22 20 25 26 25 26 30 30 31 32 34 33 34 35 35
50 50 50 51 51 51 51 52 52 52 52 52 52 53 52 52 51 47 41 44 44 42 33 27 33 33 35 35 34 33 31 29 28 27 25 25 28 25 19 19 28 27 29 31 30 29 31 32 33 33 33 34 35 35
50 50 50 51 51 51 51 51 51 51 52 52 52 52 52 51 48 42 40 42 46 43 33 26 27 33 33 33 31 31 30 28 28 25 24 25 26 23 18 19 29 28 29 30 33 32 29 31 30 33 33 34 37 36
50 50 50 50 51 51 51 51 51 51 52 52 52 52 50 51 48 42 43 48 45 39 36 24 25 27 33 29 27 30 27 27 27 26 26 26 26 25 21 26 26 28 30 31 33 36 34 33 31 32 34 36 37 38
49 50 50 50 50 51 51 50 51 51 51 52 52 50 48 43 39 40 48 46 42 41 29 26 25 24 33 28 29 28 28 20 29 24 26 27 24 21 28 27 26 29 30 31 34 37 35 35 32 32 36 38 38 38
49 50 50 50 50 50 50 50 50 51 51 50 46 40 34 39 47 47 42 39 37 34 30 26 29 25 29 27 25 24 27 21 16 25 27 24 23 29 29 29 30 30 32 33 32 30 34 35 35 37 37 38 37 37
50 50 50 50 50 50 50 50 50 51 50 43 34 33 40 47 41 36 32 31 32 30 30 28 27 26 30 24 23 27 22 22 10 19 19 14 17 23 27 29 30 31 33 33 34 36 38 37 36 37 36 37 37 36
50 50 50 50 50 50 50 50 50 47 43 40 39 42 40 37 33 30 29 27 28 28 26 25 25 28 29 30 25 26 18 18 13 24 23 17 21 22 25 28 29 31 32 33 36 39 37 38 37 36 36 36 35 36
49 49 50 49 49 49 50 50 51 48 46 44 38 33 34 31 26 24 20 19 18 25 26 27 27 29 28 27 25 23 16 18 26 23 21 20 24 25 22 28 29 31 33 34 37 39 38 37 37 36 35 36 35 34
49 49 49 49 49 50 50 50 48 48 42 35 32 27 29 24 26 24 25 25 27 29 30 31 27 26 29 24 25 17 24 27 21 16 17 20 25 26 26 30 34 30 34 35 36 37 36 36 35 35 33 34 33 29
49 49 49 49 49 50 50 48 50 43 38 31 32 26 26 26 26 21 22 28 30 35 33 29 27 28 21 21 24 26 23 19 20 18 22 22 26 28 27 32 30 34 35 34 35 35 35 35 32 31 29 27 27 28
48 48 46 48 50 50 48 47 42 39 33 29 26 25 29 26 25 22 26 29 35 35 30 30 23 19 18 22 22 17 16 15 20 21 22 22 26 28 29 36 33 34 35 35 33 31 30 28 26 26 28 27 27 28
46 40 48 48 48 46 45 39 37 32 30 27 26 30 26 26 26 27 32 32 39 34 26 23 20 21 22 15 15 22 18 21 21 20 22 26 29 28 30 34 31 31 32 34 34 32 32 32 28 31 31 32 32 32
39 44 48 47 45 41 36 34 32 30 26 25 28 28 31 30 30 31 30 36 33 27 27 23 25 18 19 18 18 23 21 22 22 28 25 27 27 27 30 31 34 33 27 33 35 32 31 30 30 29 27 29 27 25
43 46 47 47 43 36 32 31 32 24 25 28 30 31 32 32 32 32 34 30 29 30 26 20 18 18 22 23 21 16 26 31 29 27 27 27 27 28 28 28 33 35 35 33 30 31 31 32 31 30 27 26 24 23
48 47 47 45 42 33 29 28 32 26 25 27 29 29 30 30 30 32 30 29 29 24 22 20 25 27 26 26 24 25 30 28 30 27 26 26 26 22 25 26 32 33 32 30 28 30 27 25 23 23 23 24 23 23
44 42 42 38 33 31 29 27 26 27 27 26 28 29 28 31 30 30 29 30 29 21 23 25 28 27 24 24 28 29 28 29 29 29 28 26 26 23 20 18 26 28 27 24 21 22 27 22 22 19 16 22 23 23
40 43 35 36 30 29 27 26 24 27 25 26 27 29 28 27 28 28 27 28 24 28 27 29 26 24 24 26 26 23 28 28 28 30 32 31 27 26 26 24 24 24 21 19 18 19 18 17 17 17 16 17 20 17
41 38 33 32 28 27 23 28 23 26 25 23 26 24 23 23 24 26 29 28 28 27 27 25 21 19 23 20 24 25 25 25 26 26 26 24 23 19 18 23 24 20 15 18 17 17 14 23 21 16 14 15 14 13
39 31 29 27 26 20 26 23 26 24 25 24 22 19 20 22 25 25 22 25 28 24 24 22 24 22 22 22 20 19 19 20 19 16 14 21 18 19 22 22 22 19 22 23 21 14 13 14 20 13 11 11 10 10
31 26 27 22 23 23 19 20 21 22 20 21 19 17 19 22 22 19 21 26 22 22 23 22 23 24 26 19 16 16 14 17 20 18 13 12 13 12 14 16 17 16 15 12 14 14 11 10 10 9 9 9 8 9
22 19 21 23 21 21 20 18 19 20 20 19 17 17 19 21 19 20 23 24 20 20 22 24 24 22 20 19 19 16 16 12 16 17 12 12 13 16 11 13 11 12 12 12 11 11 10 9 8 5 7 9 16 8
20 17 22 27 23 23 21 22 24 23 21 19 17 16 19 20 21 22 19 19 21 19 20 23 24 26 23 16 14 12 9 8 11 14 11 9 7 6 10 12 11 12 10 8 9 10 9 8 7 5 5 4 4 5
22 22 20 20 21 21 20 20 21 23 22 21 22 19 21 23 22 15 14 14 14 14 15 14 16 21 19 16 14 12 10 10 10 11 12 10 5 2 2 7 10 19 5 5 5 4 6 6 5 6 6 7 8 4
20 23 25 20 20 20 19 22 21 20 22 23 23 21 21 17 13 12 13 14 13 16 18 16 11 14 12 10 9 11 13 14 15 12 11 8 5 6 -2 -2 -1 -2 -2 2 18 15 11 14 15 15 6 4 3 0
21 24 22 21 21 18 14 15 16 17 19 20 21 19 17 15 13 12 13 13 15 17 17 18 15 19 16 16 11 8 3 1 3 12 12 9 10 3 -3 -2 -0 -3 -4 -1 1 1 17 7 7 0 -0 -0 -0 0
23 21 17 16 13 13 13 15 17 18 18 17 16 17 15 12 14 13 12 13 14 15 16 15 13 15 18 17 16 14 11 5 -3 -2 5 7 4 2 -0 -2 -2 -2 -2 -1 -0 0 -0 -1 -3 -5 -4 -5 -3 1
19 18 17 14 13 14 15 16 16 16 16 16 15 15 13 15 15 14 12 13 14 16 20 18 18 15 9 7 8 7 22 9 4 5 7 6 3 1 0 -1 -2 0 1 1 -0 -1 -4 -5 -5 -6 -5 -7 -4 -2
16 16 15 15 14 14 15 17 14 14 15 15 13 11 11 13 17 16 10 10 15 18 18 14 11 10 9 8 9 13 12 7 10 17 20 20 20 16 6 4 3 4 3 2 -1 -3 -5 -7 -7 -9 -8 -7 -3 -2

GFSWCAN_sfc_temp_108.txt.gz
Temp
55 55 55 54 54 54 54 54 54 54 54 54 54 54 54 53 54 53 46 48 47 42 40 39 39 41 41 42 40 38 39 37 38 35 35 36 35 36 33 34 32 32 30 29 29 26 28 44 42 38 42 44 44 43
55 55 54 54 54 54 53 53 53 53 53 53 53 53 54 52 54 53 46 49 51 45 40 43 42 42 40 40 41 38 39 39 43 39 35 35 34 30 34 35 36 32 38 37 37 40 43 45 44 45 45 43 43 43
55 54 54 54 53 53 53 53 53 53 53 53 53 53 54 52 54 52 48 48 49 43 41 41 39 43 45 43 43 42 41 42 40 40 37 38 34 37 34 35 35 36 39 37 36 42 42 44 45 46 45 43 43 44
53 53 53 53 53 53 53 53 53 53 53 53 54 54 54 53 52 51 47 49 50 46 39 38 45 41 44 43 42 43 42 40 40 41 38 38 37 36 37 35 36 40 38 38 38 41 40 42 44 44 42 42 42 44
52 52 52 52 52 52 52 52 52 53 53 53 53 53 54 53 52 49 48 50 52 48 39 37 40 42 43 43 41 42 42 41 40 38 38 38 37 35 35 34 34 38 40 38 42 43 44 42 43 41 40 40 42 41
52 52 52 51 51 52 52 52 52 52 52 52 52 52 52 51 52 47 41 49 49 49 39 33 39 39 41 41 41 40 39 39 39 39 38 37 36 36 33 34 43 40 41 43 43 42 41 41 41 41 40 41 42 42
51 51 51 51 51 51 51 51 51 52 52 52 52 52 51 51 47 42 41 48 49 48 39 30 32 38 40 40 39 40 39 37 39 37 35 36 36 35 32 32 42 40 41 40 42 41 37 38 39 41 40 41 42 43
50 50 50 50 51 51 51 51 51 51 51 52 52 52 51 50 46 42 45 48 48 45 42 31 30 33 40 36 35 38 37 37 36 36 35 34 34 33 28 38 37 38 39 39 40 42 41 41 40 40 41 41 40 41
49 50 50 50 50 51 51 51 51 51 51 51 51 52 46 43 40 41 48 48 47 46 37 34 31 30 38 35 36 36 36 33 35 33 34 34 33 27 37 39 37 37 38 39 40 41 40 39 39 39 40 40 39 39
49 49 49 50 50 50 51 51 51 51 51 51 48 40 33 40 49 47 43 42 42 40 38 36 36 30 36 34 31 33 33 32 28 34 34 29 31 39 38 39 41 39 40 41 37 34 36 37 38 39 39 40 39 38
49 49 49 49 50 50 50 51 51 50 50 44 38 34 40 48 42 37 33 35 38 35 37 36 35 30 35 32 32 34 29 29 25 30 28 27 27 33 37 38 38 41 41 42 43 42 43 43 41 39 38 39 38 38
49 49 50 50 50 50 50 50 50 47 44 40 40 42 41 38 33 31 31 33 32 33 31 32 32 35 33 37 33 30 28 25 25 31 26 24 32 32 32 37 37 40 41 40 41 41 41 42 41 40 38 38 37 37
49 49 50 50 50 50 50 50 50 49 47 44 39 33 32 32 29 28 25 26 29 30 29 30 30 32 32 35 31 30 25 25 32 25 26 31 34 32 31 35 36 39 39 39 39 40 41 40 39 37 37 37 37 36
49 49 49 50 50 51 50 50 49 47 45 34 31 28 29 27 30 32 33 30 33 32 32 36 31 34 34 32 31 27 31 30 23 20 25 36 35 34 33 36 36 36 38 38 39 39 38 39 37 37 37 38 37 35
49 49 49 49 50 49 49 49 48 47 38 32 32 29 29 32 29 29 31 32 32 37 37 32 32 34 29 27 31 28 23 22 25 28 34 35 34 33 34 36 34 36 37 37 39 37 37 37 35 36 35 35 35 34
49 48 46 49 49 49 48 48 44 40 33 31 28 27 30 28 26 28 30 31 37 39 38 36 30 27 27 29 24 23 24 23 31 32 35 33 33 34 35 35 35 38 38 37 36 36 36 35 34 34 34 35 35 34
47 41 48 48 49 48 48 40 38 33 32 29 28 33 31 30 29 29 34 34 41 38 33 29 27 28 28 24 24 29 25 33 33 32 32 35 34 34 36 36 36 38 37 36 36 35 35 35 34 34 34 36 35 34
41 45 48 48 47 43 36 34 32 31 27 29 28 29 32 33 31 33 34 38 37 33 33 31 29 23 25 24 26 31 31 29 29 32 33 34 36 36 36 35 35 35 35 36 36 35 34 33 34 36 32 31 31 31
45 46 47 47 44 37 32 31 32 27 28 30 31 33 33 32 33 34 38 38 34 34 30 30 28 27 28 31 32 28 29 32 30 31 33 34 35 34 34 35 35 34 33 35 36 36 36 35 34 33 33 32 31 31
47 47 48 47 43 34 30 29 32 29 28 29 31 30 31 30 31 34 34 33 33 32 29 28 31 33 33 33 31 31 34 34 33 31 30 31 33 31 31 33 34 36 36 35 33 34 31 30 29 30 30 30 28 30
44 42 41 38 33 32 29 28 28 29 29 28 30 31 29 32 30 31 31 32 31 28 29 31 32 31 28 29 32 33 33 35 37 37 34 30 31 32 29 31 33 33 31 30 29 29 30 29 31 30 28 29 30 29
40 42 35 36 31 29 27 28 28 30 28 28 28 30 29 28 29 31 31 31 29 32 32 32 31 29 29 30 30 31 33 32 32 35 35 33 29 28 27 28 28 28 29 28 29 30 30 30 28 27 27 28 27 27
42 38 33 32 28 28 24 29 25 28 27 25 28 26 25 26 28 29 31 32 32 31 30 29 27 26 27 26 28 28 30 31 31 31 31 30 30 29 30 29 29 28 26 28 28 28 27 27 29 27 25 25 24 25
40 31 30 27 27 22 27 22 27 25 26 25 23 21 22 24 26 27 27 28 31 28 28 26 28 26 27 28 28 27 26 28 26 25 27 29 27 26 27 27 28 27 27 27 27 26 25 25 26 24 22 22 21 21
30 27 28 22 24 21 18 21 22 22 21 23 21 20 21 23 24 23 25 29 26 27 28 28 31 33 31 26 24 24 21 27 29 27 21 24 22 22 21 22 22 21 22 24 24 24 22 20 20 20 19 19 18 18
23 23 25 19 22 19 20 19 21 21 21 21 21 20 21 22 22 23 25 26 24 26 26 29 30 28 27 28 26 24 25 23 27 26 21 22 25 27 24 23 23 22 19 22 23 22 20 18 18 15 18 16 18 15
20 16 21 27 23 23 21 23 25 24 22 19 19 18 20 21 22 25 21 21 23 22 28 31 31 34 29 22 20 19 19 19 23 22 17 15 14 17 23 24 21 21 18 19 20 20 19 17 16 16 15 15 15 14
20 19 18 19 19 20 19 21 22 23 23 23 23 19 22 25 25 19 18 17 17 19 20 19 23 26 24 21 18 16 14 15 15 15 17 16 12 12 14 17 19 21 16 16 16 16 16 16 15 15 14 14 13 13
17 22 24 17 20 20 18 21 22 22 23 24 25 22 22 18 15 15 15 16 17 21 20 18 16 17 16 16 16 17 17 20 23 22 20 18 17 16 9 11 12 11 13 16 22 17 15 15 16 16 12 11 10 9
22 25 23 21 20 17 15 16 17 18 20 21 21 19 19 17 14 14 16 17 20 21 21 20 19 21 18 18 14 14 12 12 15 24 22 19 19 14 10 10 11 9 9 12 13 13 20 13 13 9 8 8 9 10
24 22 18 17 14 14 15 16 18 19 19 18 19 20 18 16 16 15 16 17 18 19 19 19 20 21 20 20 20 19 18 14 9 8 12 14 12 11 10 10 10 8 9 10 11 11 10 8 7 6 6 4 3 6
20 18 17 14 13 15 16 17 18 18 18 18 17 17 17 19 19 17 15 17 18 19 23 22 21 19 19 19 18 20 25 13 11 14 13 12 13 11 10 8 6 8 9 9 9 8 5 5 5 5 6 3 2 3
17 17 16 15 13 14 16 17 17 16 17 17 15 14 15 17 19 18 12 13 18 21 20 18 16 15 14 15 15 17 17 12 14 22 23 22 19 14 9 9 9 9 9 9 7 6 4 2 3 2 1 -0 2 3

GFSWCAN_sfc_temp_111.txt.gz
Temp
55 56 56 56 55 55 54 54 54 54 54 54 54 54 54 54 53 51 48 52 51 46 46 44 45 45 46 47 44 43 43 42 42 38 39 41 40 41 37 41 36 36 33 33 35 30 30 49 45 39 45 48 48 46
55 55 55 55 55 54 54 54 54 53 53 53 53 54 54 53 52 52 45 52 57 50 45 48 46 46 44 45 47 45 44 44 48 44 41 41 40 38 39 38 42 35 43 41 41 42 48 51 49 50 49 48 47 46
54 55 55 55 54 54 54 54 54 54 53 53 53 54 54 53 53 52 52 52 51 48 46 44 43 47 49 47 49 45 48 48 45 45 44 44 37 43 39 40 41 42 46 40 40 48 47 48 49 50 49 47 47 47
54 54 54 55 54 54 54 53 53 53 53 53 54 54 54 53 52 53 53 55 56 53 43 43 48 45 48 48 46 48 47 46 47 46 43 43 40 44 43 40 40 46 43 42 43 47 45 47 49 49 46 45 45 47
53 54 54 54 53 53 53 53 53 53 53 53 53 53 53 53 53 53 53 53 57 52 44 42 44 45 47 47 45 46 47 46 45 41 40 41 44 40 42 39 39 45 45 41 45 51 49 47 49 47 44 44 45 44
53 53 54 53 53 53 52 52 52 52 52 52 52 53 53 53 52 48 43 49 53 56 44 37 43 42 44 47 46 45 45 45 45 44 44 44 41 39 37 38 49 52 51 54 49 49 48 47 46 46 44 44 45 44
53 53 53 52 52 52 52 52 52 52 52 52 52 52 52 51 49 44 42 49 54 56 45 35 36 42 43 44 44 44 44 43 44 43 39 42 39 38 35 36 51 49 49 47 49 46 42 43 43 44 44 44 44 44
52 53 52 52 51 51 51 51 51 51 52 52 52 52 52 50 47 43 47 50 53 52 47 36 34 36 43 40 39 43 41 41 40 42 39 38 38 37 32 42 47 46 47 45 46 48 47 46 44 43 44 43 40 42
52 51 51 51 51 51 51 51 51 51 51 52 51 51 48 45 40 41 47 48 49 49 41 38 34 32 40 40 41 38 41 36 40 37 37 38 37 30 40 44 46 43 42 43 45 45 44 42 42 42 43 42 39 41
50 50 50 50 50 50 51 51 51 51 51 51 48 41 36 41 47 47 41 39 40 41 40 38 43 33 40 39 37 37 38 37 31 38 38 33 34 43 47 47 48 46 46 46 40 38 39 39 40 42 42 42 41 40
49 49 49 50 50 50 50 51 51 51 50 45 39 36 45 48 43 39 32 32 35 34 41 43 43 33 39 35 35 39 33 34 28 34 32 32 32 38 44 44 45 46 47 46 47 47 45 45 43 43 41 41 40 40
49 49 49 49 49 50 50 50 51 47 44 44 41 44 42 38 36 32 31 34 33 33 40 38 36 39 36 41 37 33 32 28 28 35 30 27 37 34 37 42 43 46 46 46 46 45 46 46 46 44 41 39 39 39
49 49 49 49 49 50 50 50 50 50 47 44 40 34 32 32 28 28 28 31 32 38 36 35 33 35 35 39 35 33 28 29 35 28 29 35 39 36 35 41 42 45 45 44 43 45 44 43 42 40 39 39 38 38
49 49 49 49 49 50 50 50 50 48 43 35 32 29 29 30 31 34 39 39 40 38 35 40 34 36 37 34 34 31 35 32 26 24 28 42 42 38 38 40 41 41 42 42 41 41 41 40 38 39 40 40 40 38
48 49 49 49 49 50 50 50 50 45 39 32 32 29 31 37 33 34 35 36 38 40 40 37 36 38 33 30 35 30 25 24 29 31 40 41 39 37 37 40 37 40 41 40 42 40 39 39 38 37 39 39 38 37
49 49 48 49 50 50 50 50 47 42 34 33 32 30 33 32 30 31 33 34 40 42 41 38 33 32 32 34 27 27 27 26 34 35 39 38 37 38 38 38 38 41 40 39 40 39 37 37 36 38 38 37 37 37
48 43 48 49 49 50 50 43 35 32 32 31 30 34 34 34 35 35 38 38 44 40 37 34 30 33 33 29 28 34 30 35 38 36 37 39 37 37 38 37 39 40 39 37 37 37 38 38 38 37 35 38 38 37
45 48 48 49 48 43 36 35 32 32 30 31 32 32 33 36 36 35 38 40 39 40 35 33 34 27 29 27 30 35 35 33 35 37 36 38 39 39 38 37 37 38 36 37 36 36 36 35 34 36 35 33 33 33
47 47 49 47 44 37 32 32 33 30 30 33 32 33 34 35 37 40 39 41 36 36 34 32 32 32 33 35 36 34 34 35 34 35 37 40 40 38 38 35 35 36 35 36 36 37 38 37 37 37 36 34 33 34
48 47 46 47 46 36 31 30 35 32 30 31 32 31 32 33 35 37 37 37 34 33 31 31 36 39 39 37 36 36 37 38 35 33 33 36 38 34 34 35 36 36 37 37 36 37 35 33 32 32 33 33 32 32
46 45 43 39 33 34 32 31 31 32 31 31 32 32 31 32 31 31 31 33 32 32 33 37 37 35 32 33 36 38 37 38 39 39 35 32 34 34 34 35 36 37 36 35 32 31 32 30 33 33 31 32 32 32
38 42 36 37 32 31 29 31 31 31 31 31 30 32 30 29 30 31 32 31 32 36 36 36 34 32 31 32 33 35 36 36 37 38 38 35 32 30 31 32 32 32 32 32 31 31 32 33 32 31 30 31 30 30
41 38 34 33 30 30 26 31 28 29 28 27 29 28 28 29 30 32 31 33 35 34 33 32 31 31 31 30 32 32 34 35 35 35 36 35 34 33 31 30 32 31 29 30 32 32 31 31 31 30 29 28 27 27
40 33 31 30 29 25 29 26 28 28 29 27 26 24 25 26 27 29 29 31 33 30 30 28 31 29 30 32 32 31 30 33 31 31 32 31 29 29 32 31 31 31 31 32 31 30 29 28 29 27 26 25 25 24
31 28 30 24 27 24 23 24 25 26 24 25 24 22 23 25 26 27 27 31 30 30 31 31 33 34 33 31 28 27 26 33 32 29 27 31 27 27 26 27 26 26 27 28 27 27 25 25 24 24 22 22 20 20
26 25 26 26 24 25 24 22 22 23 24 23 23 23 24 25 24 25 29 31 30 32 31 32 33 32 31 32 29 27 28 29 33 29 24 29 31 30 26 25 24 23 24 26 27 25 23 22 21 18 20 19 20 17
22 22 25 28 28 26 25 27 28 27 22 20 21 20 23 22 24 29 24 24 26 26 33 35 36 36 30 26 24 24 24 24 27 26 23 21 21 23 29 28 26 23 23 24 25 25 22 20 19 19 18 18 17 16
24 24 22 24 24 25 22 24 23 23 26 26 25 22 23 26 28 21 20 19 20 23 25 26 30 32 30 26 22 20 18 18 18 19 20 20 18 19 21 21 22 24 21 20 20 20 20 19 18 17 16 16 15 14
23 26 26 19 20 21 21 23 25 24 25 26 27 25 24 20 18 19 18 19 21 23 23 22 20 22 21 21 21 21 21 23 25 24 24 20 19 17 17 18 17 18 21 21 24 20 15 18 18 16 13 13 12 12
23 27 25 19 15 17 17 18 20 21 22 22 23 21 20 19 17 17 18 19 22 24 24 22 21 23 20 20 16 17 17 19 23 28 26 24 24 17 15 15 15 15 17 18 17 19 22 17 16 12 11 11 12 12
26 24 19 18 15 16 17 19 21 21 21 20 21 21 19 19 18 18 19 20 21 22 22 23 23 24 23 21 21 20 20 18 17 18 20 19 17 16 16 15 15 14 15 15 15 15 14 12 11 10 8 6 5 8
22 21 19 16 15 16 18 20 20 20 20 21 19 19 18 20 20 19 18 20 21 21 24 24 23 23 26 26 25 27 28 17 18 19 18 18 17 15 14 13 12 14 14 13 13 11 9 9 9 9 8 4 3 3
19 19 18 17 16 16 18 20 20 19 20 19 18 17 18 20 21 20 16 16 21 25 23 23 21 22 21 21 21 21 21 18 20 25 25 23 21 17 13 13 13 13 12 12 11 9 7 5 6 3 2 -0 1 2

GFSWCAN_sfc_temp_114.txt.gz
Temp
56 56 56 56 56 56 55 55 55 54 54 54 54 54 54 54 53 49 47 52 46 42 43 44 45 40 41 40 36 38 36 35 34 30 29 28 28 31 27 34 29 28 22 21 26 22 19 42 40 33 38 41 44 42
55 55 55 55 55 56 55 55 54 54 54 54 54 54 54 54 53 51 44 51 53 44 41 46 46 45 43 42 39 39 37 39 39 34 31 30 28 26 29 23 34 26 34 30 32 31 42 44 42 43 44 42 42 40
55 55 55 55 55 55 55 54 54 54 53 53 53 53 54 54 54 52 46 48 47 43 42 40 40 44 46 45 45 36 40 43 40 37 32 33 29 31 24 26 31 34 39 32 34 39 40 43 43 44 44 41 42 42
54 54 55 55 55 55 54 54 54 54 53 54 54 54 54 54 52 52 48 49 49 47 36 36 47 41 45 45 44 44 42 42 41 37 32 30 30 36 30 32 31 36 36 33 34 39 37 41 43 43 42 42 41 41
54 54 54 54 54 54 54 53 53 53 53 53 53 53 53 53 53 50 49 50 51 44 36 36 41 43 44 44 42 42 41 40 35 31 30 29 34 31 32 29 28 36 34 32 31 41 39 38 42 44 41 40 41 39
54 54 54 54 54 54 53 53 53 53 52 52 52 52 53 53 52 47 41 49 51 48 41 32 39 38 40 42 41 40 40 38 36 34 34 34 36 30 25 25 39 41 43 44 40 40 41 41 41 41 40 40 41 39
53 53 53 53 53 53 53 52 52 52 52 52 52 52 52 52 48 43 41 44 50 50 40 34 31 37 39 38 39 38 38 36 35 34 31 33 32 30 25 25 41 43 43 41 41 40 36 38 36 39 40 41 42 39
53 53 53 53 53 53 52 52 52 52 52 52 52 52 52 51 48 43 45 49 50 46 44 33 29 30 38 33 32 38 34 34 34 33 32 30 30 29 25 34 38 40 41 40 40 41 40 40 39 39 40 39 37 40
52 52 52 52 53 52 52 51 51 51 51 51 51 51 48 45 40 42 47 48 46 43 34 33 28 25 36 35 34 33 34 28 33 29 31 32 29 24 32 35 38 39 38 38 41 40 39 37 37 38 38 37 38 41
51 52 52 52 52 51 50 50 51 51 51 51 47 41 36 41 47 47 41 37 36 37 36 31 35 28 33 32 30 30 32 29 23 30 31 27 27 38 39 40 41 41 40 41 37 34 35 34 35 36 37 38 40 40
51 51 51 51 51 50 50 50 51 51 50 44 39 36 43 48 43 38 33 30 32 31 34 35 35 28 35 29 29 33 25 27 18 26 24 24 25 30 38 41 40 42 42 42 40 40 39 38 37 37 37 40 40 39
51 51 51 50 49 49 49 50 50 47 44 44 42 43 41 37 36 31 31 31 31 29 33 34 33 32 32 36 31 30 25 23 20 29 21 20 29 29 33 36 38 40 40 41 41 40 40 41 40 39 38 39 39 39
51 51 50 49 49 49 49 50 50 50 48 44 39 34 33 32 27 28 25 27 29 33 31 31 28 30 32 32 32 31 25 22 29 21 22 27 32 31 27 35 37 40 40 39 40 40 40 39 39 39 39 40 38 37
50 49 49 48 48 49 49 50 50 48 42 34 32 27 28 26 28 29 29 31 33 33 33 36 29 31 34 30 32 27 31 27 19 18 22 31 35 32 31 35 38 38 38 38 38 38 37 37 38 38 38 39 38 34
49 48 48 48 48 49 49 50 49 46 38 32 32 27 28 31 29 30 29 30 32 38 37 32 30 33 30 29 31 29 22 18 23 24 32 32 32 32 33 36 35 37 37 37 37 36 35 35 35 36 35 34 33 32
48 47 46 48 48 49 49 48 46 43 35 32 32 31 33 32 30 25 26 28 34 38 39 34 31 29 28 31 24 21 19 18 26 31 33 31 31 33 34 35 36 38 36 36 35 35 34 36 36 37 32 31 31 31
47 42 47 48 48 49 49 45 42 35 31 31 30 33 33 31 33 30 32 33 41 38 31 30 27 26 27 20 20 27 23 29 33 32 32 32 31 33 34 35 36 36 35 34 34 36 37 38 37 32 29 30 31 31
43 46 49 49 48 47 44 35 33 32 29 32 31 31 31 31 32 32 35 38 38 33 32 31 28 22 23 21 22 27 31 31 31 31 31 32 32 33 35 34 35 35 33 33 35 35 32 28 29 29 28 28 28 25
46 47 48 49 46 37 32 31 32 30 31 32 32 34 33 31 32 34 36 37 39 35 29 31 30 26 26 27 29 33 32 31 32 32 33 34 34 34 34 33 33 33 32 31 31 31 31 30 30 30 29 27 25 24
49 49 48 48 46 34 31 30 33 31 28 31 32 31 31 28 31 34 34 35 34 31 30 28 30 31 31 31 29 30 33 35 34 32 32 34 34 31 32 33 33 32 32 31 32 35 29 28 28 28 28 28 26 26
46 46 46 39 33 33 32 31 31 31 30 28 33 29 28 30 30 31 30 34 30 30 30 29 31 31 30 28 32 34 35 37 36 35 34 32 33 32 31 30 32 32 32 33 32 32 31 28 25 24 20 26 27 26
40 43 36 37 32 30 29 30 30 31 30 30 29 28 26 25 25 29 31 29 30 33 32 33 29 29 29 29 30 32 34 35 35 37 38 36 31 32 31 32 32 30 31 32 32 31 31 29 23 23 22 21 24 21
41 39 33 32 29 27 25 28 23 26 22 27 28 24 26 27 28 31 28 30 31 33 30 30 29 29 28 27 30 31 32 34 34 33 34 33 33 33 33 33 33 32 30 29 30 25 21 28 28 22 21 19 18 18
40 33 32 30 27 23 27 23 26 22 26 23 23 21 22 23 27 26 27 28 29 30 30 29 30 28 28 28 28 27 27 31 31 31 32 31 30 29 31 31 31 31 30 29 24 22 21 21 26 20 17 16 14 14
30 28 30 24 25 20 15 21 23 25 23 26 23 20 20 25 24 26 25 29 29 29 31 31 31 32 31 30 26 25 24 31 31 28 25 31 28 27 26 26 26 25 26 27 26 22 18 18 17 16 14 14 12 10
25 25 26 20 22 21 21 18 18 23 24 23 24 24 23 23 23 23 25 29 31 31 30 31 32 32 31 31 29 26 26 28 32 26 24 28 30 29 26 24 23 22 23 22 23 19 17 16 14 12 11 13 21 7
22 20 23 27 26 25 22 24 26 23 21 19 20 19 19 20 21 24 20 21 23 24 31 35 36 35 33 27 24 23 21 24 26 24 22 21 21 24 28 27 25 22 21 21 20 20 17 14 13 12 10 7 6 6
23 24 17 22 20 20 19 19 19 19 19 21 23 17 18 20 21 18 18 17 18 22 25 28 33 33 30 27 23 21 19 20 20 21 21 20 19 21 22 23 24 26 19 17 17 15 15 14 12 11 9 6 4 3
20 23 23 14 17 19 18 19 19 19 22 22 19 19 19 17 15 16 16 17 20 23 24 23 22 23 22 21 22 22 24 25 26 25 22 18 18 17 18 20 20 19 19 20 25 17 13 13 11 9 6 6 3 1
22 24 18 16 14 17 16 16 17 18 20 19 19 17 17 15 14 15 17 17 20 23 23 23 23 24 21 21 19 19 19 21 24 30 26 23 22 17 16 16 16 15 16 15 17 23 25 12 12 3 3 2 2 1
23 20 16 14 11 14 17 18 19 21 19 17 18 16 15 14 15 16 17 19 21 22 22 23 23 24 23 22 23 21 21 19 19 22 23 20 19 17 16 14 14 12 13 14 14 12 10 5 3 2 1 -1 0 1
18 13 13 10 8 14 13 19 20 20 20 17 16 18 18 19 19 16 16 18 21 22 25 25 23 23 25 26 25 27 29 19 19 21 20 19 17 15 14 13 13 14 13 11 9 7 6 4 3 1 0 -5 -6 -5
16 15 12 12 11 13 16 20 19 17 18 15 13 15 18 18 20 17 16 16 19 23 23 23 23 23 23 22 21 22 22 19 22 26 25 23 21 17 14 13 13 12 10 9 6 5 3 2 -0 -4 -4 -6 -6 -6

GFSWCAN_sfc_temp_117.txt.gz
Temp
55 55 56 56 56 56 56 56 55 55 54 54 54 54 54 53 53 47 42 46 42 40 38 40 41 35 37 35 31 35 34 33 30 28 24 23 25 28 25 29 27 26 19 19 21 18 19 39 37 33 37 38 40 39
55 55 55 56 56 56 56 56 55 54 54 54 54 54 53 53 53 50 43 50 51 42 39 43 43 43 42 40 36 35 35 34 34 30 26 24 26 20 25 20 31 26 31 28 28 28 38 40 39 41 41 40 40 39
54 55 55 55 55 55 55 55 55 54 53 53 53 54 54 54 54 51 46 47 46 42 43 37 37 41 43 42 42 34 35 39 37 35 28 29 28 27 22 23 26 30 35 31 33 35 38 40 41 42 42 40 40 40
54 54 54 55 55 55 55 55 55 54 54 53 54 54 53 53 54 52 43 46 47 45 33 34 43 38 42 42 41 40 39 40 38 34 26 25 27 32 27 31 29 33 34 31 30 35 37 40 40 41 40 40 40 41
54 54 54 54 54 54 54 54 54 54 53 53 54 53 53 53 53 50 48 48 51 43 32 33 38 40 41 40 40 40 38 36 32 28 26 27 30 30 28 27 24 33 33 31 31 37 37 37 39 40 38 38 39 39
53 54 53 54 54 54 54 54 53 53 53 53 53 53 53 53 52 47 41 47 50 48 35 28 36 36 38 39 38 37 37 35 32 31 30 31 34 29 23 22 34 35 37 39 39 37 39 37 38 39 38 38 39 38
53 53 53 53 53 53 53 53 53 52 53 52 52 52 52 52 44 43 41 44 48 49 39 33 29 34 37 36 35 34 36 33 33 31 29 29 30 29 21 23 37 39 42 40 39 38 34 36 36 38 38 39 42 38
53 53 53 53 53 53 53 53 52 52 52 52 52 52 52 52 48 41 45 48 48 45 43 33 27 28 35 29 29 34 30 31 31 31 31 29 29 28 24 31 38 39 39 37 38 38 38 38 36 36 37 37 35 36
52 52 53 53 53 53 53 52 52 51 51 52 51 51 47 44 39 37 48 47 45 42 34 33 25 22 32 31 31 30 31 24 31 27 29 30 27 23 32 35 35 37 37 37 37 37 36 36 35 35 35 35 34 36
52 52 52 52 52 52 52 52 51 50 51 51 47 41 36 40 48 46 38 37 36 37 36 31 30 26 30 29 26 27 29 26 19 29 31 27 27 37 37 39 41 39 41 39 34 31 32 32 34 34 35 35 36 38
51 51 52 52 52 52 52 51 50 50 50 43 39 36 41 48 42 36 33 32 32 30 33 34 34 27 32 25 25 30 22 22 12 24 24 20 23 31 37 39 43 39 40 41 40 42 39 37 36 35 34 35 36 40
51 51 51 51 51 51 51 50 49 47 44 43 41 43 41 37 34 31 29 31 29 28 32 31 33 31 30 33 28 28 24 23 18 27 20 16 28 33 33 36 35 38 40 40 38 39 38 38 38 37 35 36 37 40
51 51 51 51 51 51 50 49 49 48 47 43 38 33 32 32 27 25 24 27 28 31 33 29 26 30 31 29 28 26 23 23 27 16 20 23 33 36 29 33 34 36 39 39 37 38 38 37 37 37 36 36 39 38
50 50 51 51 51 50 48 49 48 47 42 33 31 26 27 26 28 29 27 28 34 31 31 35 26 29 31 30 30 26 28 25 14 14 18 28 37 41 32 33 35 34 37 38 37 37 36 36 35 36 36 37 39 38
50 50 50 50 49 48 48 48 48 46 37 32 32 26 28 29 24 27 28 29 31 37 36 30 28 30 25 29 28 25 18 16 21 21 28 39 38 35 31 34 33 35 36 37 36 35 35 35 34 33 35 36 36 33
50 50 49 49 48 48 48 47 45 41 34 32 31 28 29 28 27 25 22 27 33 38 35 31 26 28 29 28 23 20 17 16 22 25 30 33 33 33 31 34 34 36 37 35 35 35 33 33 33 33 32 30 30 30
49 42 48 48 47 47 48 43 39 32 32 31 29 34 28 26 31 26 30 32 39 37 28 25 24 25 27 24 21 24 18 24 28 29 31 34 34 33 33 32 34 35 35 34 34 34 34 34 34 35 30 29 29 29
41 46 47 47 46 44 42 38 33 32 28 30 26 28 32 29 31 31 31 35 34 31 28 25 30 22 21 16 18 24 26 28 27 30 31 33 33 34 35 33 34 34 33 33 33 32 31 31 34 31 27 27 25 25
44 46 47 46 43 35 32 31 32 29 28 27 24 31 30 29 31 34 35 37 33 32 30 24 25 23 23 24 24 26 28 30 37 30 31 34 35 34 34 33 33 32 32 32 33 34 35 32 29 29 28 27 25 23
47 47 46 45 43 33 30 29 33 30 25 27 28 31 29 27 28 29 31 34 30 25 25 25 26 29 29 31 28 30 31 30 30 28 30 32 35 34 33 34 34 32 30 28 28 31 27 27 28 28 28 27 26 25
44 44 44 43 33 32 32 29 30 31 30 25 31 30 28 27 28 25 24 30 32 29 29 30 35 35 30 28 32 32 33 34 34 35 33 31 33 34 33 32 32 33 31 30 29 28 30 27 26 25 23 27 26 26
41 44 34 36 31 30 29 30 29 29 29 28 30 29 26 26 28 30 32 30 29 30 30 33 34 38 29 31 32 32 33 34 34 35 38 37 32 31 31 32 32 31 31 31 31 30 26 25 24 24 23 22 24 20
42 39 33 32 28 27 24 30 27 24 26 27 28 25 24 23 23 30 28 27 27 27 32 28 27 26 31 26 29 30 32 32 32 32 34 33 34 34 33 33 33 31 30 30 30 30 30 30 30 25 24 21 19 17
40 33 31 29 26 22 27 25 26 24 26 25 24 21 21 26 29 26 24 20 29 28 30 30 30 27 26 28 28 28 29 32 31 31 33 32 32 32 33 33 33 33 32 30 29 26 25 26 28 23 21 19 14 14
31 28 29 24 23 21 21 21 20 16 14 15 10 17 22 23 21 21 16 21 29 31 33 32 32 35 33 32 30 28 26 32 31 30 31 34 31 30 29 28 27 27 30 27 25 25 23 22 21 19 17 15 13 9
24 24 24 23 22 18 17 16 13 13 13 10 12 13 16 18 17 17 20 25 30 31 33 33 33 33 34 35 31 29 29 29 32 30 28 31 32 31 28 26 25 24 24 29 26 23 22 20 18 15 14 18 22 7
21 20 23 26 24 23 21 20 20 17 12 14 16 16 21 20 17 22 21 19 20 23 25 35 36 36 35 32 29 27 28 31 30 26 24 24 25 29 32 29 27 27 24 26 26 24 21 19 16 14 10 7 6 5
24 22 19 21 16 16 15 15 14 17 19 19 20 16 15 17 22 20 18 15 14 20 25 32 34 34 30 28 24 23 21 22 21 23 24 22 21 22 24 25 26 29 25 24 23 22 20 18 15 12 10 8 3 0
16 22 21 12 11 11 13 17 16 16 20 20 17 16 17 17 13 11 14 15 19 22 25 25 24 25 24 23 24 24 24 27 27 26 24 20 20 19 22 24 23 23 24 24 26 19 13 14 13 12 8 7 3 -1
17 20 15 6 10 11 10 12 11 14 17 17 18 14 14 12 12 12 15 18 20 22 23 24 24 25 23 23 21 21 20 21 25 31 26 24 23 18 20 20 20 21 21 21 21 22 26 18 15 4 4 3 2 1
19 15 10 8 6 9 11 13 16 19 16 12 12 12 11 10 13 14 15 17 20 23 23 23 25 26 25 24 25 24 23 20 22 25 25 22 20 20 20 20 20 20 20 19 16 14 13 6 6 4 4 2 3 1
17 12 9 6 7 11 15 17 18 17 17 20 18 18 11 12 15 14 15 15 18 22 25 25 24 25 28 29 30 29 32 21 23 23 22 21 19 18 17 17 17 17 16 14 12 9 8 6 4 3 2 -1 -4 -6
15 14 13 11 14 11 15 14 17 15 19 18 15 14 17 14 15 15 14 16 19 22 24 25 25 26 26 25 24 24 24 22 24 27 27 25 23 20 17 16 16 15 13 11 8 8 6 3 2 -1 -1 -2 -5 -7